GFSSE_sfc_rhum_000.txt.gz
RH
92 95 90 90 92 92 91 91 91 93 91 88 86 84 83 82 82 81 82 80 80 73 70 71 68 71 71 68 71 81 81 85 83 80 80 75 69 73 79 84 84 79 85
92 97 92 92 92 92 91 90 91 92 90 86 85 84 84 80 78 82 80 76 74 68 66 71 71 70 75 78 80 82 82 82 90 88 86 80 79 74 75 85 86 82 84
96 95 95 92 91 91 88 86 89 90 86 87 85 83 80 77 76 80 80 77 71 68 68 71 71 73 78 81 83 84 82 82 85 85 86 88 90 80 74 86 88 88 84
94 95 95 92 92 92 92 92 90 88 86 87 86 84 81 77 78 80 79 76 70 68 70 70 66 70 76 81 82 83 84 85 86 87 91 89 86 79 73 82 85 82 83
95 95 96 93 92 92 91 91 92 93 93 92 89 85 84 80 79 82 81 73 73 70 69 70 71 72 80 81 86 87 84 84 87 87 91 93 92 79 72 79 84 85 86
96 94 95 94 93 92 88 87 89 92 94 93 90 87 84 81 80 84 83 80 77 76 74 74 74 82 88 88 88 89 87 86 90 89 89 91 89 81 76 81 84 87 88
97 95 96 94 93 91 86 86 90 92 94 95 92 89 87 85 84 76 78 82 78 81 78 79 82 81 85 86 84 89 88 88 88 89 88 92 89 81 77 80 83 85 86
96 96 94 89 89 90 90 90 92 92 93 93 92 92 87 88 88 86 84 84 81 83 84 84 86 84 84 84 88 85 86 88 89 93 93 94 90 76 77 79 83 83 84
95 95 95 93 88 89 90 90 92 94 94 93 91 94 94 93 91 86 83 80 78 78 79 82 83 86 86 87 89 92 94 94 97 98 93 95 87 81 77 78 82 83 84
95 93 93 92 91 92 93 92 93 93 95 94 90 90 91 92 88 84 82 81 78 81 82 81 82 83 81 81 83 87 88 93 97 97 95 94 83 79 76 78 82 84 86
93 93 92 92 90 89 87 89 90 90 94 96 92 90 92 95 92 91 83 81 82 82 80 81 82 83 83 83 83 83 85 96 92 95 94 88 81 77 74 79 81 82 84
95 94 94 93 92 89 73 90 94 93 97 99 98 97 96 94 94 88 87 82 80 80 82 84 82 81 81 91 94 88 94 93 94 93 92 83 77 74 74 76 81 82 84
93 96 95 94 94 93 90 95 98 98 98 98 98 98 97 98 97 98 98 98 97 90 97 95 96 98 94 96 97 98 97 96 98 96 92 90 85 77 72 72 73 78 82
89 93 94 95 96 95 97 97 96 97 98 98 97 96 98 99 97 98 99 98 99 98 97 98 99 98 97 95 95 95 95 97 99 100 98 94 89 84 80 76 71 70 81
81 83 85 91 93 89 93 96 96 97 97 97 97 95 97 97 97 97 98 98 99 98 99 98 96 93 90 89 92 95 94 96 97 98 98 86 81 69 64 67 76 74 70
68 68 83 89 91 86 81 81 86 92 94 96 96 96 92 97 97 98 98 98 98 98 97 94 89 86 87 88 87 80 79 84 91 90 87 84 78 71 68 66 64 70 78
56 61 79 86 88 85 79 78 79 80 79 82 87 86 86 93 97 96 98 99 98 97 88 91 85 86 80 78 72 76 77 77 86 77 70 72 75 75 75 77 75 72 73
51 59 78 70 84 84 84 84 83 81 80 76 80 85 87 91 89 88 94 96 96 92 92 93 67 66 71 72 74 71 69 66 64 60 64 67 75 77 84 88 86 83 81
47 56 69 69 78 74 78 84 84 80 82 75 77 84 85 86 84 81 82 84 86 79 80 83 68 71 68 65 62 63 65 64 62 55 58 61 67 74 88 83 82 92 87
51 56 53 62 70 66 64 63 62 61 61 72 70 72 80 82 82 82 81 81 80 77 76 75 70 75 71 66 55 58 66 66 68 64 61 58 68 72 74 77 90 88 80
52 44 40 46 48 52 54 54 56 55 53 57 60 62 68 76 80 80 76 79 84 76 66 72 73 71 73 76 69 66 69 70 67 63 64 73 70 75 74 82 86 83 86
44 43 39 37 39 42 48 50 53 52 53 54 56 57 60 64 70 75 73 68 74 75 77 74 74 76 74 79 68 78 65 63 64 67 69 60 75 76 75 71 77 78 85
39 41 40 39 40 44 48 52 52 55 55 54 49 54 51 58 58 70 68 68 66 72 68 67 70 72 65 82 79 66 82 74 79 68 58 61 64 72 77 71 73 73 73
40 43 44 45 46 46 52 54 57 57 58 54 57 54 50 57 63 61 69 73 68 65 68 72 66 73 74 78 82 76 72 73 57 53 61 66 58 56 68 78 74 71 75
52 53 64 58 55 56 57 61 65 62 68 68 66 69 66 67 70 67 66 66 74 74 76 73 76 77 64 68 59 67 68 79 78 65 62 56 54 60 65 76 81 85 70
60 60 59 56 54 56 59 61 64 66 64 64 57 71 75 80 80 78 78 80 78 75 70 68 64 60 65 64 65 67 68 60 59 67 76 66 60 60 64 64 73 76 80

GFSSE_sfc_rhum_006.txt.gz
RH
41 48 89 82 82 87 87 88 86 86 88 85 84 84 86 84 82 80 79 75 72 69 67 67 68 68 69 68 70 65 71 75 75 68 71 68 70 74 78 82 80 51 85
43 50 90 86 84 85 87 87 86 85 84 83 81 81 84 84 83 80 76 74 72 69 70 71 68 71 73 76 78 75 75 78 81 79 74 72 72 72 77 80 78 61 82
42 47 52 88 86 86 87 87 85 84 83 82 81 78 75 80 82 82 79 74 70 68 67 70 70 71 76 78 80 81 82 82 78 80 76 36 34 74 75 82 78 84 83
42 48 50 92 90 87 87 86 87 85 85 84 82 80 80 80 83 83 78 75 73 72 72 71 72 78 81 82 79 82 82 81 81 80 42 38 38 73 75 81 79 80 82
41 44 56 91 91 91 92 90 88 86 86 86 86 84 84 83 83 83 81 78 77 76 75 77 78 77 82 87 85 84 83 83 80 67 40 41 36 57 68 76 78 81 82
34 39 72 91 91 88 86 87 88 89 90 88 86 84 83 83 81 77 80 80 78 78 78 80 80 80 80 80 83 84 82 83 84 39 43 48 46 65 66 74 80 79 85
31 36 39 91 89 85 83 82 84 88 90 89 87 86 86 84 84 82 83 82 82 82 80 81 84 87 88 86 82 80 80 84 52 39 39 48 52 68 64 72 78 79 82
33 40 40 80 87 87 85 85 88 89 88 87 88 88 87 87 85 84 82 80 78 78 78 79 81 83 84 85 88 92 93 91 53 47 47 44 82 74 68 71 79 82 83
32 35 38 39 60 88 89 88 90 90 88 86 87 87 90 90 86 83 81 77 78 79 79 78 80 81 81 80 80 83 86 84 50 46 47 42 82 74 70 76 82 83 82
37 34 41 45 40 44 45 86 88 88 90 86 84 83 86 85 81 79 72 76 78 77 78 78 79 78 79 80 79 78 77 72 44 44 41 51 79 73 70 72 79 84 84
38 44 45 41 44 44 40 53 78 84 87 88 78 82 76 44 49 50 78 77 78 77 78 77 76 72 70 76 78 77 77 37 41 36 36 80 78 72 70 74 77 80 81
42 44 43 50 48 47 36 46 46 45 42 49 50 57 46 56 54 57 68 80 78 78 75 77 79 80 68 33 35 62 35 43 37 37 37 88 84 77 73 73 74 76 77
37 38 43 53 55 51 40 37 34 34 40 43 57 59 55 57 53 50 48 45 49 66 42 47 46 39 49 45 38 43 40 41 30 30 52 78 68 65 67 70 73 74 77
34 37 42 48 56 58 39 35 37 38 39 41 44 61 57 50 52 53 46 43 45 42 51 45 44 53 47 41 40 41 39 33 24 27 45 67 62 56 55 57 61 65 72
34 40 45 49 54 49 54 42 45 47 40 46 45 47 53 49 51 46 45 41 41 41 42 46 44 40 35 32 33 35 32 34 35 26 26 61 62 62 62 60 61 63 66
35 38 46 49 51 43 44 49 44 42 39 39 38 40 52 53 49 43 40 36 35 34 38 41 41 38 32 31 31 35 33 31 31 33 23 31 62 68 67 64 67 69 68
30 34 45 47 42 44 42 39 35 31 36 33 33 41 45 47 44 46 38 37 35 36 45 46 47 42 36 28 31 32 32 34 30 32 28 25 37 73 68 66 67 66 64
32 37 40 39 36 39 37 35 32 30 35 32 33 36 44 46 47 47 39 38 37 41 38 40 40 38 36 31 30 27 28 28 30 32 28 28 24 21 62 71 66 63 63
28 35 39 38 28 30 36 33 36 40 32 25 30 28 34 38 42 45 39 38 43 40 40 39 40 40 39 32 28 28 29 27 28 22 27 32 33 27 23 68 68 67 62
31 36 35 30 32 36 33 35 27 28 27 27 26 26 31 30 38 40 38 44 44 43 42 39 45 40 38 37 24 23 28 29 28 27 28 25 26 33 31 32 33 38 61
38 36 30 33 35 28 25 26 24 26 25 26 26 33 36 34 35 40 36 39 41 41 44 50 48 49 46 40 40 34 32 33 37 30 28 26 26 30 33 33 27 24 28
32 32 30 27 29 28 24 28 31 34 29 30 28 32 30 33 32 32 37 37 38 38 44 46 51 50 47 44 45 40 39 31 30 33 30 29 35 27 31 34 31 30 28
34 33 29 30 32 34 31 26 26 27 27 27 28 27 29 33 32 34 37 39 42 41 38 43 45 49 46 44 48 47 44 41 32 27 39 32 36 35 32 31 30 29 29
38 36 33 33 31 33 36 33 38 32 33 34 34 30 30 31 32 32 36 41 44 41 44 42 35 44 47 47 42 39 49 46 47 43 35 38 35 38 40 32 29 31 31
37 39 38 34 33 34 33 38 35 39 36 34 34 35 32 29 32 33 39 45 46 43 45 52 54 54 50 51 48 47 57 48 48 51 44 42 35 33 30 34 36 33 33
37 41 39 34 34 37 37 38 45 48 44 38 35 33 30 31 31 36 40 46 48 48 49 49 55 59 58 58 56 57 56 69 60 51 48 44 42 35 32 34 37 36 35

GFSSE_sfc_rhum_009.txt.gz
RH
34 52 86 80 83 85 83 82 85 89 88 83 82 84 83 82 80 77 75 73 72 70 71 70 69 70 70 70 73 74 72 76 73 64 63 66 68 72 76 76 83 60 78
35 46 88 84 86 86 85 84 84 83 84 82 81 83 84 82 80 78 76 74 72 69 69 72 70 74 77 80 82 79 79 81 82 78 72 70 71 71 76 75 72 64 83
37 42 50 89 84 86 84 82 82 81 81 81 79 76 78 81 82 80 76 74 71 70 69 70 71 76 78 78 76 79 80 82 84 82 79 40 43 72 76 77 74 76 76
35 37 52 93 92 84 86 84 84 82 81 80 80 80 79 81 82 80 76 75 74 74 74 74 75 77 80 83 81 81 80 80 84 83 46 35 37 70 76 77 74 74 71
34 40 64 92 92 93 92 88 83 84 84 85 84 82 82 82 81 78 77 77 76 76 76 76 76 76 76 78 85 83 82 83 83 70 42 46 49 66 71 77 75 76 79
28 40 78 91 90 87 85 85 87 89 88 84 83 81 81 81 77 76 80 80 79 79 77 78 82 85 86 83 78 79 81 83 88 44 42 62 62 72 66 68 78 76 79
22 30 48 88 87 82 79 80 83 86 87 85 84 84 83 82 81 81 82 81 78 76 76 78 81 83 85 87 87 88 83 83 60 42 46 72 58 71 63 67 73 79 81
25 28 33 75 80 80 80 80 84 85 84 85 87 86 84 84 82 81 79 78 78 77 77 76 78 80 81 81 81 85 87 87 53 43 50 53 81 76 69 71 77 78 80
24 27 30 33 59 82 83 84 86 85 84 84 84 86 87 85 82 80 76 75 76 76 76 75 75 76 78 78 77 77 79 79 58 47 49 66 80 74 70 72 76 79 79
24 27 32 32 30 36 50 84 84 84 85 82 80 80 83 84 80 74 72 75 74 74 75 73 72 73 72 75 75 74 75 79 50 34 38 71 76 72 71 70 72 78 80
26 32 32 31 32 33 30 52 79 83 84 85 77 80 74 46 43 49 77 74 74 73 73 73 72 70 69 73 73 68 75 38 36 30 45 82 78 73 71 72 75 76 81
33 30 35 38 37 35 25 35 36 32 35 40 42 46 38 48 46 47 64 77 76 74 74 75 73 74 77 32 38 66 38 34 32 29 44 82 78 74 71 73 74 75 77
28 27 32 46 43 37 32 30 27 28 32 35 42 46 45 45 44 41 41 39 42 61 36 46 43 37 44 41 34 36 33 34 26 24 56 67 61 60 61 64 68 71 74
26 25 32 42 43 42 32 28 30 29 33 33 38 44 46 41 44 45 38 37 38 33 40 39 38 43 43 36 33 35 34 31 22 23 47 61 53 53 52 55 59 63 66
24 25 30 40 38 34 38 35 37 38 34 40 35 38 40 42 46 40 40 35 34 32 33 36 36 36 36 34 30 32 31 31 32 28 25 64 56 60 58 55 58 62 64
22 26 30 35 36 31 33 38 38 36 32 31 30 34 40 42 45 39 37 34 32 30 31 35 38 40 37 32 32 31 33 30 28 31 24 38 64 66 63 59 63 64 65
22 23 30 34 33 32 34 33 29 26 29 28 28 34 36 38 42 44 38 37 34 35 42 37 37 36 36 33 32 29 30 34 32 32 29 25 40 72 67 63 62 61 60
21 23 26 29 30 31 31 29 26 26 29 28 28 30 34 36 38 43 37 38 38 42 37 37 35 36 35 34 35 30 28 27 29 31 30 29 25 26 63 72 65 62 61
20 23 27 34 25 27 32 27 30 31 28 22 25 24 32 32 35 39 37 40 47 42 44 42 40 42 39 38 34 33 31 29 31 23 28 32 36 28 26 73 72 68 62
22 24 26 30 23 27 27 31 24 24 25 24 24 26 31 30 37 38 36 42 42 38 40 41 50 43 46 44 34 33 37 32 30 33 30 26 29 36 33 35 46 47 69
31 29 27 29 33 26 24 25 24 25 25 26 25 30 33 32 32 35 31 33 37 36 42 48 47 50 47 46 47 46 43 43 41 32 33 30 30 30 37 36 33 27 41
31 32 29 27 27 24 24 27 31 33 28 28 27 30 28 33 32 31 36 34 35 35 46 49 52 48 46 47 50 49 53 45 38 37 34 36 41 30 31 36 38 36 30
32 30 28 29 30 31 29 26 27 26 27 26 28 29 29 33 29 30 32 36 42 42 40 48 47 50 47 46 50 50 55 51 43 36 42 39 42 38 35 33 40 34 34
35 33 31 30 29 30 35 32 37 33 34 34 33 31 30 30 28 27 30 36 44 43 47 45 36 52 53 50 45 37 47 51 57 61 44 45 43 43 46 38 36 35 33
35 37 34 31 30 32 32 36 37 40 38 35 35 37 39 31 32 29 32 39 45 42 46 52 52 52 49 48 47 49 55 55 58 75 77 57 47 42 47 54 40 35 34
34 36 35 31 29 33 36 37 41 48 47 37 37 36 32 34 31 34 33 42 46 46 47 47 49 54 62 60 57 60 67 73 73 76 78 66 62 76 65 52 55 44 39

GFSSE_sfc_rhum_012.txt.gz
RH
56 63 85 84 86 86 86 88 89 88 88 88 87 86 85 81 81 80 79 79 77 72 72 73 73 76 77 79 82 82 85 87 86 82 77 71 66 74 76 84 77 67 81
54 62 89 87 87 87 87 86 87 87 86 86 87 87 85 82 80 78 77 75 74 71 71 72 75 77 78 79 80 82 84 86 88 86 83 77 74 72 73 79 81 76 80
53 58 68 88 88 87 86 86 86 85 84 83 82 84 82 82 80 78 77 76 75 74 73 74 75 76 78 82 82 83 84 85 86 85 84 72 53 74 70 82 82 83 83
49 58 73 92 89 89 89 88 86 84 82 84 82 80 81 82 82 79 76 78 76 74 73 73 74 74 75 77 85 85 85 86 87 85 72 51 57 83 70 80 81 78 81
56 68 82 94 94 93 93 91 90 90 89 87 85 82 82 81 76 76 78 80 78 75 74 75 78 82 84 84 82 84 86 88 89 81 65 57 73 80 73 74 80 81 81
54 68 88 92 90 89 90 90 91 90 89 87 86 82 81 78 77 80 82 81 76 74 74 76 78 82 85 88 88 87 87 85 87 70 58 77 84 85 92 75 78 79 80
47 60 70 89 88 86 84 86 89 90 89 88 85 84 81 80 80 81 80 78 76 74 74 74 77 79 81 84 82 87 91 90 80 69 71 90 84 64 86 72 79 81 81
40 53 56 83 86 86 86 88 89 89 89 89 87 84 82 81 81 79 78 77 76 76 75 74 74 75 78 79 79 83 84 85 69 62 60 89 87 85 76 69 79 80 80
28 35 45 58 76 83 86 88 89 88 88 87 86 86 85 84 83 78 76 74 73 72 72 70 71 72 71 75 79 81 81 82 80 68 55 85 80 73 70 69 73 80 81
33 33 43 53 54 65 76 85 88 88 87 86 84 84 86 85 84 78 78 74 71 70 69 68 69 69 68 69 74 77 79 80 68 61 69 82 78 71 70 70 74 77 82
32 42 45 40 48 58 61 70 84 86 86 85 83 83 83 72 74 72 74 76 71 71 70 71 71 72 74 76 78 80 80 61 55 47 73 84 75 71 71 72 75 76 79
41 39 46 51 52 47 29 65 66 58 70 70 64 66 65 64 62 56 68 79 79 78 79 80 80 81 81 65 68 81 75 55 50 46 85 81 72 68 69 74 76 76 79
35 37 48 59 55 51 50 48 51 52 56 61 69 62 66 63 70 69 76 77 86 85 76 80 72 77 61 63 58 58 54 50 52 45 71 72 63 58 59 64 68 71 74
33 34 48 54 57 56 52 52 54 54 55 60 60 64 69 70 72 68 67 61 63 59 60 62 63 63 62 52 49 51 51 54 48 48 72 67 61 50 50 56 61 64 68
34 36 45 53 55 59 53 63 63 62 62 61 58 64 65 66 72 68 66 63 62 59 59 61 59 59 60 54 52 46 45 49 48 48 60 63 62 54 52 54 58 62 65
30 36 48 50 54 48 53 55 61 58 59 58 61 57 58 66 69 68 66 64 62 60 62 61 59 62 62 57 54 52 47 46 46 49 48 65 64 67 64 60 60 62 64
27 30 45 54 52 50 50 54 55 49 45 50 54 55 52 56 62 65 67 66 64 66 64 63 62 59 61 54 55 54 53 50 52 49 51 51 62 74 73 69 66 67 65
32 56 74 38 48 50 52 48 46 51 53 50 54 53 55 52 53 64 66 68 68 70 68 68 67 65 64 62 62 60 52 48 48 52 51 50 49 44 72 76 74 68 65
29 34 38 48 49 46 49 45 48 49 50 48 48 54 54 51 59 64 65 69 70 68 70 67 62 69 69 66 57 52 58 57 51 34 44 48 52 46 53 72 78 76 74
32 34 39 51 53 46 49 48 44 45 46 47 51 50 50 52 54 60 59 65 67 63 64 67 72 65 67 64 49 48 55 55 51 55 52 43 48 48 47 59 76 74 78
40 41 46 61 50 44 44 48 50 54 48 50 46 46 47 52 52 57 58 58 60 61 66 65 66 66 64 66 64 58 57 56 63 54 48 52 48 45 48 48 61 56 62
43 48 40 38 44 43 40 48 50 50 49 47 49 53 50 54 51 45 56 57 58 64 66 69 73 69 66 66 67 62 63 55 52 53 48 46 44 41 40 43 45 49 54
47 47 38 40 42 48 50 41 45 48 49 48 47 48 50 52 47 49 54 59 63 65 67 68 70 71 71 67 68 70 68 66 59 54 50 48 67 57 70 55 45 43 50
50 50 42 41 39 42 48 49 52 50 52 54 58 52 49 49 53 47 50 60 65 69 69 72 56 74 75 73 72 61 73 77 88 81 67 65 59 67 72 65 54 46 48
49 52 47 41 38 42 45 50 56 61 61 58 61 60 56 56 54 49 53 62 69 65 68 73 73 77 79 83 79 78 74 73 73 91 84 80 71 73 82 92 89 88 80
48 50 48 42 38 40 46 53 54 56 58 59 61 59 55 54 54 57 54 66 68 70 70 76 79 82 85 84 83 85 84 80 78 77 81 82 88 85 81 88 95 96 94

GFSSE_sfc_rhum_015.txt.gz
RH
82 86 89 88 88 90 90 91 91 91 90 88 84 83 84 81 81 81 80 81 79 73 72 74 77 78 77 78 79 81 83 85 87 84 78 73 72 73 76 83 83 73 79
80 83 90 89 89 89 90 91 90 90 90 86 86 86 86 83 80 78 78 77 76 73 73 75 76 74 74 79 82 83 83 87 87 86 81 74 70 64 69 80 81 78 83
81 80 82 91 89 90 90 89 89 87 85 83 84 86 84 82 80 78 78 79 76 73 73 74 73 73 74 76 81 86 86 88 88 86 82 75 69 70 70 77 81 80 78
76 84 85 92 91 92 91 89 87 85 84 86 85 84 84 82 78 78 80 83 77 73 73 74 75 78 81 84 83 82 83 87 90 89 78 74 65 79 87 74 73 77 80
89 90 90 95 95 94 92 92 92 92 91 89 87 83 80 77 77 80 83 84 76 73 73 73 75 78 83 86 88 87 86 85 86 79 77 88 85 74 75 74 78 80 81
96 95 95 94 94 93 93 93 91 90 91 91 89 82 79 78 80 83 80 78 73 71 71 71 73 77 82 85 84 83 87 89 86 84 92 81 88 75 64 71 80 80 81
94 92 89 92 91 90 90 89 91 92 92 90 88 85 81 80 80 80 79 77 75 73 72 71 71 73 77 82 81 83 83 85 81 85 92 84 79 76 74 75 86 80 80
80 88 82 87 89 90 90 90 91 91 92 92 90 87 82 82 83 79 78 76 73 72 70 69 70 70 74 78 81 83 83 82 71 81 90 91 74 69 75 85 85 80 79
66 75 86 83 82 88 90 91 90 90 89 88 87 88 86 87 86 82 78 74 71 69 68 67 70 75 76 77 79 82 84 84 82 74 75 93 78 78 80 71 76 80 80
52 59 72 79 80 89 90 90 89 88 86 84 84 87 86 85 84 82 80 78 74 71 68 68 73 76 77 75 76 78 82 82 66 74 85 93 84 73 70 72 73 77 81
46 53 64 67 75 80 85 82 87 86 86 84 84 85 88 88 85 80 83 80 76 76 76 76 77 78 79 79 78 82 81 80 70 79 89 84 78 70 71 72 74 77 78
51 56 53 55 72 71 50 80 88 81 87 87 85 87 87 87 89 73 79 79 76 78 79 80 82 82 82 84 68 74 77 69 58 68 92 83 73 63 66 73 76 77 79
45 55 59 58 56 55 59 78 84 84 90 86 78 69 67 76 79 78 90 87 93 86 89 82 82 87 80 74 62 57 55 51 60 58 80 78 68 57 58 60 66 70 76
49 58 60 58 56 60 64 68 67 62 72 76 73 69 74 82 73 75 69 64 69 72 78 72 71 64 65 60 56 55 52 55 58 59 74 71 66 52 47 50 57 62 67
48 60 61 60 61 57 63 71 66 70 65 72 69 64 69 77 71 72 73 70 67 68 66 64 62 61 65 61 57 56 52 50 50 54 67 69 65 60 49 48 51 56 61
39 56 62 66 68 56 65 67 66 65 63 70 66 66 64 71 72 74 71 72 69 71 73 71 68 70 72 70 65 58 55 51 49 50 55 67 70 66 64 54 54 57 60
41 74 81 86 77 70 58 56 63 48 52 63 61 59 60 63 64 72 77 77 75 79 73 74 73 73 70 64 67 65 63 58 56 52 50 62 66 74 73 72 66 60 62
68 72 79 77 84 85 75 60 56 57 56 59 64 70 61 64 65 69 70 74 78 77 75 77 79 78 78 78 77 73 71 64 57 57 52 54 59 51 72 75 75 72 72
55 72 80 87 82 74 68 57 59 49 48 52 62 61 60 60 62 65 64 67 74 72 73 74 76 81 77 75 60 61 69 69 68 52 54 58 60 59 58 71 76 80 78
57 66 78 83 79 64 56 55 57 57 58 60 58 56 59 58 57 59 59 64 62 66 72 72 73 70 76 74 56 55 71 73 74 74 64 53 58 54 60 59 68 70 81
61 53 62 72 59 54 55 55 56 57 55 56 55 57 54 52 50 55 61 63 66 68 70 70 76 79 77 76 79 71 72 69 69 72 76 72 65 55 55 59 61 65 69
59 61 54 48 58 51 58 59 58 59 57 56 55 56 58 56 53 46 61 66 66 73 72 74 74 79 80 78 83 77 82 67 67 65 68 61 71 73 64 56 59 62 59
58 52 48 47 48 52 53 52 53 54 56 59 63 55 56 58 55 56 60 68 71 77 77 76 81 80 85 82 81 88 96 96 80 74 60 76 77 77 82 85 82 67 62
60 53 49 49 47 46 51 59 59 69 70 70 69 69 60 60 58 58 61 69 74 77 76 82 72 87 89 92 87 70 85 82 85 80 78 64 67 67 86 91 90 90 89
55 55 52 49 47 50 52 57 66 62 65 65 70 67 63 64 60 58 61 68 74 80 86 88 89 90 93 92 94 86 78 82 89 96 82 85 76 79 90 89 97 98 92
56 54 52 49 50 50 51 52 57 65 66 69 69 71 68 68 69 64 65 73 78 81 82 86 87 84 81 82 83 84 89 87 85 89 96 84 78 85 78 86 95 97 97

GFSSE_sfc_rhum_018.txt.gz
RH
93 92 90 90 91 92 93 93 93 92 89 85 82 82 81 80 80 79 79 81 80 75 75 76 75 74 76 78 80 82 83 83 84 81 77 69 66 66 72 77 80 67 80
90 88 92 91 91 92 92 93 93 92 89 85 85 84 82 80 80 79 78 77 74 73 73 73 73 73 74 75 81 84 85 86 87 83 78 72 65 64 66 79 79 78 79
90 86 85 92 92 92 91 91 91 88 84 84 84 84 83 81 78 78 79 78 75 74 72 72 72 74 77 80 81 80 82 87 86 83 76 78 76 67 64 75 77 79 80
86 86 87 94 92 92 91 90 88 84 84 84 84 84 80 77 77 80 82 80 75 71 69 69 69 73 77 81 84 84 83 82 84 83 81 80 74 73 71 68 72 77 79
92 89 91 95 94 92 92 93 92 91 91 90 86 79 77 77 80 82 80 77 72 68 67 66 67 72 77 80 81 80 81 84 87 79 89 89 85 75 75 71 78 79 81
98 97 97 96 96 95 94 92 91 92 92 90 86 79 78 79 79 78 78 74 71 68 65 64 65 70 75 79 78 78 80 82 83 91 94 87 87 74 65 66 78 82 82
99 97 96 96 95 94 90 88 92 93 92 90 87 84 80 78 78 78 77 75 72 69 66 66 66 68 72 77 77 81 84 85 80 86 93 84 90 68 62 73 74 79 83
96 96 90 91 92 92 91 91 92 92 91 90 89 86 80 81 80 77 76 74 69 66 66 65 69 70 73 76 76 79 83 84 77 78 94 89 82 72 68 72 78 81 81
92 95 96 93 90 91 91 90 90 90 90 90 89 87 86 87 85 82 77 73 69 66 64 67 72 74 76 76 76 78 80 83 77 73 75 92 79 72 71 79 82 84 81
84 88 94 94 93 95 94 90 90 88 87 88 86 85 86 85 85 84 81 78 75 71 70 73 74 76 76 79 80 81 83 79 72 89 92 96 85 78 71 73 73 78 81
68 75 85 85 88 92 92 86 88 87 85 86 84 85 90 91 88 85 85 79 78 77 77 78 80 82 81 81 81 83 78 75 64 74 91 87 81 72 69 72 75 77 79
65 72 71 78 79 83 61 88 90 84 89 89 88 90 92 93 93 81 85 83 82 79 80 82 84 85 86 89 82 67 62 59 61 62 90 86 78 66 62 70 76 78 79
57 60 66 73 75 72 67 88 91 93 95 91 90 92 91 87 94 90 93 92 93 82 91 83 84 80 82 83 77 63 57 52 64 60 80 81 74 62 57 59 64 67 72
56 57 59 67 72 68 70 81 86 86 89 92 85 78 81 82 79 79 75 73 75 75 75 76 76 67 66 67 64 63 60 56 59 61 72 80 75 62 51 49 52 57 63
59 57 64 64 65 68 70 74 75 76 81 81 74 71 79 76 74 78 75 78 76 78 76 75 74 70 72 70 68 67 62 58 56 57 68 78 77 68 56 50 49 51 55
57 70 77 77 73 61 67 64 69 68 76 74 71 70 70 79 76 76 78 77 79 83 82 80 79 80 79 76 74 72 69 66 60 56 59 67 78 73 68 58 53 52 53
58 65 71 77 76 71 61 63 63 56 71 68 68 71 69 73 75 74 74 69 75 79 77 78 79 78 76 69 71 71 71 69 68 62 59 58 66 79 75 71 68 65 59
74 63 80 74 82 77 70 65 58 55 66 67 73 73 69 68 66 67 62 65 74 71 73 74 76 74 74 76 78 71 75 72 68 66 66 64 62 55 69 76 74 71 71
71 75 91 92 82 78 75 66 67 61 62 67 69 71 64 62 61 63 62 68 69 70 74 74 72 80 78 76 62 66 72 76 76 64 70 68 70 66 60 65 76 76 75
85 92 94 93 92 78 65 65 73 69 68 66 65 62 58 60 60 63 68 69 72 70 73 75 74 74 79 80 61 63 79 78 77 80 78 67 69 70 70 64 68 74 80
64 71 79 79 70 65 60 65 69 69 62 64 65 62 62 59 58 59 65 70 74 77 78 75 79 78 80 83 84 68 78 71 75 74 77 78 73 73 68 70 76 67 71
73 77 65 56 58 58 63 79 76 69 70 70 62 56 58 60 57 53 70 73 77 77 74 76 79 88 89 83 89 93 85 69 84 65 72 75 87 78 67 67 76 75 81
63 57 51 52 52 57 59 58 60 60 66 70 68 66 62 58 60 65 68 73 76 78 84 87 90 90 94 90 89 90 94 96 87 74 65 71 81 78 85 84 73 80 79
65 59 55 51 50 51 56 59 63 71 67 74 75 69 65 66 65 63 69 74 80 88 88 90 82 93 92 95 88 77 77 80 84 85 77 67 79 73 84 92 82 93 94
57 57 57 53 53 56 58 62 70 66 75 75 73 68 64 68 67 68 73 80 85 88 89 94 93 92 95 94 95 95 84 83 80 91 84 81 80 79 86 90 92 96 96
63 58 59 56 56 57 64 65 66 71 72 73 69 69 66 69 78 76 74 83 85 87 88 91 91 89 92 92 93 93 95 95 87 94 86 87 87 87 86 89 94 97 97

GFSSE_sfc_rhum_021.txt.gz
RH
96 96 93 92 93 93 94 93 92 90 87 82 82 81 81 80 80 80 79 78 76 74 73 74 74 73 73 75 81 83 84 84 83 79 75 70 63 64 69 79 76 70 77
92 93 94 92 92 92 92 93 93 91 86 84 83 82 81 80 79 78 77 76 75 72 71 72 72 74 75 78 79 79 84 86 85 83 77 73 69 61 63 79 80 78 76
93 90 91 93 92 92 91 90 90 85 81 84 84 84 81 78 78 80 80 76 69 66 65 65 65 68 71 76 81 82 82 81 82 83 78 84 79 63 62 78 78 82 78
90 90 93 94 93 92 92 91 89 83 83 84 82 81 77 77 80 79 77 73 68 64 61 61 62 66 69 73 75 76 78 82 82 81 86 83 74 67 63 66 73 73 77
92 91 94 95 94 93 92 91 90 90 90 86 82 77 78 79 77 75 75 72 67 62 59 58 61 66 70 72 74 75 77 80 83 87 92 91 88 75 69 67 79 80 82
99 97 97 96 96 94 94 92 92 93 93 89 84 78 78 76 73 73 74 70 65 62 59 60 62 66 70 73 75 76 79 80 78 90 93 90 88 75 69 72 74 79 80
92 97 98 98 96 94 89 89 92 93 92 90 85 82 78 75 74 73 73 70 67 64 62 64 67 69 71 76 76 78 80 82 81 83 92 90 88 77 64 68 73 79 80
93 98 96 96 96 94 92 92 93 92 92 90 88 85 79 79 78 73 71 69 66 65 65 66 71 72 75 78 79 82 82 83 73 77 85 92 81 77 73 68 77 78 81
97 98 98 97 94 93 92 92 92 90 90 89 89 88 86 86 83 80 76 70 67 66 68 71 74 76 78 80 82 83 82 80 69 92 77 95 82 76 70 72 77 77 79
96 96 96 96 96 95 95 91 90 89 88 88 88 86 85 84 84 83 81 78 74 70 72 75 79 81 82 83 83 82 80 72 61 76 92 97 82 70 64 67 74 79 82
86 94 95 96 95 95 93 88 88 86 86 88 86 84 89 91 90 87 85 82 78 77 77 80 82 84 85 84 83 78 68 67 60 62 88 85 81 74 69 71 74 76 79
82 82 94 93 91 92 72 90 93 87 92 91 90 91 94 93 93 85 86 85 84 84 84 84 82 84 83 90 86 74 63 57 59 60 69 81 78 70 61 65 71 75 78
64 71 77 81 83 85 76 95 95 96 95 93 91 93 94 92 95 96 97 94 90 73 85 78 77 74 73 80 80 76 65 60 62 60 65 78 78 66 57 56 62 62 70
65 66 69 78 78 80 84 89 92 93 94 95 93 87 93 87 86 81 81 82 81 84 79 79 81 77 77 75 73 74 72 68 64 63 66 74 78 66 58 54 52 55 64
62 63 67 78 79 73 79 88 90 89 88 90 86 82 84 79 80 82 82 80 80 83 84 81 80 79 77 74 71 73 71 71 68 64 67 70 74 71 65 57 54 53 58
56 61 75 76 75 74 79 80 83 83 83 84 80 79 79 80 83 80 76 72 73 80 79 79 80 77 74 74 68 68 67 71 72 69 67 68 72 72 70 65 60 55 54
57 63 80 86 82 76 71 74 75 74 80 78 74 75 78 79 77 73 68 67 76 74 74 74 72 72 72 68 71 71 71 71 70 71 72 70 71 71 73 69 67 64 63
73 83 93 86 85 78 77 76 63 69 76 78 80 78 72 68 66 67 67 74 76 74 76 74 76 73 74 76 79 75 75 73 72 72 75 78 78 70 71 70 68 67 69
84 91 96 94 92 89 80 77 69 71 72 74 74 70 66 65 66 71 75 78 75 76 80 77 75 80 75 74 73 72 78 78 80 70 74 76 83 78 70 69 71 76 74
92 93 92 93 90 77 74 69 74 63 66 69 69 65 62 63 65 63 69 76 78 76 74 74 76 76 78 83 67 67 76 76 82 80 81 72 77 78 69 68 70 69 74
87 87 89 88 78 61 74 67 71 78 80 83 64 56 57 58 60 69 73 74 78 76 79 78 84 84 87 89 91 76 81 79 74 72 76 85 78 74 71 69 67 69 66
84 80 65 61 60 60 66 82 85 83 75 68 59 58 58 62 61 62 72 75 78 81 84 87 92 94 95 93 96 96 90 76 83 70 72 73 81 79 69 61 75 64 71
63 58 56 56 57 63 73 71 66 65 73 74 71 66 66 66 66 72 75 79 85 89 92 94 94 92 96 94 92 94 97 97 76 79 64 77 83 81 84 76 75 70 84
62 60 54 54 55 58 61 60 62 64 70 78 76 71 72 71 73 71 76 79 89 91 93 95 88 95 95 96 96 84 89 92 91 80 82 67 82 73 85 88 86 84 89
64 64 63 59 58 60 63 67 74 70 80 80 74 70 67 69 73 68 72 77 83 86 89 90 93 93 95 96 96 97 94 93 91 98 88 81 72 81 88 91 92 94 93
70 71 71 68 73 69 71 71 73 76 74 71 64 62 65 74 78 74 78 84 85 86 86 89 90 88 91 93 92 95 91 92 92 94 83 74 75 72 86 90 92 94 94

GFSSE_sfc_rhum_024.txt.gz
RH
98 97 93 93 92 92 92 91 91 89 86 82 81 81 81 80 80 78 77 78 75 72 71 72 72 72 73 75 78 79 83 84 84 82 77 72 69 64 68 78 75 72 79
96 97 94 93 92 92 91 92 91 89 84 82 82 81 80 78 78 78 76 72 68 65 64 65 64 66 68 73 79 80 80 80 82 82 80 76 72 64 65 78 78 74 78
97 96 94 94 93 92 90 90 88 80 82 82 82 80 77 78 79 76 71 70 65 61 60 61 62 63 66 70 73 75 77 82 82 81 80 84 75 65 63 78 78 80 76
95 97 96 95 93 92 92 90 84 80 82 82 80 77 78 78 74 72 71 72 64 59 57 57 58 60 64 69 70 71 73 78 82 85 86 86 76 69 64 71 75 73 78
96 97 97 96 94 93 92 90 89 89 88 84 79 77 77 73 70 70 71 73 63 57 58 59 59 62 67 72 73 73 74 75 76 79 90 91 90 79 74 72 74 77 78
99 98 97 96 95 93 92 92 92 92 91 87 82 78 74 70 68 70 71 68 62 61 62 64 65 68 72 78 77 76 76 78 76 76 86 88 91 80 73 70 76 78 79
94 98 97 97 95 93 90 90 93 93 91 88 85 81 75 70 70 70 71 68 66 64 65 66 69 72 77 81 78 78 80 80 78 76 85 94 86 73 74 71 74 81 78
88 90 97 96 95 94 92 94 94 92 91 90 88 84 77 77 76 72 70 70 68 68 69 71 74 76 80 82 82 83 82 75 74 90 84 93 85 79 72 72 78 81 78
90 97 97 99 96 95 94 93 93 91 90 89 88 86 86 84 81 77 75 73 71 73 76 77 81 83 82 83 84 83 77 75 63 82 82 94 84 75 63 68 76 81 83
99 99 99 98 97 96 95 92 91 90 88 87 87 86 85 83 81 80 79 77 78 77 78 79 84 85 86 87 86 82 73 65 58 62 79 84 77 71 64 64 68 76 80
94 96 97 97 96 95 93 91 89 87 87 86 86 84 88 90 89 86 84 84 84 83 84 83 83 85 83 81 82 83 69 65 59 60 65 75 73 69 66 66 74 76 76
94 93 95 95 95 94 79 93 94 90 93 93 92 92 93 93 93 87 89 86 81 73 76 74 73 71 72 81 82 76 73 69 65 62 60 72 71 63 57 62 70 72 74
80 82 91 93 94 94 84 97 97 98 97 95 92 93 94 93 96 97 93 83 83 75 78 74 74 76 77 80 80 79 76 74 73 68 62 68 65 62 58 57 64 66 68
73 71 82 86 86 90 89 96 95 97 97 97 95 92 96 92 88 84 85 84 85 85 79 81 83 79 74 70 71 72 70 73 74 71 70 73 71 66 61 58 57 62 65
69 72 77 83 84 82 86 92 94 95 95 93 94 87 88 85 86 85 84 80 82 80 82 80 76 71 71 69 67 68 69 73 74 72 75 72 73 69 65 64 63 61 60
66 72 81 86 85 77 81 88 90 92 91 93 87 84 83 84 86 79 73 74 78 78 80 79 75 73 71 70 65 67 70 72 72 72 73 77 74 73 72 72 72 71 70
68 78 89 90 86 84 78 83 89 76 83 81 80 83 81 80 73 70 74 78 79 78 74 73 71 70 68 65 67 71 72 73 72 75 79 80 82 76 73 70 68 71 75
86 93 93 91 90 91 89 89 74 88 81 82 80 77 71 70 70 75 76 79 78 76 76 75 75 74 73 74 78 78 76 75 75 78 77 82 83 69 67 63 63 62 64
95 92 96 96 92 92 94 84 78 79 77 71 72 71 71 69 70 72 71 76 71 75 78 75 74 78 75 79 77 75 77 77 81 65 76 78 79 75 67 63 62 61 61
95 94 97 95 95 95 85 83 83 71 73 76 69 73 61 61 65 65 66 75 77 75 80 82 81 82 82 88 73 71 80 81 82 77 77 70 74 75 72 72 69 65 61
94 92 93 96 95 70 84 79 82 78 85 91 69 60 60 62 65 72 76 78 82 83 86 87 90 91 90 94 91 81 86 81 80 76 76 79 72 72 74 69 64 72 62
93 92 88 83 75 70 81 88 87 90 75 64 64 70 68 69 70 69 77 81 85 83 84 91 92 93 93 95 94 96 90 82 79 62 77 71 79 75 71 64 70 71 70
70 64 60 62 63 71 78 80 77 78 78 74 72 71 72 71 71 72 76 82 86 87 88 94 94 94 97 94 94 93 93 95 84 76 65 77 78 78 81 73 73 72 74
67 64 63 62 64 64 65 65 68 75 81 86 77 75 74 71 72 70 76 78 83 87 90 93 89 95 94 97 94 84 90 91 85 75 76 71 73 73 76 85 82 81 82
70 72 68 64 65 68 71 75 80 86 84 78 74 68 66 68 69 72 76 79 82 86 88 88 91 91 95 95 94 95 95 94 93 90 84 76 65 60 77 84 91 91 85
69 67 73 68 73 72 73 73 77 76 75 73 72 67 72 80 86 77 78 84 85 86 86 89 89 89 92 94 94 94 97 96 97 98 93 82 87 89 79 86 90 90 89

GFSSE_sfc_rhum_027.txt.gz
RH
77 71 88 88 91 91 91 90 89 88 86 82 81 81 80 79 78 79 78 77 73 66 64 64 64 65 69 73 77 78 79 80 81 80 78 74 70 65 68 74 72 55 77
78 73 89 90 91 90 90 91 89 87 84 81 80 80 79 79 78 74 74 72 67 59 60 61 60 61 63 67 71 73 77 80 82 81 78 67 67 68 68 76 79 64 77
78 72 69 90 92 90 89 89 88 83 81 80 80 77 78 77 72 69 70 70 65 58 57 56 56 59 62 65 67 68 73 77 82 84 79 49 49 71 66 78 78 74 72
78 73 66 92 92 91 91 86 85 81 81 80 77 78 76 71 69 68 68 70 65 58 56 55 57 63 66 70 70 70 72 74 76 76 54 58 55 74 74 74 73 74 75
78 73 74 94 94 92 90 86 87 86 86 82 80 76 70 67 67 68 70 70 68 62 61 59 62 66 70 74 75 73 74 77 73 58 52 59 59 65 73 70 68 68 78
77 72 88 96 94 92 91 91 90 90 88 85 82 75 67 64 65 67 73 72 66 63 64 64 67 71 78 80 78 75 76 77 69 43 55 65 58 74 74 74 79 77 80
76 75 77 96 95 93 90 90 92 91 89 86 84 79 73 66 67 69 75 74 71 67 68 69 72 76 81 83 77 78 79 72 43 39 56 63 66 76 69 71 77 79 79
79 80 77 92 95 94 93 94 93 92 90 89 87 82 76 75 76 72 73 75 73 72 74 76 78 80 82 81 80 81 78 72 35 34 43 46 77 72 63 69 78 83 83
81 80 81 75 83 95 95 94 92 90 90 90 88 86 84 82 80 79 78 75 74 78 78 79 81 84 81 82 82 81 75 70 36 33 31 32 70 68 63 64 72 77 79
85 85 86 82 76 78 76 94 90 90 88 88 87 86 83 81 81 83 79 81 81 80 80 80 82 78 76 79 83 83 73 64 39 34 31 34 70 60 60 61 66 74 76
91 90 88 83 82 79 74 74 84 87 86 87 82 84 82 62 64 64 83 86 78 77 79 77 73 75 75 72 77 78 69 42 43 38 35 63 66 58 58 63 70 74 74
90 84 80 82 77 75 61 68 71 67 64 67 67 71 64 72 70 68 76 78 74 74 73 72 72 70 56 40 40 54 39 44 41 43 39 71 68 63 60 60 68 68 69
74 71 72 77 76 71 64 66 63 64 66 68 73 72 73 73 73 65 56 54 58 63 48 49 45 42 49 44 41 43 41 40 39 38 44 71 67 64 63 62 61 64 68
61 59 64 70 74 74 64 65 67 65 68 68 70 77 74 68 66 62 56 54 56 50 54 50 46 51 47 43 42 41 43 39 35 33 40 72 70 67 65 66 66 66 68
54 57 63 68 70 70 71 72 71 73 71 73 72 72 65 61 66 58 56 50 50 48 47 46 44 42 42 40 39 40 38 41 42 37 39 69 75 73 70 69 69 71 71
52 56 68 69 68 64 68 73 83 87 86 76 78 68 68 64 65 54 54 50 48 46 46 44 44 41 40 40 37 42 42 41 43 48 39 43 72 69 68 66 65 64 66
48 60 73 78 72 69 71 80 84 72 80 89 84 78 68 58 59 58 52 50 50 51 52 46 44 41 38 36 39 41 40 45 44 50 48 48 46 59 62 62 60 59 59
59 69 77 78 80 88 86 93 88 83 90 85 84 66 60 58 56 59 66 56 55 58 55 45 44 41 42 44 44 38 41 40 50 51 47 46 43 38 47 60 62 59 59
69 77 82 82 86 88 94 95 84 78 78 64 58 50 56 68 61 60 67 54 54 51 52 49 47 52 46 45 37 38 37 36 50 41 48 49 50 45 42 50 57 54 58
76 80 83 85 95 94 86 83 76 75 63 56 58 73 67 53 54 50 51 56 50 49 52 52 54 46 50 53 39 39 39 44 47 46 44 42 44 48 45 46 43 38 54
82 82 84 95 97 88 77 74 70 65 71 76 54 50 51 50 51 53 48 51 53 52 57 57 51 54 44 55 44 40 38 55 55 46 41 44 44 43 46 45 40 40 38
81 82 80 76 67 66 52 54 58 62 57 48 49 53 51 53 49 48 54 54 56 47 56 60 63 53 51 60 56 46 39 34 45 42 41 40 49 46 41 45 48 49 48
75 74 71 65 53 51 58 57 57 55 51 47 47 47 49 51 50 54 56 55 56 53 53 60 63 65 54 55 67 55 51 46 51 40 42 42 47 44 44 40 45 46 51
56 56 57 59 52 56 56 51 56 50 52 57 52 48 46 55 54 52 54 57 59 55 56 54 54 61 58 52 50 48 55 54 52 50 40 41 43 42 46 47 49 54 54
54 55 54 52 51 54 56 58 56 59 55 51 51 54 54 55 55 55 56 59 58 53 58 57 59 58 54 55 52 52 50 48 50 58 55 43 38 38 44 44 53 56 60
53 57 61 56 56 56 55 58 59 59 56 50 51 50 50 52 56 60 57 60 60 59 60 57 62 65 60 59 54 52 47 50 51 58 53 47 45 44 38 43 48 57 57

GFSSE_sfc_rhum_030.txt.gz
RH
57 53 91 89 91 90 90 90 89 88 86 81 81 81 80 78 78 77 76 73 69 62 61 60 60 60 61 63 68 73 76 79 82 79 76 70 68 66 72 74 76 46 75
57 55 91 90 91 90 89 90 89 87 83 80 80 80 79 77 75 72 72 69 64 59 57 56 57 58 60 62 67 69 73 77 82 80 78 70 73 69 71 75 79 60 75
58 54 60 91 90 90 88 86 85 81 79 79 78 78 75 70 68 67 71 69 63 56 54 58 61 62 65 66 69 71 73 74 76 76 73 33 45 74 76 75 76 72 67
58 52 51 92 91 91 90 89 86 79 78 76 77 74 70 68 67 65 66 69 67 58 56 60 61 62 67 71 70 70 75 76 72 73 38 38 37 75 72 71 66 67 73
58 49 56 92 93 90 89 88 86 86 83 81 79 69 66 65 64 64 70 72 69 60 61 62 64 64 67 72 72 70 70 77 77 49 36 45 40 63 72 73 66 70 75
58 50 82 95 92 90 89 89 88 88 86 84 79 71 64 63 64 67 74 73 67 65 65 66 69 71 76 77 75 71 71 71 70 28 35 49 47 69 68 71 80 79 79
62 55 64 96 93 91 89 88 89 89 88 86 80 75 70 64 67 69 75 75 71 69 70 72 75 77 78 80 73 71 74 73 23 24 29 39 52 68 65 70 72 76 77
55 58 62 91 93 93 92 93 91 90 89 88 83 78 72 72 74 71 72 73 73 74 75 77 78 78 79 79 77 74 74 72 25 20 20 27 69 65 62 65 76 79 75
60 59 65 62 77 96 95 92 90 89 89 88 86 84 82 81 81 77 76 76 76 77 78 76 74 75 76 77 78 76 73 67 29 24 21 22 67 59 56 58 66 72 71
71 70 66 54 52 57 60 91 89 88 88 87 86 83 82 81 81 77 78 81 76 79 75 72 73 73 74 78 78 78 74 68 27 25 23 38 68 60 57 60 62 67 70
81 78 61 48 52 52 45 65 82 86 86 86 79 82 76 43 44 47 84 78 76 76 74 72 70 70 69 67 68 67 70 26 27 25 24 71 66 64 62 62 64 69 71
86 76 56 55 58 54 40 48 47 45 45 48 48 53 45 54 52 51 63 78 73 71 70 69 63 61 45 27 27 42 25 30 25 26 28 69 65 61 62 64 64 64 70
63 52 55 60 58 48 44 42 40 43 48 51 58 55 57 55 54 44 41 39 42 55 32 36 32 30 38 33 29 30 28 26 22 21 39 68 66 61 61 64 67 69 71
43 44 47 50 56 54 41 40 47 44 49 53 55 63 59 53 54 46 37 40 41 36 38 35 32 39 36 33 33 33 32 28 23 22 33 73 71 63 62 65 65 67 69
35 39 43 50 52 53 54 52 54 55 61 66 65 61 52 48 53 44 44 37 37 34 34 35 34 32 33 32 32 33 31 32 32 26 26 74 69 66 64 62 62 62 62
35 42 47 45 50 50 54 58 63 62 63 67 85 84 67 53 54 45 42 36 36 35 35 35 36 34 32 33 32 34 36 33 33 34 26 29 66 61 62 62 61 60 59
36 45 50 54 51 52 57 60 58 55 60 78 82 84 70 56 52 46 41 41 45 44 46 39 37 34 33 31 33 30 29 30 29 34 31 29 33 64 56 59 61 59 58
36 49 58 61 59 64 70 75 81 81 81 82 83 71 58 51 50 53 48 49 46 40 37 38 38 38 34 33 32 26 26 24 26 34 31 36 32 28 44 54 52 54 51
39 54 62 64 70 84 89 93 82 79 71 73 61 54 59 62 58 48 42 44 43 39 43 40 36 36 33 32 30 24 25 24 22 23 34 38 37 35 32 46 52 53 47
47 57 62 64 78 83 96 90 69 68 57 45 45 52 48 44 45 42 42 47 41 38 36 38 41 35 33 32 28 24 28 26 25 32 34 27 31 37 34 36 33 31 52
58 62 62 75 88 71 78 66 55 56 52 57 42 43 43 42 41 43 38 40 38 39 43 43 39 39 34 37 41 29 27 28 40 35 30 30 32 30 36 32 32 30 31
62 63 63 64 61 56 49 45 42 44 43 39 39 44 41 42 40 41 43 38 39 35 42 44 45 40 34 35 46 43 32 27 24 32 30 31 35 34 32 33 35 36 36
62 63 58 54 51 48 43 43 44 46 43 38 39 37 39 42 39 43 42 38 39 38 36 45 44 44 42 37 41 45 45 38 36 30 32 29 37 32 33 32 35 35 38
57 55 50 47 41 43 46 41 44 34 36 40 40 38 37 42 41 36 37 42 45 42 46 42 35 46 43 43 36 32 42 42 44 43 33 32 30 29 34 31 33 33 35
49 52 51 46 39 42 42 41 42 44 43 40 40 41 42 41 41 39 41 45 48 44 45 48 47 49 42 42 40 39 40 35 35 38 39 32 26 25 26 30 30 32 34
40 46 48 41 40 42 43 46 47 48 43 36 36 34 30 31 34 38 43 49 49 48 49 47 48 49 48 45 40 41 40 38 37 37 35 33 31 28 27 28 31 30 30

GFSSE_sfc_rhum_033.txt.gz
RH
51 50 91 91 90 90 90 89 89 88 86 82 81 80 78 78 76 76 73 71 67 59 57 57 57 58 58 63 68 71 74 78 81 77 72 67 70 72 73 75 77 50 74
48 46 92 91 90 88 88 89 89 87 83 81 80 79 78 74 74 72 71 68 64 56 57 60 62 63 64 68 70 72 73 75 77 77 72 72 75 73 73 73 80 58 71
45 46 58 92 90 89 86 85 85 81 80 79 79 75 71 68 67 68 70 68 63 57 61 60 61 63 65 66 68 73 75 72 73 76 77 72 54 73 70 73 73 71 70
46 49 55 93 91 90 90 88 85 79 77 77 74 69 68 65 64 64 67 72 66 61 60 58 58 60 63 65 66 66 68 74 80 80 35 33 47 73 70 70 71 72 72
55 50 63 92 92 92 90 88 86 84 82 80 74 66 64 63 64 67 72 72 69 63 62 62 62 62 64 71 70 70 70 73 71 51 32 41 50 62 69 69 65 69 74
52 55 89 94 91 90 90 88 85 86 86 80 74 68 62 63 67 70 76 74 68 65 65 66 69 71 75 77 73 71 73 70 69 23 29 46 48 66 69 69 75 75 77
63 69 68 92 89 90 88 86 87 88 87 81 76 72 67 66 68 72 74 73 71 70 69 71 73 74 76 76 72 74 75 72 22 17 21 39 52 64 63 68 70 70 71
86 78 65 88 88 92 92 91 90 90 89 84 80 75 70 71 74 72 73 74 74 74 74 70 73 74 75 75 74 76 75 73 27 23 20 32 67 62 58 60 72 74 70
84 79 66 66 85 94 92 91 90 90 89 87 85 82 81 82 82 78 77 76 75 76 71 70 73 74 73 73 74 76 77 76 37 24 22 35 68 63 60 61 64 69 68
77 72 72 68 54 65 66 91 90 89 88 87 83 82 81 78 76 78 80 75 77 73 71 69 70 69 71 70 67 64 66 66 26 22 32 47 66 63 62 63 64 65 72
72 69 58 43 46 49 54 71 83 88 87 84 77 79 76 40 46 49 77 79 75 73 69 65 63 60 63 68 61 55 64 26 25 23 29 70 63 61 62 65 67 66 66
75 49 39 46 47 42 33 47 45 48 45 47 46 49 45 46 52 45 60 78 72 68 67 60 60 52 46 28 27 41 27 30 23 23 36 68 58 57 59 65 68 70 73
58 40 41 50 50 39 40 36 37 45 44 46 51 54 58 47 51 48 41 40 42 57 36 37 33 30 37 34 32 34 32 31 26 24 44 68 58 54 56 64 65 68 70
40 42 43 48 48 45 36 35 38 42 47 52 57 57 54 56 53 46 35 36 41 33 39 34 32 38 37 35 35 36 35 32 27 27 36 72 64 59 57 58 60 62 62
36 37 39 43 47 46 45 44 47 51 56 60 63 58 48 51 63 46 43 36 38 35 34 37 36 38 40 35 34 34 34 35 34 29 29 70 65 60 58 59 60 60 59
31 35 39 40 45 46 49 58 68 65 56 55 61 66 74 74 72 47 46 38 36 41 40 39 42 37 35 34 34 34 33 29 28 31 27 30 67 61 57 56 58 59 58
31 37 41 48 48 52 58 53 53 52 56 67 67 74 70 68 69 63 58 63 51 50 46 40 40 37 36 31 32 29 27 26 24 24 28 29 35 66 58 54 51 52 51
32 39 45 44 50 58 57 51 58 83 77 72 77 69 63 70 75 72 74 60 47 44 42 44 39 36 34 33 32 29 24 22 25 26 21 28 30 27 45 51 46 46 46
34 42 50 53 62 70 84 90 87 81 77 68 64 65 66 58 57 53 46 45 45 40 42 40 39 39 36 32 25 25 29 23 26 20 24 31 34 30 30 42 55 55 43
35 48 52 57 65 74 78 85 70 68 62 59 51 47 50 43 45 42 43 48 43 38 39 42 45 36 33 30 23 29 32 27 25 30 30 28 29 32 31 34 33 32 55
43 50 54 67 68 63 56 54 54 55 46 48 43 45 45 41 41 43 38 41 42 37 43 44 40 40 35 34 34 32 32 35 32 28 27 30 30 29 33 32 31 30 31
48 58 62 63 62 54 45 45 43 42 42 38 38 43 40 41 39 38 44 39 39 38 39 39 45 42 37 36 40 37 40 32 26 29 29 29 34 28 29 29 33 33 34
54 59 65 60 58 48 42 39 39 41 42 39 40 39 38 40 37 38 39 40 39 36 34 41 42 44 42 39 39 39 42 41 36 30 33 27 37 29 29 27 28 29 32
62 62 53 49 43 40 39 38 41 35 36 36 36 36 38 40 38 35 34 38 41 40 43 41 34 44 44 43 37 30 37 37 40 40 29 30 28 27 34 27 27 28 29
49 48 42 41 36 38 39 37 40 38 40 39 39 43 42 40 39 34 35 40 43 40 42 45 47 46 41 42 40 37 37 34 36 39 45 36 28 23 24 27 28 30 28
44 46 44 37 35 38 39 41 42 46 40 37 36 35 28 28 28 31 31 37 41 41 43 43 45 47 46 50 48 46 43 42 44 48 47 41 36 31 28 30 33 31 31

GFSSE_sfc_rhum_036.txt.gz
RH
56 75 92 90 90 90 90 90 90 88 87 85 84 83 81 79 77 75 73 70 66 60 61 63 63 64 66 69 72 73 74 76 78 77 74 74 73 71 71 78 75 61 79
57 68 92 90 89 89 89 90 89 87 85 81 81 81 78 76 75 73 71 68 67 62 62 63 64 64 65 67 71 75 75 79 81 80 77 71 74 69 68 77 80 72 76
54 68 74 90 89 88 89 88 86 84 79 78 76 77 75 73 71 74 72 70 69 60 58 58 59 60 61 62 65 67 71 75 77 80 76 72 68 71 70 78 78 78 76
53 57 72 92 90 90 89 86 84 79 78 77 75 73 72 68 68 70 73 73 70 61 59 58 58 59 61 64 69 71 73 73 74 75 63 52 55 71 68 72 73 71 73
51 59 80 92 92 90 88 87 85 84 81 77 74 68 65 68 69 70 76 75 71 63 62 62 63 65 69 76 76 74 72 69 68 54 51 58 61 67 68 68 67 70 78
52 68 91 94 92 90 90 88 88 85 80 77 73 71 67 70 72 74 78 76 69 66 66 66 68 72 80 79 77 74 74 72 65 38 47 62 64 65 67 71 77 76 77
82 84 81 94 91 90 88 87 89 85 81 78 75 75 74 71 72 75 80 79 75 70 68 69 71 74 79 79 76 76 76 74 49 41 51 65 70 63 60 64 72 76 75
88 86 83 89 92 91 91 90 91 88 84 80 78 77 76 77 79 79 80 80 78 75 72 72 74 75 76 71 68 70 74 72 43 41 47 66 71 64 61 64 73 76 74
94 90 88 84 93 92 91 92 92 89 87 85 84 84 84 84 83 82 82 79 76 74 72 71 73 73 73 69 62 62 69 70 59 44 43 64 70 63 64 65 66 72 76
94 96 90 84 79 82 80 91 90 89 87 84 82 81 81 78 80 81 78 80 78 72 70 65 63 62 65 65 63 58 66 54 36 37 57 73 65 60 62 65 68 70 72
94 92 83 67 70 74 79 83 88 88 85 82 80 80 82 62 70 64 80 81 77 73 66 59 61 56 69 64 64 62 56 40 40 39 62 72 57 52 57 67 70 72 74
94 92 69 68 65 65 49 73 73 70 68 66 64 74 81 76 70 58 73 77 74 68 63 58 56 61 54 47 47 55 48 48 42 40 71 69 56 50 53 63 66 68 70
92 76 58 69 66 52 53 56 58 62 65 70 73 75 71 71 73 82 76 66 76 72 65 58 53 51 52 56 54 56 52 47 48 44 66 70 57 52 53 57 61 62 63
48 52 56 60 64 63 53 53 63 68 81 82 73 69 78 82 75 68 68 64 62 62 56 60 60 61 57 53 50 55 53 52 51 48 68 73 62 54 53 56 59 60 61
48 54 55 60 63 64 66 68 72 82 75 82 76 74 80 80 84 73 68 65 63 62 62 60 60 55 57 51 52 51 46 46 42 46 54 71 68 55 54 55 56 57 56
43 50 56 56 65 60 73 78 84 87 85 79 81 85 82 84 83 77 70 69 66 64 63 59 61 63 58 54 46 46 47 44 38 43 43 58 70 63 57 55 52 50 49
38 44 52 60 61 72 71 69 69 70 72 84 84 86 80 79 79 78 76 76 69 65 65 63 61 58 55 47 48 45 46 37 38 43 40 38 68 70 62 49 44 45 45
38 44 53 52 69 68 69 66 69 83 83 83 86 81 82 76 76 80 76 74 68 69 64 66 63 60 58 56 53 48 48 40 36 41 38 45 49 44 64 55 50 44 45
40 48 55 65 74 78 88 92 92 88 80 76 78 76 73 70 70 71 70 72 69 66 65 61 65 65 58 53 39 40 52 49 45 32 41 43 46 47 49 50 60 55 47
43 54 57 70 82 87 86 84 76 76 73 74 71 66 62 60 63 65 68 69 66 62 65 67 68 62 61 59 37 41 50 54 44 48 46 44 41 42 47 49 50 49 54
56 59 64 77 81 78 72 74 70 73 65 66 60 61 61 59 55 58 64 62 60 64 63 60 62 64 65 62 59 54 55 48 44 48 46 47 42 38 48 50 46 48 45
60 64 73 72 77 67 59 63 65 63 62 59 59 61 57 57 54 56 60 60 61 61 60 63 65 69 65 65 66 64 62 53 50 41 51 45 52 46 40 36 43 43 47
64 67 74 73 71 66 64 54 56 58 63 59 60 61 58 54 51 51 54 56 60 61 64 67 66 65 68 65 64 66 64 65 53 53 48 50 54 53 52 44 36 40 42
71 73 71 71 62 61 56 54 59 54 56 56 57 57 56 55 52 47 48 53 60 64 66 68 53 69 67 70 65 50 62 63 62 58 51 51 51 40 47 52 46 43 42
74 81 73 66 59 55 51 54 59 58 62 60 62 64 59 64 58 52 52 57 61 65 67 69 70 71 69 72 68 70 68 65 59 67 65 59 50 47 47 49 54 52 44
63 66 72 66 48 50 52 53 58 61 58 61 60 61 56 52 51 52 51 62 63 64 66 68 67 67 71 74 73 76 74 72 69 66 70 66 62 54 53 51 53 52 53

GFSSE_sfc_rhum_039.txt.gz
RH
94 92 93 92 92 92 91 91 90 89 87 85 82 80 79 77 75 72 71 72 70 65 64 64 64 65 65 68 71 74 75 78 84 80 76 71 69 67 70 77 79 70 77
89 87 92 91 91 90 90 90 89 86 84 80 80 79 78 76 74 72 74 71 67 60 60 61 60 58 58 60 63 69 72 77 80 80 77 73 72 70 72 78 81 76 79
88 86 85 90 90 90 89 88 86 84 79 77 77 76 76 74 74 75 74 71 68 59 57 56 55 57 59 63 70 72 73 74 75 77 77 73 69 69 68 78 78 78 75
86 85 86 91 90 89 88 86 83 79 77 77 75 73 76 73 72 75 76 73 69 62 59 58 59 61 63 69 74 73 71 72 79 78 66 66 64 70 66 66 66 69 74
79 85 89 92 90 88 87 86 84 81 79 76 74 72 71 71 71 73 77 74 70 62 60 61 62 62 69 70 69 69 71 70 77 65 73 72 71 65 70 70 69 68 73
80 88 92 91 90 89 88 86 83 81 78 76 76 76 72 73 74 75 80 76 69 65 64 63 63 65 72 71 68 67 67 72 65 68 76 72 69 63 64 68 76 74 76
91 89 85 90 90 89 89 85 83 82 80 80 80 79 77 73 74 76 82 79 73 67 66 66 67 72 73 73 69 65 68 70 52 68 74 78 74 64 63 67 70 72 72
92 86 79 83 91 90 90 87 86 84 83 82 81 80 79 80 81 80 82 81 76 71 70 70 74 74 72 70 68 67 72 68 51 64 72 78 73 64 65 68 72 77 78
91 84 87 92 91 93 92 89 88 86 85 84 85 84 83 84 84 83 83 81 76 75 70 68 67 67 66 65 69 70 66 65 50 61 56 79 67 60 63 68 70 75 77
97 94 97 94 86 88 87 89 87 86 86 85 83 82 82 82 82 79 82 82 78 72 63 58 56 61 63 58 72 68 65 60 50 69 76 76 62 54 63 67 70 73 74
96 95 95 89 82 91 90 85 85 83 82 82 80 80 82 79 79 73 80 80 75 69 60 58 53 66 69 67 67 67 64 51 50 68 76 70 57 51 59 65 67 68 69
98 98 94 86 82 80 70 86 85 73 76 76 75 79 82 82 78 64 79 78 74 68 60 61 56 61 62 55 55 63 56 50 51 54 76 70 55 51 54 61 63 63 64
90 90 86 77 73 66 71 77 76 77 79 79 80 82 85 79 81 84 84 78 81 72 64 60 60 61 53 60 57 61 59 57 60 55 69 69 55 50 54 58 59 60 63
88 80 68 70 64 60 67 70 72 82 87 89 85 79 82 92 94 84 78 72 76 75 69 67 66 59 62 57 57 54 54 50 49 52 78 73 63 53 53 55 57 56 55
82 61 61 64 53 58 70 79 79 92 90 90 89 84 85 83 87 79 80 76 71 67 64 63 64 65 62 55 50 48 49 46 39 43 74 74 70 58 54 54 51 49 48
60 60 65 64 65 74 86 88 94 94 93 94 96 92 87 89 84 80 77 73 68 65 68 68 67 63 60 55 51 49 48 43 40 41 48 71 74 65 57 50 46 45 46
58 59 66 69 78 81 81 75 78 81 84 92 96 90 83 84 85 82 81 72 70 70 68 68 64 63 63 54 53 47 50 45 45 45 46 48 78 72 65 48 45 45 45
54 57 63 62 78 78 79 86 90 93 95 97 97 88 79 79 79 80 79 74 72 76 74 71 70 66 62 60 56 52 57 49 49 46 43 47 68 64 71 63 46 46 46
51 56 69 80 83 88 95 93 93 93 96 96 93 86 79 76 74 74 78 77 74 74 74 66 70 67 64 64 48 52 57 58 53 45 42 50 51 53 54 58 57 52 44
65 59 81 82 91 95 95 97 97 96 96 91 89 82 71 70 70 77 77 70 70 72 72 70 68 68 66 69 44 49 60 56 58 59 53 42 48 48 52 47 54 49 52
68 70 82 89 96 94 97 98 94 95 90 84 77 68 69 68 64 75 78 74 69 69 66 67 69 66 69 73 66 68 61 59 47 56 55 53 54 46 45 43 47 52 52
68 81 86 85 90 85 87 87 81 79 78 74 71 73 68 65 66 62 66 67 64 64 68 68 69 74 72 70 68 76 73 62 61 48 59 51 58 54 47 40 40 44 54
69 84 86 89 86 80 80 75 78 75 80 77 77 73 65 64 59 60 61 62 62 66 66 69 69 71 72 71 70 68 76 78 72 60 49 55 59 58 55 53 47 45 45
87 83 80 83 81 76 80 64 68 76 72 73 75 73 68 59 56 53 57 61 66 70 68 73 64 74 75 75 75 59 70 74 77 75 64 58 57 50 57 59 56 50 51
86 88 85 83 74 79 76 57 66 76 74 80 77 72 68 64 60 57 64 69 68 73 74 75 76 81 80 79 77 78 79 77 73 76 83 72 64 59 61 62 60 64 51
83 84 84 87 85 77 58 66 71 71 71 67 69 71 70 73 67 62 59 64 66 65 66 70 71 74 76 79 81 84 83 83 81 84 87 79 76 70 63 62 63 61 61

GFSSE_sfc_rhum_042.txt.gz
RH
91 92 94 92 92 92 91 91 89 87 84 80 79 78 76 75 76 76 74 73 70 63 62 61 60 60 58 59 63 66 74 82 82 79 77 72 71 71 75 78 80 75 76
85 89 93 92 91 91 90 90 88 84 80 77 78 77 76 77 77 74 72 69 66 57 55 56 57 58 61 64 68 70 70 82 82 81 76 72 70 70 71 77 82 76 76
85 88 89 91 90 90 89 88 84 80 74 74 76 77 76 76 73 74 72 69 66 59 57 57 56 58 60 66 72 80 77 80 81 81 78 80 69 67 66 70 73 74 76
85 85 88 91 90 90 88 85 81 75 74 76 75 76 77 75 71 72 74 71 68 61 57 54 54 57 63 69 69 78 82 83 80 80 78 75 65 70 67 66 65 66 69
86 84 88 91 90 88 86 83 80 79 78 79 78 75 73 70 69 70 75 72 69 60 56 53 56 61 68 68 71 75 74 77 80 74 85 80 72 63 67 68 68 68 69
86 86 93 91 90 88 86 83 81 79 79 80 79 77 72 70 71 73 78 74 68 60 57 57 58 67 69 70 68 72 74 75 73 83 83 76 71 63 67 70 72 70 71
91 90 90 94 90 87 83 82 81 81 82 82 81 80 76 71 71 74 79 76 72 64 61 61 66 66 70 71 70 66 73 73 72 85 82 83 76 64 66 70 72 74 75
88 85 86 83 89 86 83 83 83 84 84 84 82 80 79 79 79 79 78 77 75 73 72 71 72 68 68 70 68 73 70 69 62 74 77 78 70 62 65 70 76 78 77
96 98 96 87 90 90 88 87 86 85 85 84 83 82 83 84 83 82 79 76 74 70 70 69 68 66 68 71 68 70 71 72 69 73 64 79 65 62 63 66 71 72 72
96 95 95 92 91 93 88 89 88 88 86 84 82 83 85 84 84 84 82 78 73 67 64 66 69 70 69 70 72 70 70 66 68 69 76 76 62 58 62 65 68 68 68
96 95 97 94 94 96 91 84 86 86 84 84 82 83 86 84 80 80 81 77 72 64 59 63 71 72 70 72 74 73 64 54 62 71 77 69 55 52 60 63 65 66 66
97 97 96 94 93 88 71 85 84 74 79 80 80 82 85 88 83 74 81 77 72 65 63 70 71 67 64 60 62 65 64 54 56 58 77 68 54 52 58 60 62 64 63
90 91 93 89 86 83 78 93 93 90 87 84 82 84 83 84 83 87 90 85 83 75 64 61 60 62 61 63 61 59 54 53 57 60 72 67 53 47 56 58 58 58 58
93 92 90 79 80 80 80 86 86 85 89 86 84 82 92 93 91 75 80 80 83 73 69 68 72 66 60 54 52 52 54 50 47 53 75 70 63 50 55 56 53 51 54
82 81 86 75 72 74 80 84 85 93 92 96 90 85 89 92 90 87 84 76 72 69 69 71 65 61 61 53 52 50 51 46 44 50 64 71 69 56 54 50 47 45 51
76 81 76 72 66 71 84 89 93 97 98 97 94 89 87 92 88 76 75 71 70 73 73 68 65 64 63 56 52 51 51 49 48 50 53 56 74 67 54 47 44 44 46
76 68 70 69 75 88 89 87 94 89 94 98 97 92 87 83 84 80 77 74 76 74 69 68 67 63 60 51 51 52 54 52 54 51 53 56 86 75 64 48 45 45 45
62 60 65 70 85 84 86 89 89 95 98 98 94 88 84 81 80 80 77 76 80 80 75 73 69 64 63 62 60 58 56 56 53 50 50 54 72 72 72 52 49 43 42
59 61 82 84 84 92 95 95 96 95 98 98 92 86 83 80 77 77 78 81 79 76 76 68 73 66 66 66 52 57 60 59 59 46 47 51 53 57 56 52 49 48 38
68 60 85 81 92 96 95 97 98 98 97 96 92 84 78 76 75 81 78 78 78 77 75 76 69 71 70 70 45 53 64 61 62 60 56 48 52 50 52 49 57 56 51
67 79 84 89 95 90 92 97 98 98 96 94 90 78 73 75 77 80 81 76 73 69 71 71 70 67 72 74 67 73 71 63 59 59 57 58 52 48 51 50 54 56 52
72 83 84 84 91 88 89 96 93 95 91 87 83 76 76 74 73 69 73 69 67 70 69 69 69 76 77 75 70 79 75 70 66 54 58 56 58 54 52 46 48 47 53
80 88 86 87 87 87 89 90 87 82 84 84 85 84 76 73 67 67 68 70 68 69 70 71 72 74 74 76 77 70 78 79 80 66 56 61 61 60 61 54 49 47 50
87 86 86 87 88 85 88 86 78 72 76 82 83 79 76 70 65 62 64 68 72 76 74 79 73 80 82 82 81 66 74 75 81 88 68 62 62 53 62 65 61 55 54
90 93 92 90 84 75 83 76 73 78 79 83 83 78 75 68 67 66 70 74 75 77 74 66 66 76 85 83 82 81 83 84 81 83 92 75 71 66 66 67 65 65 58
92 93 94 87 80 79 83 72 75 74 80 81 84 78 79 80 71 67 62 66 66 66 66 71 74 73 80 86 87 89 87 86 85 87 93 94 85 75 68 67 66 69 67

GFSSE_sfc_rhum_045.txt.gz
RH
91 92 93 91 91 91 91 90 86 82 79 76 75 77 78 77 77 77 74 72 69 62 60 59 60 62 66 67 69 78 78 81 82 79 73 70 70 71 75 78 79 76 76
86 89 93 91 90 91 90 88 84 80 77 71 75 79 79 77 76 73 70 68 66 59 58 59 59 66 72 72 71 78 80 83 83 80 74 70 66 65 66 70 78 75 77
88 88 91 91 90 90 87 85 81 77 70 69 73 77 78 76 74 72 70 69 66 62 58 57 58 68 73 77 79 81 81 83 84 81 77 85 71 65 65 66 69 66 70
88 87 90 91 90 89 86 83 78 72 71 74 77 75 75 71 73 74 72 70 66 63 59 56 56 61 72 80 83 84 82 81 83 79 83 78 63 65 65 66 66 66 67
87 86 90 91 90 88 84 80 77 78 79 78 79 74 73 69 70 71 74 70 65 63 58 57 58 62 73 78 78 81 80 78 79 77 89 80 73 64 68 70 72 70 69
90 88 94 92 89 86 83 81 80 82 81 80 78 76 72 68 68 73 75 71 67 63 58 59 62 69 69 75 75 75 77 76 79 91 90 80 72 65 68 72 74 75 75
94 93 91 91 88 85 83 81 82 83 82 81 79 77 75 73 71 76 77 74 71 66 63 64 70 72 71 70 73 77 77 76 76 84 82 82 70 64 67 74 77 76 75
96 92 88 88 87 84 82 83 85 86 85 83 81 78 77 77 77 77 76 75 74 72 71 69 69 69 70 71 69 78 77 71 66 77 77 77 68 62 65 69 71 70 70
97 98 95 90 85 90 88 89 90 89 87 85 83 82 82 82 79 78 75 72 73 71 70 71 71 69 68 69 73 73 79 71 71 72 64 79 63 61 62 66 68 68 67
97 96 97 90 88 92 87 90 90 89 88 87 86 86 87 87 84 80 78 73 70 69 71 70 74 71 73 76 76 73 70 68 70 71 77 79 58 60 62 64 66 67 67
95 96 94 94 95 94 89 86 88 88 88 86 86 86 88 91 88 80 77 74 70 71 73 75 74 72 70 73 76 71 60 60 60 72 79 72 55 57 61 64 65 64 64
94 96 96 92 90 94 75 89 89 82 86 86 86 86 90 89 80 82 80 78 74 72 77 74 72 70 59 58 63 60 58 51 54 72 80 70 52 53 59 62 62 60 58
90 94 96 88 96 90 79 93 90 88 86 84 86 87 87 85 84 90 88 82 82 68 64 63 61 60 56 57 58 60 52 50 56 64 78 70 56 45 57 58 57 57 55
89 88 93 90 93 90 89 92 89 85 88 87 82 82 90 93 90 84 84 84 75 74 73 72 70 63 58 54 52 53 50 52 54 57 61 68 66 45 53 54 50 54 53
89 86 95 90 89 85 87 90 89 92 91 95 92 88 90 91 86 86 85 80 73 73 72 68 65 61 57 51 53 50 50 53 53 57 63 57 67 55 52 49 45 51 48
84 90 89 84 82 81 83 89 94 97 97 94 93 94 91 94 95 83 77 74 76 75 72 64 63 60 59 53 54 54 54 55 53 54 61 66 71 69 53 47 46 47 44
73 75 86 84 78 81 83 89 97 98 96 95 94 92 88 84 81 76 78 80 82 75 70 68 64 61 59 53 54 54 56 57 54 52 60 82 86 70 62 48 47 47 43
75 82 81 75 76 87 94 97 98 98 98 98 96 93 86 82 80 79 79 82 83 76 74 71 66 65 66 62 58 57 60 58 54 51 52 61 72 78 66 52 43 37 36
76 75 78 81 88 94 96 97 97 96 98 98 92 91 86 82 80 79 82 87 81 78 77 68 73 67 67 65 56 60 63 62 60 46 52 50 53 56 56 49 54 49 39
79 72 78 88 95 96 97 97 98 98 98 97 91 87 83 80 77 82 82 82 79 78 79 74 71 75 72 69 48 57 69 65 64 61 56 49 49 53 53 52 61 63 44
80 87 88 94 97 93 94 96 98 98 98 97 93 82 80 77 80 81 82 82 76 72 75 68 72 69 77 77 69 75 74 69 62 62 61 57 49 51 52 54 58 57 52
74 88 93 90 95 90 87 97 95 97 96 93 89 83 78 82 81 79 78 75 71 75 71 71 72 80 78 77 75 80 78 72 68 63 62 58 59 57 52 48 49 49 54
76 88 89 90 91 88 88 93 96 92 92 91 90 85 84 79 78 74 73 73 71 73 74 74 76 75 76 80 75 72 82 83 82 74 64 64 62 65 62 56 51 49 53
72 77 80 87 89 88 88 88 90 88 95 92 87 86 83 79 72 69 69 73 75 79 78 82 77 83 83 81 85 73 76 77 84 91 73 68 68 58 65 68 64 60 58
75 88 88 93 90 85 85 90 95 93 90 87 87 83 83 79 73 71 74 77 78 78 74 71 70 78 86 84 85 84 87 90 87 90 95 84 75 73 71 72 73 70 63
94 95 96 95 92 85 85 90 93 94 89 90 89 88 85 82 79 74 69 72 69 69 68 69 66 65 74 83 89 92 90 89 91 92 96 96 95 82 74 73 74 71 75

GFSSE_sfc_rhum_048.txt.gz
RH
95 91 90 90 89 88 87 85 84 82 79 78 78 78 77 77 77 76 73 72 69 64 62 65 67 67 72 75 72 75 78 81 80 76 69 66 66 67 72 77 78 74 77
90 90 91 90 90 88 85 84 81 78 78 77 78 79 80 78 74 72 71 70 68 62 65 71 73 70 71 75 78 80 79 83 82 78 73 68 66 66 66 67 72 66 74
89 91 90 91 89 86 83 81 78 76 74 74 76 78 77 74 72 71 70 69 68 66 70 72 71 70 73 78 83 80 79 79 81 76 74 79 65 65 66 67 68 66 64
88 89 91 91 88 85 82 79 75 72 73 76 76 74 75 74 73 72 70 69 67 65 63 69 75 78 80 83 83 79 78 79 79 79 79 76 62 66 68 69 69 68 69
88 87 89 91 88 84 80 77 76 77 79 78 76 72 71 73 72 72 70 69 68 65 60 62 70 76 79 82 80 77 77 79 81 80 86 78 73 64 69 72 73 73 72
92 89 91 91 88 83 80 80 80 80 82 79 76 74 72 72 70 74 71 69 69 66 58 58 65 72 75 77 80 76 77 77 80 86 84 76 72 64 68 73 74 74 75
95 92 92 92 88 83 82 83 84 83 83 80 77 76 75 74 73 76 74 70 70 69 67 64 68 71 78 77 75 76 78 75 78 80 78 80 72 64 66 69 71 71 72
98 96 93 91 89 83 83 86 87 86 84 82 79 78 78 78 77 76 74 72 71 71 71 71 72 71 71 78 76 78 77 69 67 73 76 76 65 63 64 66 67 67 67
98 98 98 90 85 89 91 91 91 88 88 85 84 83 82 82 78 75 74 73 73 73 70 69 71 73 75 73 76 79 77 67 69 72 66 78 62 61 62 64 65 67 67
95 96 92 91 95 90 90 92 92 91 90 89 88 87 85 84 81 77 76 74 74 73 73 73 76 76 77 76 73 70 65 60 69 72 76 78 60 58 61 63 64 63 64
96 95 96 96 94 91 91 90 91 90 89 89 87 87 90 91 85 75 77 76 76 76 75 73 70 70 72 72 67 58 54 58 69 76 78 76 56 58 61 62 61 60 59
93 94 92 91 92 92 77 92 92 86 90 89 89 86 90 89 84 82 80 75 79 78 77 72 65 60 56 57 58 53 53 53 58 76 83 70 50 57 59 60 58 57 58
88 86 88 82 84 93 83 93 91 90 90 88 89 90 90 84 88 92 85 80 78 67 62 61 59 57 58 55 54 56 55 57 60 58 62 67 61 50 57 56 56 55 56
84 86 85 84 80 92 88 91 89 88 90 90 87 87 91 89 92 84 82 78 74 75 71 71 68 61 57 56 55 56 58 58 58 58 56 61 64 45 56 51 52 52 52
88 88 89 84 92 93 90 91 90 93 89 90 87 86 91 84 82 84 86 76 77 75 70 69 64 56 56 57 56 55 56 58 57 62 67 66 70 56 55 47 46 51 49
80 86 89 93 95 91 90 91 94 95 93 96 94 91 91 93 90 86 83 78 78 73 71 66 54 58 58 57 57 57 59 56 55 63 74 90 78 69 54 48 45 47 46
82 81 94 96 89 89 90 90 96 96 96 97 96 96 95 94 91 82 82 83 82 74 69 64 57 62 60 54 56 57 60 56 56 58 68 81 80 72 61 50 49 46 42
80 85 90 84 85 89 92 94 97 98 98 97 97 96 93 91 89 81 83 81 79 75 72 68 67 67 66 60 58 62 63 61 56 56 54 65 75 60 63 53 47 39 34
87 87 93 92 88 91 95 97 97 98 98 98 97 95 89 83 79 77 74 79 78 78 77 69 72 68 67 64 57 64 66 64 60 47 52 53 58 58 52 54 57 47 41
88 88 87 92 94 95 98 98 99 99 99 98 96 92 86 83 78 82 87 85 80 80 78 73 72 76 72 68 49 60 73 66 64 62 57 46 52 57 54 58 62 57 44
90 86 89 96 96 97 99 99 99 99 99 98 95 87 85 82 80 83 86 82 81 79 78 71 74 73 77 77 70 74 72 71 66 64 62 59 55 54 56 57 57 53 50
84 85 94 94 96 95 94 97 96 98 98 98 95 89 84 83 82 80 82 81 76 77 77 74 74 81 81 79 77 79 78 71 67 65 65 60 62 58 53 51 53 53 55
86 85 91 92 94 93 93 93 98 97 96 97 95 90 83 85 82 79 79 78 77 77 77 77 77 75 78 81 80 77 80 79 78 73 67 65 64 64 62 58 56 55 58
80 80 87 91 94 92 93 86 92 94 96 97 93 89 80 85 82 79 76 76 78 82 82 82 79 83 79 77 83 74 75 73 80 85 76 68 66 64 68 66 64 63 62
82 91 92 94 95 93 92 88 93 95 97 96 93 85 87 86 79 75 78 82 84 82 75 72 73 79 81 83 79 78 84 88 85 87 91 82 74 70 71 75 72 69 66
90 95 95 96 95 92 91 94 92 95 96 95 95 89 91 87 85 82 79 76 74 71 71 68 73 70 71 77 79 89 88 87 87 93 95 92 90 84 75 74 74 71 66

GFSSE_sfc_rhum_051.txt.gz
RH
78 71 89 89 89 88 88 87 84 82 80 80 79 78 78 78 77 75 73 71 71 69 66 71 76 74 69 70 73 75 77 79 78 74 68 66 65 65 67 70 70 58 77
79 69 89 88 89 88 86 84 82 80 79 78 80 80 79 77 75 73 72 72 73 69 69 70 74 72 73 70 74 75 76 81 79 75 67 62 66 66 67 69 72 55 70
79 72 71 88 87 86 83 82 80 80 77 77 79 79 76 74 74 73 72 75 78 74 73 69 73 75 73 74 77 75 75 76 79 76 67 40 48 66 67 69 69 68 67
75 68 69 89 85 84 82 80 80 76 76 78 78 76 75 74 73 73 72 74 78 76 72 71 75 77 75 78 78 76 77 78 78 71 45 43 45 66 67 68 68 68 66
78 69 72 87 84 81 79 78 78 80 79 78 77 76 75 73 73 73 72 71 73 76 75 76 78 76 77 81 81 79 77 78 76 53 43 47 46 60 68 69 66 73 72
86 78 85 88 85 81 78 80 81 81 79 76 75 76 75 74 73 73 72 69 70 72 73 75 69 71 80 81 80 75 76 75 63 42 44 54 50 64 66 69 69 70 72
89 87 87 91 88 82 80 83 84 82 80 77 76 76 75 75 74 74 73 71 70 70 70 69 71 75 76 76 75 75 75 74 42 42 44 48 54 63 64 65 66 68 67
98 94 91 90 87 83 83 85 85 84 81 80 79 78 78 77 76 75 75 74 73 72 71 73 77 79 76 74 70 72 74 67 43 43 44 45 61 61 62 64 65 66 66
97 98 95 92 87 90 92 89 88 86 85 84 84 82 82 81 76 75 74 74 74 73 74 72 74 76 77 73 69 70 74 66 41 44 43 41 61 60 60 61 63 63 64
96 95 95 92 85 83 86 92 91 90 90 89 86 84 84 80 80 78 78 76 73 74 74 76 78 75 71 68 63 63 64 62 39 39 40 44 61 58 59 59 59 59 59
96 92 92 88 78 81 91 90 89 89 89 87 81 84 77 52 51 52 71 79 77 76 76 73 70 71 72 66 58 56 52 39 38 38 36 72 58 59 60 58 58 58 58
92 94 93 88 84 81 85 83 88 82 74 72 73 76 75 68 58 52 68 81 80 77 74 68 62 58 45 31 32 42 30 35 32 34 37 68 53 57 59 57 57 57 57
88 88 89 83 78 79 79 95 93 74 69 73 77 74 76 65 66 58 61 57 58 63 44 42 40 36 44 35 36 37 36 32 28 26 38 63 62 57 56 55 54 55 55
82 87 87 84 89 92 91 89 78 72 75 77 67 75 75 68 72 62 55 58 55 48 53 49 43 48 43 42 41 41 40 32 29 28 34 67 66 49 55 52 54 52 51
83 83 85 81 73 71 84 80 80 87 72 70 67 71 63 64 74 69 64 60 57 51 47 44 42 38 41 40 38 37 37 40 42 36 36 78 72 55 54 46 55 48 49
73 69 69 69 65 72 77 78 77 77 74 73 74 74 76 74 74 66 63 60 53 49 44 41 39 37 36 36 40 40 38 36 42 51 48 51 77 69 54 48 46 46 45
66 62 64 64 69 80 79 72 69 68 70 75 83 86 85 80 78 73 61 57 52 52 51 46 46 42 37 34 40 39 35 38 37 50 50 46 48 70 63 52 50 43 42
64 65 68 66 76 80 80 72 70 81 80 89 90 89 84 82 78 76 62 59 62 66 56 56 44 42 40 37 39 38 37 34 39 41 50 47 40 38 48 48 44 38 34
62 67 70 76 82 83 81 79 79 78 81 81 87 90 84 82 78 72 64 64 70 63 59 48 48 45 43 40 35 40 40 35 36 28 35 39 40 35 30 51 54 45 40
64 68 72 76 82 82 80 81 80 84 84 86 86 78 73 67 71 65 64 66 62 54 54 51 52 50 45 43 32 39 45 39 36 37 34 29 35 37 33 35 33 35 49
66 70 71 78 82 78 75 82 80 88 90 91 88 80 74 62 62 65 61 62 59 55 55 58 54 55 50 51 45 45 46 49 46 38 37 34 38 35 38 35 32 29 29
66 69 68 70 76 75 69 75 72 82 88 86 87 78 76 67 62 64 65 61 60 56 60 58 56 53 52 53 50 50 45 43 43 43 41 39 47 34 33 35 36 36 34
68 70 67 66 72 75 71 70 76 81 85 87 86 82 74 68 66 63 66 62 62 57 55 58 57 56 53 56 60 57 45 39 44 44 50 43 48 40 38 41 40 39 42
72 67 66 70 74 74 76 71 75 76 80 83 85 78 68 69 74 69 61 62 61 56 59 58 56 59 61 50 57 56 58 51 40 38 45 47 46 44 48 45 43 46 46
72 79 75 75 75 76 77 74 80 80 78 85 86 79 73 76 77 65 62 62 62 57 63 63 64 61 57 52 48 48 55 53 57 55 42 39 46 45 46 50 53 50 48
75 79 80 76 75 75 78 79 82 81 83 83 82 80 74 71 68 66 59 61 63 62 60 68 83 75 67 72 49 53 48 44 41 48 49 49 55 50 50 46 50 52 45

GFSSE_sfc_rhum_057.txt.gz
RH
55 54 90 90 90 90 90 90 89 87 84 83 82 81 81 81 81 80 79 81 80 77 70 69 68 69 70 72 74 74 74 77 76 74 69 67 67 69 71 74 67 58 76
54 54 91 92 89 90 91 89 87 84 83 82 82 81 81 81 79 79 82 81 78 74 66 66 66 66 67 69 70 70 69 74 76 75 72 66 66 68 70 72 73 60 71
56 52 63 93 92 89 88 86 84 83 82 82 81 80 79 79 79 78 80 80 78 75 66 66 66 68 70 72 73 70 70 73 70 66 63 37 49 67 70 74 74 69 68
52 56 57 94 91 88 86 84 83 80 81 81 80 79 79 79 81 80 80 81 79 75 65 66 68 70 73 75 74 72 71 71 68 63 31 33 42 71 69 69 73 74 72
59 57 63 91 88 86 85 84 82 82 81 80 79 79 79 84 84 84 82 81 79 74 66 68 70 73 76 78 77 74 71 73 70 39 34 38 41 59 67 67 62 69 74
63 61 85 90 86 85 84 83 83 82 81 80 79 78 80 82 84 84 82 81 79 74 67 69 70 71 76 79 75 71 71 68 69 30 36 47 47 62 65 67 66 65 69
69 80 77 92 87 85 83 84 83 82 81 80 79 79 79 80 83 86 84 83 79 73 69 68 68 70 72 73 68 70 73 71 26 30 36 45 53 61 64 64 65 65 63
94 95 90 92 89 85 84 84 84 83 82 81 80 79 79 81 83 85 85 80 77 77 75 73 72 70 68 67 68 70 69 68 28 31 37 44 59 60 61 63 63 64 64
98 99 96 90 92 93 90 85 85 85 84 83 83 82 83 81 81 81 82 81 80 78 76 74 72 72 64 65 64 65 61 58 27 28 32 42 60 58 59 60 61 62 62
96 98 95 94 93 86 85 86 86 82 88 87 86 86 84 82 80 78 78 80 81 78 75 70 70 66 65 64 64 64 59 54 23 26 36 47 59 58 58 59 60 60 61
96 93 94 93 92 92 80 83 82 87 87 86 82 81 69 52 50 43 75 79 78 78 76 70 67 67 67 60 57 49 52 21 20 23 36 69 58 56 58 59 58 59 59
97 96 92 88 88 78 73 77 78 75 62 59 55 55 48 56 50 48 70 83 81 78 76 70 66 68 62 25 25 40 22 21 18 21 40 70 62 56 56 57 56 56 57
89 91 90 88 82 89 91 90 87 78 63 63 64 58 57 58 57 55 57 53 54 59 36 40 41 33 35 30 29 28 23 20 18 17 43 66 59 58 57 56 55 54 54
90 84 81 92 92 93 95 95 95 77 64 58 64 63 60 55 59 58 48 46 46 37 40 39 38 43 39 35 33 32 29 23 20 18 44 67 64 59 57 56 53 51 50
89 92 93 92 94 92 90 92 86 63 52 51 57 59 54 51 61 52 50 43 42 39 41 41 41 38 38 34 30 28 27 29 28 22 34 71 61 58 54 57 52 52 49
88 92 90 90 92 92 89 88 87 64 51 46 50 57 62 59 61 50 50 43 41 41 39 40 38 38 34 34 33 29 27 25 28 30 27 46 77 70 54 48 50 48 48
84 88 89 92 92 86 80 71 67 64 50 47 46 60 54 49 55 52 48 45 44 43 44 44 42 37 35 29 31 28 25 28 28 29 26 34 48 72 65 55 51 45 42
66 76 81 74 77 68 65 64 75 48 48 39 42 47 56 51 54 52 48 50 47 47 46 44 42 39 37 33 31 27 27 26 28 28 29 29 29 36 59 57 47 38 35
46 54 57 57 58 61 65 63 58 50 46 41 42 49 63 60 55 54 49 50 53 49 48 46 45 47 40 34 29 30 33 28 30 20 27 33 34 25 23 58 50 42 37
40 46 47 53 56 59 61 54 46 46 49 42 40 47 59 58 64 60 51 53 54 51 50 47 51 50 45 35 21 26 36 34 31 31 30 26 26 30 30 30 32 35 52
42 47 49 55 54 44 45 47 47 46 44 43 42 51 67 66 59 70 60 59 61 52 52 54 54 61 50 39 38 38 40 42 43 34 31 30 28 28 32 30 29 26 32
43 44 44 43 42 41 36 38 38 40 39 45 46 52 65 67 58 63 66 62 61 50 56 58 62 61 58 43 44 41 49 42 43 40 34 32 38 32 31 30 32 33 34
44 44 40 41 41 42 40 36 36 36 37 38 42 49 69 73 79 87 82 67 59 55 56 60 57 67 55 45 47 46 57 56 47 34 42 36 40 36 35 33 30 33 36
44 44 43 41 40 40 42 40 42 39 39 39 46 48 69 85 90 91 83 83 61 56 65 66 59 63 51 47 47 43 60 53 50 48 35 36 37 38 43 37 34 36 37
41 44 46 44 41 39 40 44 43 46 40 37 43 52 72 80 80 76 76 76 66 64 68 69 66 59 48 49 65 68 65 53 50 50 50 37 28 26 28 34 38 37 35
38 45 47 44 40 38 41 46 52 51 50 42 42 71 76 75 76 73 66 79 81 74 74 70 62 58 62 71 55 63 64 61 47 46 39 37 35 32 28 30 36 36 35

GFSSE_sfc_rhum_060.txt.gz
RH
60 70 90 88 89 90 91 90 90 88 86 84 84 84 84 83 82 82 82 81 79 74 69 70 69 68 68 68 69 72 78 78 76 74 71 67 68 69 70 74 73 63 75
71 69 91 89 88 90 90 90 89 86 84 84 84 84 84 83 82 85 82 79 75 69 67 67 66 66 64 66 69 72 74 80 77 73 69 66 67 71 72 72 74 67 68
90 74 77 90 89 90 90 89 86 84 83 84 84 83 83 83 85 83 81 76 74 69 66 67 67 67 66 68 72 73 74 74 74 75 64 60 66 65 74 75 75 74 71
80 70 77 91 90 90 89 87 85 82 82 83 82 81 81 82 83 83 81 77 74 71 67 68 68 68 69 72 74 74 76 76 73 66 46 51 55 68 63 71 73 69 69
62 63 82 92 90 89 87 86 83 83 83 82 81 81 81 82 83 84 83 77 74 70 68 68 69 70 72 78 77 75 71 73 72 51 53 56 60 62 67 66 68 68 71
70 74 94 93 90 87 86 84 84 83 83 82 82 83 84 83 84 85 82 77 75 72 68 67 68 70 75 77 73 74 74 71 56 48 55 59 60 64 65 66 66 68 68
90 92 91 93 90 87 85 86 84 84 84 82 84 86 85 85 84 85 83 77 76 73 67 67 67 68 71 74 72 70 70 70 41 49 56 62 62 63 64 64 65 66 65
95 97 94 94 92 87 86 86 86 86 85 84 85 86 87 85 86 86 81 79 78 76 74 69 69 67 68 68 64 63 67 71 42 49 55 62 61 62 62 63 64 64 64
94 92 96 98 95 95 94 90 88 86 86 86 86 87 89 89 87 83 82 81 79 78 74 69 69 71 66 65 63 66 68 67 47 48 47 60 60 60 61 62 62 63 63
94 94 95 94 97 98 96 79 85 90 91 89 87 86 86 86 86 84 82 80 78 76 72 66 68 70 66 61 57 56 59 64 43 50 58 63 60 59 60 61 61 61 61
98 95 94 94 95 95 93 94 87 80 88 87 83 81 76 71 74 66 82 82 80 79 74 68 68 68 60 53 56 53 56 36 39 52 63 70 59 59 60 60 60 60 60
98 95 93 93 90 89 81 76 82 83 83 72 66 65 58 71 65 74 83 83 81 79 76 72 70 66 58 42 44 50 37 36 39 61 77 73 60 58 58 58 58 58 58
95 95 96 91 86 84 88 86 83 84 85 71 72 68 73 68 72 77 73 71 76 70 51 59 65 55 55 51 50 49 43 35 40 46 73 74 63 57 57 57 56 56 55
94 93 94 97 95 93 89 90 92 90 78 76 76 74 77 71 69 69 70 71 66 62 57 62 67 60 53 47 46 43 42 44 44 45 75 74 70 60 57 57 54 53 52
95 97 96 93 94 92 93 93 95 96 84 76 74 70 73 74 77 70 70 64 62 64 64 63 63 58 54 48 45 40 40 40 39 48 67 72 68 64 57 55 54 52 50
92 96 94 92 91 90 92 92 91 90 76 69 71 70 71 74 80 72 74 67 67 65 64 64 62 60 58 50 45 40 38 41 42 46 56 83 74 71 61 55 53 52 51
88 90 93 93 91 91 91 91 88 82 65 67 72 72 71 72 74 70 73 73 69 67 63 65 61 59 55 48 48 43 42 38 41 40 51 62 76 69 65 59 54 50 45
76 81 86 84 88 87 88 84 79 61 72 63 70 73 73 70 72 75 73 74 70 70 70 68 64 63 63 57 53 48 43 41 38 37 43 50 58 59 74 68 55 49 41
69 74 75 80 79 78 80 72 72 74 67 60 60 66 74 71 74 76 74 73 76 73 73 70 66 67 66 59 49 50 51 50 42 30 37 44 49 49 63 70 63 57 47
63 69 70 71 73 72 70 63 66 84 59 64 64 68 74 73 72 76 74 77 76 74 75 72 71 69 67 58 34 40 58 54 51 51 45 37 46 41 42 56 65 60 59
63 66 64 69 72 67 66 68 70 68 65 67 64 64 78 77 78 84 79 81 78 77 74 75 76 72 68 57 55 61 65 64 62 57 55 52 44 46 47 49 49 50 59
60 60 59 61 63 62 61 59 60 57 59 61 60 64 77 82 80 78 85 87 81 89 78 78 75 76 73 67 66 70 74 76 68 62 59 54 55 49 46 45 47 43 48
56 56 55 57 59 60 55 50 51 54 57 56 60 64 77 85 89 83 86 90 91 87 81 81 78 72 70 72 62 73 79 80 72 62 58 57 62 62 56 51 46 46 51
54 54 53 54 53 52 51 46 52 50 51 53 59 59 71 84 86 87 89 91 94 94 95 86 71 74 77 73 72 62 71 67 68 68 61 60 60 57 60 61 54 51 50
50 54 52 50 47 48 49 54 61 56 54 58 62 66 83 90 88 86 90 92 93 96 91 86 89 84 78 79 74 78 71 70 76 75 75 61 55 59 60 70 63 62 50
47 53 54 52 49 48 49 55 62 64 63 58 60 69 81 89 88 88 85 89 90 91 92 94 96 94 96 90 76 70 70 70 72 66 70 64 59 54 50 51 66 60 57

GFSSE_sfc_rhum_063.txt.gz
RH
89 92 91 89 91 91 91 91 89 87 85 85 84 83 83 83 85 83 81 79 77 74 68 67 66 65 68 70 71 76 79 77 76 74 71 67 68 70 71 72 68 64 74
84 85 92 90 91 91 91 90 88 86 85 84 84 84 84 86 84 82 79 77 74 68 66 64 62 65 68 72 74 79 79 76 75 75 69 67 70 71 73 73 74 64 70
74 72 76 92 90 91 90 89 86 85 84 84 84 83 86 86 83 80 78 76 74 68 66 64 61 64 67 70 75 75 75 77 74 76 70 56 60 71 73 70 72 69 69
73 55 55 94 87 90 89 87 85 84 84 84 84 84 86 84 81 78 77 76 74 70 65 62 62 68 71 71 74 75 74 70 71 69 62 62 54 65 67 67 66 66 65
66 80 80 95 88 90 88 86 84 85 84 84 83 84 85 83 80 79 78 77 75 68 64 61 63 68 70 75 75 72 72 72 71 64 67 70 64 61 67 67 68 68 69
78 83 88 91 91 89 87 86 86 84 84 83 83 84 85 84 81 79 78 78 75 67 64 62 63 65 73 74 72 70 70 71 68 67 73 64 63 63 65 67 66 66 66
95 97 95 93 90 88 86 86 86 85 85 84 83 84 86 85 81 80 80 78 75 70 65 63 61 63 71 69 69 73 72 69 61 70 73 73 64 63 64 65 66 66 66
97 97 97 97 91 88 87 87 88 87 88 88 87 85 87 86 83 82 81 78 77 75 71 65 67 66 68 68 69 73 74 66 59 65 70 71 63 63 64 64 64 64 65
96 97 98 95 96 96 98 92 90 89 90 88 88 86 88 88 84 83 81 80 79 76 70 66 67 69 67 66 65 68 73 68 60 60 57 70 62 61 62 63 62 63 64
97 98 98 97 96 97 94 94 87 90 91 92 93 92 90 87 85 84 82 80 77 73 68 64 68 64 61 58 56 60 68 70 63 66 70 65 61 60 61 61 61 63 63
96 97 96 96 94 95 94 91 89 81 91 90 89 90 90 86 78 78 82 80 78 75 72 69 66 62 59 53 57 66 57 60 65 67 76 70 61 60 61 61 61 61 61
98 98 95 95 93 87 84 87 90 89 87 78 79 80 85 79 80 79 84 83 79 76 74 70 65 61 54 48 50 54 46 65 74 80 81 71 61 59 59 60 60 60 60
98 98 95 93 88 86 84 79 74 79 88 78 75 75 76 81 83 81 80 82 81 71 63 64 60 55 57 54 49 47 47 58 76 81 80 75 62 59 59 58 57 56 58
97 98 94 91 87 82 78 76 85 84 89 86 76 78 79 79 73 73 73 73 65 62 56 65 70 59 52 48 44 44 45 52 63 80 85 76 70 59 58 57 56 56 55
97 98 96 93 95 92 93 90 90 93 92 83 82 78 76 75 72 74 73 70 68 68 63 72 62 60 53 51 47 43 42 47 51 67 88 74 75 65 59 58 55 53 53
95 97 95 95 92 88 91 89 92 89 86 79 78 76 80 81 72 76 74 68 70 72 70 69 64 64 61 49 44 41 43 45 56 61 78 79 73 74 65 58 57 55 53
94 93 95 94 89 87 87 89 91 82 71 72 83 75 79 79 77 77 79 78 76 73 69 68 68 69 61 52 46 45 41 44 46 59 69 81 82 79 69 68 57 52 51
89 89 89 88 88 84 87 87 85 67 71 63 84 84 75 75 76 78 81 80 78 76 71 75 69 69 63 60 55 50 49 45 40 40 62 70 76 69 74 71 65 55 51
89 86 90 89 86 80 81 76 71 69 78 53 85 84 74 73 76 79 78 80 76 78 75 73 73 71 72 67 54 56 54 51 43 35 49 60 70 75 76 72 68 65 56
86 86 87 81 80 78 78 69 77 90 88 80 76 80 80 78 80 79 80 83 80 78 81 77 72 74 76 65 38 46 57 60 52 54 43 41 53 66 74 73 77 68 65
82 83 85 86 82 77 78 75 72 78 82 80 79 69 80 81 79 85 84 88 85 79 82 76 77 78 75 68 60 58 64 64 59 60 57 51 47 47 58 70 69 64 65
80 80 81 79 80 73 71 66 68 71 76 71 74 74 84 81 86 84 84 89 90 92 84 83 81 82 75 71 63 66 68 79 76 66 65 57 57 54 51 51 54 57 61
79 78 74 73 73 66 63 64 69 71 73 75 72 70 86 86 86 87 89 90 94 92 90 85 78 75 77 78 73 69 79 78 80 75 72 64 57 62 59 55 54 51 56
72 70 66 68 70 66 62 64 68 69 66 66 74 73 88 89 90 92 95 95 95 90 89 89 85 82 81 88 93 74 72 69 76 78 72 67 66 58 63 68 60 55 53
62 62 62 64 62 60 64 66 66 63 61 61 63 73 83 92 92 92 91 95 95 97 95 94 92 94 97 98 98 95 93 94 89 79 77 68 63 65 70 70 70 68 59
56 57 59 62 59 58 61 63 63 58 64 66 65 71 83 91 90 93 93 96 96 97 97 97 97 97 98 98 97 97 94 92 87 75 79 72 65 60 54 57 78 74 69

GFSSE_sfc_rhum_066.txt.gz
RH
96 91 89 90 92 92 91 90 88 87 85 84 86 86 86 85 84 82 80 78 76 73 65 67 72 71 70 70 71 76 78 78 76 73 68 67 69 69 69 68 73 72 76
92 89 90 90 93 92 89 89 87 85 84 83 86 87 86 84 82 81 79 77 73 67 64 69 71 72 72 72 76 79 78 78 75 77 75 70 70 69 70 70 70 66 74
86 90 86 92 92 92 88 88 86 85 83 83 87 87 85 83 81 79 77 75 71 66 64 68 69 70 72 75 76 78 79 78 77 73 68 68 61 66 68 72 73 70 74
71 73 83 91 90 92 90 87 86 83 83 84 86 86 84 82 80 79 78 76 72 67 62 66 69 69 66 70 75 78 76 74 76 72 68 66 58 64 66 66 64 67 70
72 72 69 92 92 93 95 88 85 84 83 85 86 85 82 81 80 79 79 76 71 66 62 66 67 65 67 76 77 77 77 76 75 70 78 75 68 63 66 67 67 72 70
78 77 84 89 89 87 80 91 86 86 85 87 86 83 82 81 81 81 79 75 71 65 62 64 63 64 72 76 78 78 79 76 74 81 82 67 66 64 65 66 70 71 71
95 97 94 91 84 88 94 93 90 87 86 88 86 84 82 82 82 81 79 76 73 67 60 60 61 69 70 78 78 77 76 75 71 83 78 76 65 63 64 65 65 67 65
98 94 93 91 96 97 93 88 84 86 87 88 87 84 82 83 84 82 79 78 76 72 67 64 68 70 70 75 76 77 76 72 68 76 76 74 63 63 64 65 65 64 64
96 96 98 96 95 93 93 94 90 89 88 88 86 85 85 86 84 82 81 78 74 72 68 66 68 69 66 68 76 77 76 74 70 69 64 74 63 63 63 64 64 65 65
98 99 99 97 95 97 97 94 92 88 89 88 88 90 88 87 85 83 80 78 75 71 67 66 67 67 66 71 76 77 76 73 73 76 77 67 62 61 62 63 63 64 63
98 98 98 97 96 97 97 93 92 87 93 92 92 90 88 87 81 78 79 78 75 72 69 68 68 68 64 69 75 75 72 72 77 79 82 70 62 61 60 61 61 62 61
95 98 97 95 94 94 92 92 90 95 94 93 91 91 90 83 80 78 80 79 77 74 69 67 65 65 59 50 56 68 79 79 78 85 83 71 62 61 61 60 61 60 59
98 97 96 94 90 89 87 83 89 96 92 89 88 88 84 83 86 85 78 78 77 68 61 58 60 60 52 52 52 62 76 86 91 85 78 74 64 60 60 59 59 60 56
98 98 94 91 90 89 84 82 83 87 83 82 78 82 81 82 80 81 71 69 62 67 63 65 70 60 55 48 49 55 63 80 93 94 88 76 69 61 59 59 58 57 56
98 98 94 91 91 90 85 80 87 95 90 82 82 78 73 73 74 76 74 66 66 66 71 73 66 58 57 50 48 48 54 69 81 89 94 80 75 64 59 58 58 56 53
97 98 96 90 92 91 88 86 93 91 84 78 75 75 74 73 73 68 73 73 72 69 75 70 66 62 56 48 47 46 50 53 63 78 86 88 80 74 66 60 57 55 54
95 96 97 95 94 94 90 93 93 86 70 73 79 77 77 73 74 78 78 79 76 76 76 72 69 70 62 52 45 45 48 54 60 63 76 81 84 82 76 68 61 57 56
92 93 95 92 92 89 89 87 84 71 74 77 84 82 78 77 78 84 84 84 82 82 80 77 76 75 68 61 54 52 48 49 55 60 68 76 84 78 76 76 68 60 56
86 89 93 87 80 78 79 73 75 73 66 66 86 82 77 80 83 84 85 83 85 84 82 77 78 74 74 70 58 57 57 52 46 45 65 71 80 80 82 77 73 70 63
84 84 88 84 79 82 80 77 71 85 80 77 75 84 81 80 85 84 84 86 82 83 83 83 75 80 80 75 47 50 60 58 53 55 61 61 75 78 79 77 82 78 70
87 89 84 86 84 81 79 76 70 61 76 79 82 77 85 84 86 88 88 91 86 79 79 80 80 78 83 80 67 59 62 66 60 62 56 58 62 67 82 80 83 77 73
91 92 92 89 86 75 69 66 65 68 84 86 82 84 86 87 86 86 89 92 90 92 87 86 82 87 83 78 72 67 66 73 77 65 68 58 58 59 64 71 73 67 63
91 92 90 87 85 80 75 71 77 82 86 86 76 76 86 91 86 84 88 92 90 92 91 86 83 77 84 83 69 71 86 84 76 71 69 66 62 67 59 59 61 59 62
85 83 82 82 82 76 75 70 69 68 69 63 62 63 83 91 91 90 90 90 94 93 94 91 88 86 81 87 96 90 88 78 86 85 72 71 72 60 61 62 59 62 58
78 82 81 78 77 71 69 67 68 70 69 72 76 80 81 90 90 90 90 94 94 96 95 94 95 93 94 96 96 99 97 97 96 95 94 79 63 65 66 67 68 67 61
77 77 76 75 73 69 66 66 68 74 77 77 74 77 76 86 93 93 92 94 96 97 97 96 96 94 96 97 98 96 96 96 97 97 97 85 72 62 55 58 68 70 74

GFSSE_sfc_rhum_069.txt.gz
RH
95 93 93 90 91 92 91 91 89 87 85 84 83 84 84 84 84 83 82 80 76 73 69 69 70 68 68 71 74 75 78 76 74 72 68 68 72 71 67 76 78 74 78
93 92 94 92 92 91 90 90 88 87 87 85 85 85 85 84 83 81 79 76 74 72 69 70 70 70 71 72 74 75 76 81 82 80 74 72 66 64 67 68 78 75 76
96 91 90 93 92 90 88 88 87 86 86 86 86 85 84 82 81 79 76 74 75 73 70 70 68 72 72 74 77 74 73 74 77 74 67 55 62 68 69 72 75 74 72
89 95 93 94 92 88 86 88 87 83 86 86 85 84 83 81 80 77 74 74 76 74 70 70 70 73 76 80 79 75 74 74 74 74 72 66 61 70 71 73 71 67 71
81 79 91 94 90 87 85 86 87 85 86 86 85 83 81 80 79 77 74 74 75 73 69 66 63 71 77 82 81 77 74 74 74 74 81 77 66 66 70 71 69 72 71
81 79 82 94 87 88 84 85 88 90 88 87 85 83 81 80 80 78 74 73 75 73 65 61 69 78 82 82 81 76 76 76 77 85 86 68 67 64 70 68 68 68 63
89 93 91 90 88 84 88 86 90 88 90 87 85 82 82 82 80 78 74 73 74 72 63 68 78 82 82 82 79 78 78 75 74 85 79 77 65 64 67 66 67 63 67
98 96 91 86 85 87 84 88 90 88 91 86 85 83 83 83 81 79 77 75 73 72 70 72 80 81 81 80 78 80 79 74 74 81 78 70 63 67 67 66 67 62 64
97 96 95 94 91 90 87 93 94 86 88 86 84 85 85 84 82 80 78 76 73 68 68 67 75 80 80 79 80 80 80 76 80 75 68 71 63 63 64 63 64 62 64
98 98 98 98 96 97 96 95 97 91 91 87 87 88 88 85 83 80 77 73 67 66 67 68 74 76 80 80 80 80 80 76 81 80 80 65 64 62 63 64 64 64 63
98 98 98 97 96 95 95 96 94 97 93 90 90 90 88 88 81 77 74 72 68 71 68 69 72 80 80 80 80 80 74 81 82 85 84 70 62 62 62 63 63 62 61
98 99 98 97 96 95 92 94 94 96 95 94 90 89 90 85 81 75 78 74 70 69 72 72 67 71 73 76 78 78 83 84 87 89 87 71 63 61 62 62 61 61 60
97 98 98 95 92 90 94 94 95 95 98 98 94 91 84 83 84 80 79 82 71 62 54 58 55 50 54 66 77 87 89 91 95 89 83 73 65 61 61 62 60 59 59
98 98 96 95 94 91 84 83 84 94 98 98 96 84 82 85 84 83 74 74 62 64 61 65 65 60 55 64 73 82 88 94 97 94 88 77 69 62 60 60 61 58 56
98 98 97 93 93 90 89 80 94 96 94 92 92 79 75 76 74 77 76 68 64 72 69 66 63 60 55 54 61 71 83 90 93 97 97 80 75 65 61 60 60 58 56
98 98 96 94 93 93 89 90 95 93 91 91 88 74 73 70 73 69 73 70 67 74 74 70 62 61 54 52 55 57 67 83 89 93 95 92 80 74 65 59 58 58 56
95 97 97 96 96 89 89 94 95 91 86 86 82 77 75 72 66 69 75 75 74 76 75 73 69 66 60 50 50 56 59 64 74 82 88 92 89 82 75 68 60 58 58
93 95 96 94 96 96 97 96 95 86 89 80 81 77 74 72 73 74 74 75 80 80 79 77 77 75 67 59 56 55 60 60 60 65 77 83 86 86 83 78 73 64 60
89 95 96 97 96 92 85 86 85 80 79 79 87 75 81 75 77 71 73 81 84 86 84 79 82 77 74 70 60 61 59 60 64 56 65 72 82 89 87 80 79 73 69
87 89 92 94 93 93 84 84 82 88 75 78 84 83 82 77 81 80 84 88 87 86 85 83 77 82 77 74 51 53 62 62 57 63 69 64 79 85 85 84 87 82 74
87 90 90 91 88 80 82 86 81 77 73 79 78 80 84 83 86 89 89 92 89 84 79 81 81 80 86 84 70 68 68 64 62 60 62 73 75 80 86 86 88 85 81
91 87 86 82 80 72 72 71 69 62 73 79 77 76 84 85 89 90 92 93 91 92 86 86 83 88 84 85 76 72 70 70 80 68 65 61 64 67 82 81 83 82 76
90 88 92 84 83 79 80 70 70 69 70 72 75 78 83 87 89 90 90 92 94 93 90 87 84 78 82 86 70 70 83 76 76 74 70 66 58 62 63 76 76 69 72
96 95 95 93 92 85 85 82 76 66 59 58 68 69 75 88 90 91 90 91 95 93 90 90 86 90 90 94 95 89 88 83 84 82 74 74 74 65 65 71 64 62 63
94 96 95 91 89 83 86 82 82 80 73 72 76 79 83 90 92 93 94 94 93 95 93 93 94 92 91 96 96 99 96 97 94 94 94 88 77 73 72 68 66 67 60
92 92 93 90 86 83 82 83 80 78 76 77 87 83 80 90 91 94 93 94 94 96 96 95 93 93 93 95 96 97 95 97 98 98 98 90 80 67 60 61 69 71 71

GFSSE_sfc_rhum_072.txt.gz
RH
97 97 91 89 90 91 90 88 87 88 87 87 86 86 86 86 86 85 83 81 78 76 72 71 74 72 72 74 72 74 76 76 76 75 74 72 67 76 78 79 78 74 77
92 92 91 89 90 89 87 89 87 87 87 86 86 86 86 86 85 83 80 78 76 73 68 68 68 70 73 75 76 78 79 82 80 76 70 67 67 67 76 77 79 73 76
95 95 93 92 90 90 88 88 88 86 85 86 86 86 86 84 82 80 78 76 75 73 68 68 69 69 72 75 78 77 75 77 72 71 70 66 65 70 72 74 75 72 71
89 94 91 92 89 89 88 89 88 86 86 86 86 85 84 83 80 78 78 76 75 73 67 65 71 72 73 77 78 76 75 75 75 75 73 66 64 74 72 73 73 72 72
82 82 90 93 88 87 86 87 86 86 87 86 85 84 83 80 78 78 78 77 76 74 73 71 74 77 79 82 80 78 76 75 76 74 68 67 69 67 71 69 67 69 62
89 84 93 94 91 90 84 84 84 87 87 86 85 84 81 78 77 78 79 78 76 72 69 72 76 81 84 83 80 77 78 78 80 84 79 69 71 69 66 62 65 63 66
95 90 94 91 91 90 86 84 90 86 86 86 84 82 80 79 77 78 79 77 74 69 69 77 81 82 84 81 78 79 79 77 77 82 78 76 71 70 63 66 63 64 63
98 95 90 87 85 85 87 83 91 90 88 87 84 83 82 80 78 78 79 76 72 78 80 83 83 82 80 80 79 81 80 75 73 77 76 72 61 64 67 65 64 64 64
97 95 95 93 89 87 86 85 91 89 87 85 84 84 83 82 80 78 77 75 75 83 84 83 82 81 80 79 80 81 81 77 80 74 68 66 65 64 63 62 64 64 64
98 96 97 98 98 97 96 88 89 90 88 88 85 86 86 85 82 79 76 72 72 79 82 81 81 81 81 81 81 82 81 78 83 81 79 66 65 64 65 64 64 64 64
97 97 98 98 97 95 96 94 89 92 92 87 86 89 87 85 81 79 70 71 70 75 80 82 82 82 82 82 82 82 78 84 84 84 81 71 65 64 64 64 63 62 62
98 99 98 97 97 98 95 97 96 96 94 87 84 89 86 86 83 78 73 72 73 75 81 82 84 82 80 80 78 78 81 86 86 87 82 72 64 63 63 63 62 62 60
98 98 98 96 94 94 95 98 99 100 96 96 90 91 81 83 89 78 69 70 74 67 64 75 75 74 85 83 83 84 86 89 90 88 80 73 64 62 62 62 62 62 60
98 98 98 95 95 94 90 92 96 98 98 96 96 82 79 83 76 76 66 72 69 72 62 60 64 68 79 82 84 88 90 93 92 92 84 76 69 62 63 61 61 60 58
97 98 98 94 95 93 90 85 93 97 96 96 92 78 73 70 71 70 73 67 72 73 61 56 56 63 74 80 84 85 91 92 91 92 91 79 74 66 62 63 60 58 56
98 98 97 95 94 92 87 89 98 97 97 96 91 78 70 69 72 66 68 69 75 68 68 54 53 59 65 70 79 85 88 92 91 92 90 86 80 74 67 61 60 59 57
96 97 98 96 95 94 94 98 98 95 95 95 89 79 75 67 66 66 71 74 74 75 68 62 64 62 61 56 65 72 80 88 90 90 90 90 85 81 76 68 62 60 59
93 96 96 96 95 96 97 98 97 94 97 97 88 81 78 74 67 68 69 73 76 79 76 68 70 67 63 61 64 65 68 76 82 86 89 89 89 82 81 77 72 64 62
89 96 96 96 97 96 97 97 96 95 95 96 92 75 72 71 71 66 68 76 80 82 80 72 79 72 68 64 58 62 65 66 68 58 78 84 88 88 87 84 81 78 74
89 91 95 96 97 97 93 95 97 97 97 96 90 73 68 68 70 74 75 80 82 83 82 80 79 81 74 69 49 53 63 63 64 69 69 65 78 86 88 85 90 84 79
94 91 94 97 96 95 94 86 96 96 97 95 84 74 72 73 75 82 81 88 87 84 83 83 81 80 84 77 71 70 70 67 64 62 64 70 73 75 87 86 87 85 80
87 91 91 89 88 87 87 80 92 94 89 87 86 84 85 80 79 85 87 93 93 92 88 88 82 86 83 83 80 75 73 69 75 64 60 58 68 73 78 80 82 85 81
88 90 88 84 82 77 78 79 84 84 88 86 83 81 86 87 90 91 92 94 94 94 92 89 86 81 83 88 75 72 82 80 76 80 72 68 61 70 70 77 80 80 82
94 94 83 80 80 79 83 76 70 68 74 65 66 78 76 89 90 90 92 94 94 96 93 91 87 87 88 93 95 90 87 84 88 90 80 76 69 59 64 66 68 72 71
94 90 97 94 89 87 84 77 78 75 64 67 69 67 72 84 86 90 92 93 96 94 94 94 94 92 90 94 93 96 96 95 93 93 93 91 84 80 75 71 70 67 63
94 98 97 96 92 88 87 86 81 80 81 79 79 82 87 90 91 92 92 95 95 97 96 95 97 95 94 92 96 97 97 95 97 97 98 95 91 84 67 70 74 73 71

GFSSE_sfc_rhum_075.txt.gz
RH
80 70 92 92 91 90 91 89 86 87 87 86 86 86 86 86 85 85 84 83 80 77 73 72 75 74 73 74 76 78 80 81 80 78 76 74 75 77 77 77 75 66 77
75 71 92 90 90 90 90 90 88 87 86 86 85 86 86 86 86 84 82 81 78 75 71 72 72 72 71 71 75 76 76 76 76 78 74 74 75 76 75 76 76 66 74
83 77 74 93 90 89 89 90 88 87 87 86 86 86 86 86 84 82 80 78 77 74 70 70 71 74 71 76 79 78 78 79 79 75 68 48 58 72 73 72 72 71 71
89 80 73 94 92 89 89 88 88 87 86 86 86 86 86 84 82 81 79 77 75 72 66 66 68 72 74 78 78 76 76 76 78 72 50 48 52 71 70 70 69 71 71
86 84 73 93 89 85 84 88 87 86 86 87 86 86 84 82 81 80 79 78 75 72 67 65 70 76 79 82 80 79 77 75 74 54 49 52 52 61 68 64 65 62 67
83 85 90 90 89 89 87 83 83 87 87 86 85 85 83 81 81 80 79 76 73 70 72 70 74 78 83 82 82 80 79 76 65 44 50 64 59 64 63 64 71 62 65
88 93 92 91 91 86 84 80 83 83 84 86 84 83 81 81 81 81 80 78 78 79 79 78 78 79 82 82 80 80 80 74 47 47 54 66 61 63 61 67 62 64 65
93 94 93 89 89 88 83 81 85 93 92 93 84 82 80 81 81 82 81 78 76 79 81 84 82 80 80 80 79 82 80 70 50 50 52 55 64 66 65 61 64 65 64
96 94 94 94 88 89 87 86 88 89 88 88 87 82 81 82 81 82 78 76 78 85 86 86 84 82 81 80 80 82 81 72 50 49 45 49 63 63 64 64 64 64 64
96 95 95 94 94 91 92 88 87 91 88 89 85 84 84 84 84 80 78 84 84 86 85 83 83 82 82 82 82 82 82 74 49 48 45 50 64 63 64 64 64 64 64
97 94 94 97 92 89 86 85 85 92 89 95 90 87 82 76 71 66 72 85 86 85 83 82 83 83 83 82 83 82 73 48 49 47 45 70 65 63 64 64 64 63 63
97 94 90 86 87 90 83 87 91 89 90 89 89 85 79 77 70 62 71 82 84 84 83 83 84 84 68 54 59 70 50 54 52 50 48 73 65 64 64 64 62 62 62
90 94 96 95 93 89 80 87 97 99 92 97 96 90 78 67 65 68 70 68 70 77 61 68 66 52 58 53 53 54 56 55 50 48 59 73 66 63 63 63 61 60 60
95 94 94 91 90 84 80 84 96 98 99 98 94 81 74 67 69 69 66 66 65 64 66 66 58 63 69 59 58 61 58 52 51 48 58 76 70 63 62 62 62 60 58
96 96 97 92 92 89 81 85 92 97 97 96 94 76 64 64 68 64 65 57 51 56 61 61 60 58 59 58 58 58 59 58 58 51 50 79 75 66 62 62 61 59 57
87 96 94 92 92 90 85 91 96 96 96 94 94 75 70 63 64 62 66 61 54 49 52 58 58 56 53 52 59 57 58 56 56 58 50 56 79 73 68 62 60 58 55
90 94 97 92 93 90 91 96 96 98 94 95 89 74 63 60 60 64 64 61 58 51 57 55 59 56 54 51 54 58 57 59 56 59 55 51 59 81 75 70 63 60 58
88 96 93 92 96 95 95 94 96 98 96 95 77 68 68 61 61 66 60 64 61 58 59 56 56 51 49 49 54 53 54 57 60 62 59 58 54 50 72 77 72 65 62
80 82 94 97 98 96 96 89 96 98 97 94 87 69 68 62 63 59 61 64 76 73 66 50 50 46 46 44 42 46 52 57 61 56 62 65 65 60 52 73 79 78 74
80 88 92 97 96 97 94 93 97 98 98 96 90 71 69 60 70 64 71 78 74 68 61 57 55 55 47 45 33 41 46 46 47 52 56 59 62 65 63 60 57 58 83
85 90 94 97 96 95 96 93 97 98 98 97 90 77 72 67 70 76 74 80 74 64 64 71 67 65 63 59 52 51 49 52 53 48 52 49 57 64 68 76 71 61 56
85 85 92 93 91 85 86 72 89 95 96 95 92 83 78 73 74 71 71 76 78 79 75 78 74 75 72 68 60 57 60 54 50 48 46 48 67 51 69 78 80 77 70
80 83 82 90 88 84 82 85 92 93 96 97 93 90 80 76 73 74 73 82 78 78 81 80 73 69 67 72 68 60 71 68 60 68 68 64 61 55 50 65 76 76 72
76 81 77 83 84 82 82 82 89 91 94 91 88 85 81 78 76 65 77 82 83 87 81 84 71 71 70 72 77 88 77 61 72 85 60 59 80 72 70 71 74 72 63
74 82 76 77 78 75 76 70 80 86 85 89 89 88 82 78 73 76 79 78 84 80 84 83 85 83 80 78 91 91 85 81 77 79 81 69 66 62 64 55 68 64 58
76 80 80 75 75 73 74 70 70 76 72 72 74 76 72 76 82 79 75 80 78 81 81 83 84 84 83 87 87 77 74 77 76 79 83 83 90 71 67 63 66 72 71

GFSSE_sfc_rhum_078.txt.gz
RH
56 42 87 89 90 91 91 89 88 88 88 87 86 85 84 84 85 86 86 84 80 77 73 75 75 75 76 77 78 79 81 81 80 79 78 74 74 75 75 78 74 63 77
51 45 93 92 91 91 91 89 88 88 88 87 86 84 85 84 85 86 85 82 78 76 72 75 76 76 76 75 77 80 81 82 81 80 79 76 75 75 76 78 78 68 77
60 52 61 93 91 91 91 89 88 88 87 86 85 85 85 86 86 86 84 82 79 76 74 73 73 73 74 76 81 80 80 78 79 77 70 54 62 73 73 74 74 74 74
68 54 52 95 90 91 91 89 89 87 87 85 86 86 86 86 85 84 82 80 79 76 72 72 72 74 76 78 80 80 78 79 76 73 43 50 55 72 71 70 70 69 70
79 56 59 92 91 88 83 89 88 87 86 86 86 85 85 84 83 82 81 79 76 75 71 72 75 76 79 81 81 80 76 74 74 50 40 48 54 61 66 64 67 66 66
85 76 88 93 89 84 86 87 80 87 87 87 86 85 84 83 82 81 80 77 75 73 70 71 76 80 83 83 82 79 75 70 69 39 47 48 45 66 66 65 65 65 66
74 88 75 92 90 87 84 82 89 85 86 87 86 85 84 82 82 81 79 76 74 74 75 75 79 81 83 83 81 79 75 72 34 38 39 42 51 66 62 64 65 66 66
77 90 80 88 90 89 91 90 90 82 82 89 79 85 83 82 82 81 78 77 81 78 80 82 81 81 82 82 80 79 74 65 39 40 38 42 62 63 64 65 65 65 65
89 89 89 81 92 90 88 89 94 92 84 88 89 83 84 84 83 81 82 82 82 85 84 83 84 83 82 81 81 80 75 75 36 37 35 45 65 62 64 64 64 64 65
94 94 94 88 92 77 73 85 88 93 91 90 88 89 87 86 84 82 81 85 87 88 86 82 84 83 83 83 82 82 77 72 34 34 35 45 65 63 63 64 64 64 65
95 95 94 94 89 85 84 79 84 87 90 90 90 90 91 79 76 67 70 88 89 88 86 84 85 85 84 83 83 79 76 33 34 32 36 71 65 63 64 64 64 64 64
94 93 92 88 87 80 82 77 74 71 76 84 88 92 86 84 78 59 82 89 88 86 84 85 85 84 65 44 49 68 33 37 34 34 42 72 65 63 64 64 63 63 63
79 91 89 87 84 89 92 85 93 88 87 90 90 95 88 86 72 71 75 65 66 67 48 56 60 38 39 37 40 37 40 39 34 35 57 74 65 63 63 63 62 62 62
69 75 80 89 84 86 90 86 90 94 87 96 98 95 94 89 70 70 63 54 54 44 48 46 40 43 43 40 41 44 42 36 34 36 56 76 71 63 63 61 60 61 60
72 70 77 76 78 74 73 74 91 96 95 98 96 86 82 75 69 64 66 60 54 48 46 45 43 43 44 43 42 42 41 40 41 36 44 77 75 67 62 62 60 58 57
62 74 73 82 82 76 73 86 97 95 97 97 96 89 78 71 67 62 58 59 59 56 45 44 44 38 36 37 41 41 41 41 42 42 39 52 77 73 67 62 60 58 57
54 66 84 83 84 79 76 94 95 91 94 96 92 83 72 65 64 61 54 58 60 51 50 49 44 38 38 34 39 41 40 43 42 45 40 42 54 80 75 69 62 59 56
55 65 79 77 89 81 79 90 98 92 93 94 85 71 69 63 61 59 52 58 59 59 55 50 43 42 39 35 38 37 38 40 44 46 42 41 41 41 71 76 71 66 61
50 64 75 88 94 93 89 97 96 94 91 93 84 66 64 59 61 54 51 53 52 47 52 49 44 42 40 36 36 35 37 38 44 39 44 49 49 45 43 76 80 77 73
54 61 71 92 95 94 94 96 98 94 94 93 80 58 50 44 53 46 40 51 43 41 44 39 44 38 35 33 26 32 37 36 38 42 44 44 48 54 49 47 53 58 81
64 66 80 96 94 92 93 88 98 97 94 92 74 55 52 48 48 60 59 56 49 50 50 54 46 49 43 41 36 38 38 41 42 40 43 44 46 49 50 49 48 50 65
67 72 84 88 91 82 71 66 89 92 93 89 82 64 65 63 68 72 63 62 59 66 73 70 55 54 54 52 51 47 54 48 41 40 37 39 54 50 60 54 65 62 65
68 69 78 84 88 84 78 70 89 96 96 94 89 80 70 67 62 71 73 66 75 66 64 70 67 66 60 74 67 55 70 68 67 55 50 62 49 56 58 41 44 65 72
60 67 74 80 84 82 78 76 78 83 93 86 84 77 73 69 68 59 70 66 73 64 60 63 59 65 57 62 63 56 71 71 82 73 51 64 60 58 67 49 61 55 66
55 73 77 74 80 80 77 70 70 79 78 84 90 86 76 73 67 68 68 69 61 62 62 64 68 69 61 61 62 66 68 84 78 70 69 66 55 49 50 66 45 43 59
53 67 68 70 74 73 77 76 76 81 89 91 89 86 79 75 76 69 64 72 66 72 66 68 73 75 72 71 73 70 64 77 64 65 65 64 75 76 64 67 54 50 48

GFSSE_sfc_rhum_081.txt.gz
RH
39 54 89 87 86 87 89 90 90 90 89 89 88 85 85 85 87 86 84 82 80 78 72 73 76 77 77 78 78 82 82 82 80 79 78 74 74 75 75 78 75 65 76
41 50 92 91 89 91 90 91 90 90 89 89 87 86 86 86 87 86 84 82 79 78 75 76 77 78 76 79 82 84 85 84 84 82 80 76 76 77 77 79 78 67 75
54 66 59 91 91 92 91 90 90 90 88 88 86 86 86 86 87 86 84 81 78 78 76 77 76 75 76 78 83 83 83 83 81 76 72 58 63 75 76 76 77 75 74
56 49 50 94 92 92 92 90 90 88 88 87 85 86 86 86 87 86 83 81 81 78 75 74 74 75 77 82 82 80 79 81 78 72 50 56 59 74 72 73 73 72 72
55 59 59 92 92 89 92 91 90 88 88 87 86 86 86 87 85 85 83 82 81 78 73 74 75 78 81 84 81 79 76 74 73 55 46 56 58 66 69 67 66 67 69
63 61 86 92 92 90 90 86 87 80 84 87 86 86 86 86 85 84 84 81 80 78 74 75 78 79 85 82 78 75 72 72 71 35 38 50 52 69 68 68 67 68 67
61 69 70 94 91 86 81 76 80 85 95 86 88 86 86 85 84 83 81 80 78 78 79 78 78 81 83 80 77 74 74 69 34 33 37 46 56 66 66 66 67 67 66
64 72 73 88 90 85 83 85 90 86 88 92 83 82 84 84 84 82 81 79 78 81 83 84 83 82 83 80 78 73 72 72 35 33 38 46 64 65 66 67 66 66 66
64 72 79 75 77 93 92 91 93 88 87 91 81 84 85 85 84 82 80 80 83 84 85 85 85 85 83 81 77 74 72 73 33 34 37 46 65 65 65 66 66 66 66
79 82 77 78 86 84 87 92 88 95 97 84 89 91 94 91 84 81 82 83 85 85 85 85 86 85 84 82 79 75 73 67 32 34 36 50 66 63 64 64 65 65 65
92 91 89 83 84 85 84 80 88 91 91 96 85 92 94 92 81 73 72 87 87 86 86 86 86 86 84 82 78 75 77 30 31 32 42 71 64 63 64 64 65 65 65
78 91 88 81 84 85 79 69 64 62 65 77 81 80 88 88 83 70 84 90 88 87 86 87 86 85 66 44 46 66 37 32 30 36 47 74 65 63 64 65 65 65 64
65 75 82 86 77 75 79 73 68 78 81 86 83 89 94 94 94 80 93 88 76 76 58 62 64 41 39 37 40 40 36 35 32 38 59 74 66 63 64 64 63 64 63
62 69 78 84 80 77 70 72 67 72 77 80 84 94 97 97 94 90 88 75 63 48 51 49 42 43 41 37 39 40 40 33 33 41 59 76 70 63 62 62 62 62 63
53 69 78 72 85 79 75 65 75 75 72 81 89 88 97 93 90 89 81 68 50 44 46 43 39 38 40 39 38 40 37 36 38 40 50 78 75 67 62 61 62 62 61
45 50 77 80 82 69 68 74 86 86 86 93 95 92 91 93 92 86 86 70 48 44 42 40 42 39 39 39 41 40 38 38 37 43 45 56 78 74 68 62 60 59 58
43 41 62 74 82 71 74 88 94 94 96 97 98 92 90 90 90 78 83 72 67 51 51 56 47 40 35 35 40 39 38 41 39 41 43 48 58 80 75 70 63 60 58
41 42 62 72 73 74 77 95 95 96 96 96 97 93 87 80 74 76 80 73 66 60 52 53 50 44 37 35 39 40 39 40 44 42 39 43 47 46 73 75 72 66 61
42 42 58 73 73 77 77 96 96 94 96 96 93 92 89 84 80 76 69 66 67 57 66 63 58 57 42 39 36 37 39 37 43 38 40 42 45 43 48 77 79 77 72
40 45 55 71 84 87 96 95 97 97 93 91 76 84 84 81 76 65 61 67 60 60 59 56 62 55 48 38 28 34 38 37 39 42 41 40 43 48 46 57 62 62 82
46 51 63 82 91 93 95 97 97 98 95 88 72 70 72 62 58 55 51 52 52 53 52 56 54 54 45 41 33 38 39 40 42 39 41 43 45 50 52 48 57 53 60
51 54 61 70 84 84 85 88 90 90 93 85 74 60 61 58 49 45 51 57 51 50 54 56 56 54 46 46 42 42 51 45 42 42 41 46 54 44 46 58 64 56 54
53 55 60 76 82 78 79 89 90 88 94 90 84 60 57 64 58 56 62 61 63 57 57 61 59 56 55 53 56 63 74 74 59 48 54 44 51 49 52 61 59 56 58
51 54 65 76 78 77 79 89 90 86 87 81 76 70 56 61 66 64 65 68 70 66 65 68 57 62 62 68 69 66 62 64 81 92 70 62 64 66 63 55 48 48 51
48 54 64 74 73 72 75 84 84 82 80 82 76 68 63 65 63 62 71 74 75 73 67 72 66 67 64 77 68 65 67 66 74 66 71 79 58 54 50 55 47 49 54
44 52 61 68 73 72 72 78 79 81 88 92 85 78 72 69 71 74 66 78 77 75 75 70 73 76 74 74 80 79 69 66 66 69 72 64 76 75 65 72 68 59 52

GFSSE_sfc_rhum_084.txt.gz
RH
58 73 90 89 89 91 91 91 92 92 91 90 87 86 88 89 88 85 84 82 80 78 74 74 79 78 78 79 81 84 83 83 82 81 79 75 74 75 75 78 75 71 80
56 65 92 90 90 90 90 91 92 92 91 90 87 87 88 89 87 84 83 82 80 77 76 78 78 77 76 81 85 86 86 84 83 82 81 78 76 76 76 79 78 74 76
61 69 71 90 91 90 90 91 91 91 90 89 87 88 88 89 87 86 84 82 80 79 77 77 75 77 78 84 85 85 83 82 81 77 76 71 72 77 76 78 79 76 74
53 59 66 90 91 93 93 92 91 89 89 88 88 88 88 88 87 86 84 83 80 81 77 75 76 76 80 85 84 83 81 79 78 72 63 65 65 74 76 78 75 74 74
52 54 68 90 91 93 93 92 91 89 89 89 86 87 88 88 86 85 85 83 82 80 76 76 77 80 83 83 83 84 83 80 74 62 66 67 69 70 72 71 68 67 70
59 61 92 92 90 90 90 92 90 88 89 88 86 87 88 87 86 86 86 84 82 80 78 79 79 81 84 82 81 78 77 74 67 56 65 66 64 72 70 70 69 69 70
64 68 81 94 90 88 86 86 88 91 95 92 88 86 88 86 85 86 85 83 82 81 81 79 81 82 81 80 79 75 68 69 45 50 61 67 65 69 67 66 68 68 68
69 76 76 90 90 86 89 89 89 91 93 86 93 93 86 87 86 86 84 84 83 84 84 84 84 82 81 80 74 69 72 77 42 50 59 61 66 63 66 68 68 68 67
72 75 82 85 85 92 91 89 92 90 84 87 88 93 86 88 86 84 84 84 86 87 86 84 85 83 82 78 74 74 73 73 46 52 54 60 66 63 66 67 67 67 67
76 82 88 89 89 89 91 92 91 89 90 87 92 98 89 90 85 83 86 87 88 88 85 84 86 84 82 78 75 69 67 72 44 51 60 65 64 64 65 66 66 66 66
84 88 86 92 90 89 89 86 90 91 92 95 91 96 95 87 94 81 85 87 88 88 87 86 86 85 81 77 73 73 81 48 46 56 63 72 63 64 65 66 66 66 65
82 86 85 87 91 89 87 84 83 86 93 93 95 97 94 94 93 83 89 89 88 88 88 88 86 82 70 68 72 76 64 48 50 59 67 73 65 64 65 65 65 65 66
69 80 84 85 88 93 88 90 91 93 96 94 96 94 91 95 95 95 96 94 88 87 82 83 78 60 58 59 62 62 60 45 53 59 71 74 67 63 64 65 65 65 65
66 68 80 83 84 88 92 87 91 94 94 94 91 91 92 96 97 96 95 96 83 76 76 73 65 62 59 56 60 62 54 47 57 64 76 77 71 64 63 64 65 64 64
60 77 76 79 84 82 84 86 84 90 94 91 94 90 93 94 96 94 95 96 73 62 62 62 58 51 57 54 58 54 54 50 58 62 75 80 76 68 63 63 63 64 63
52 73 80 79 84 81 83 84 85 83 91 94 93 92 91 93 92 95 95 91 59 57 54 54 57 58 54 56 60 56 51 51 56 63 70 79 78 74 68 63 63 63 63
45 68 85 89 87 84 80 86 92 92 94 96 94 92 92 92 91 91 93 90 61 56 54 62 58 61 62 53 58 59 58 55 54 60 64 70 79 79 75 70 64 62 61
44 53 75 79 82 83 89 93 98 98 98 98 98 94 89 89 84 86 89 91 86 77 68 58 62 64 63 63 63 62 60 57 56 58 60 64 69 65 77 76 72 67 62
42 51 72 83 82 84 92 96 97 96 98 97 96 96 90 92 85 85 91 92 92 88 78 65 68 66 63 62 58 63 61 62 63 51 55 59 64 64 68 79 79 78 73
46 53 74 78 80 84 93 96 96 97 97 96 96 93 89 90 91 92 95 95 86 86 76 73 66 66 62 60 38 49 62 66 64 67 60 54 57 61 63 67 75 74 80
54 56 74 79 82 88 94 95 98 98 97 94 93 92 89 86 84 91 95 94 86 81 77 71 68 64 60 58 64 65 61 61 66 66 66 65 64 64 68 69 71 69 73
57 60 76 75 82 84 88 91 91 91 92 89 91 83 82 81 80 80 76 76 72 73 73 74 68 71 66 67 66 66 70 66 62 62 66 66 67 69 71 71 70 69 67
59 62 75 76 83 84 87 90 92 90 90 87 82 79 82 78 68 62 66 61 62 63 67 71 72 69 70 70 69 77 86 87 75 66 66 68 66 75 70 66 70 70 74
59 61 63 75 80 82 87 90 93 90 88 78 74 70 74 70 66 57 61 60 72 68 72 69 74 68 78 68 81 80 90 88 91 95 80 70 69 71 74 71 74 73 70
57 63 66 75 80 79 87 86 87 84 73 75 70 68 68 70 70 69 64 68 71 79 79 73 78 82 88 89 76 84 85 91 92 89 96 95 79 65 64 70 70 66 54
55 63 71 78 82 79 87 86 84 81 77 84 73 66 66 72 75 72 74 79 78 84 79 85 84 86 84 86 92 89 84 85 91 94 95 88 90 84 70 64 69 63 61

GFSSE_sfc_rhum_087.txt.gz
RH
84 91 93 92 91 90 92 93 94 94 92 89 89 90 89 88 86 85 85 84 82 79 75 79 82 78 78 80 85 85 85 84 82 79 73 76 73 75 76 81 81 76 81
83 85 92 93 92 90 91 93 94 93 92 88 90 91 90 88 86 85 84 82 81 77 74 79 81 76 78 83 86 86 86 86 86 84 82 78 77 78 77 79 80 78 80
80 85 82 91 93 92 92 92 93 92 90 88 90 91 90 87 86 85 83 82 80 79 76 75 71 76 79 86 86 85 84 83 83 82 81 75 75 76 75 77 78 74 76
76 80 85 91 92 94 93 91 91 90 90 88 89 90 89 88 86 85 84 83 82 81 76 77 78 77 84 85 84 83 82 82 81 79 72 72 70 76 75 75 75 72 71
72 74 81 91 93 94 94 92 91 90 91 89 89 89 89 88 87 86 86 84 83 80 75 78 76 83 86 84 82 80 80 80 80 72 71 74 74 75 75 72 65 67 68
81 84 92 92 93 95 94 93 92 92 92 88 85 85 88 87 87 87 87 85 82 80 80 77 81 85 87 87 86 86 81 77 74 71 68 70 69 71 70 70 71 69 64
86 92 92 93 91 92 92 93 93 91 87 84 80 82 92 85 86 87 87 85 83 82 83 81 84 83 84 84 82 77 72 73 67 75 72 70 71 73 69 65 68 65 67
87 92 92 91 91 91 91 92 90 90 89 90 92 84 93 91 88 87 86 86 85 86 85 85 84 83 83 81 77 74 73 70 64 71 71 69 73 70 67 66 66 68 68
85 83 95 95 92 93 93 92 91 91 87 87 85 86 89 97 86 87 86 86 87 87 87 86 84 85 80 79 75 72 71 71 64 64 62 67 69 66 66 66 65 68 68
86 91 91 96 93 96 95 92 93 90 89 87 85 90 93 92 82 84 86 88 88 88 87 85 86 84 81 78 73 76 73 71 63 68 68 68 69 63 63 66 66 68 68
92 91 91 96 96 96 97 92 92 89 88 90 90 91 94 97 93 84 89 90 89 88 87 86 86 83 80 77 72 80 70 60 66 69 71 74 66 63 63 66 67 67 67
96 93 91 96 96 97 94 97 95 92 97 98 95 98 95 96 97 94 89 90 90 89 89 87 85 82 71 67 72 70 57 63 67 69 67 73 67 63 65 66 67 67 67
94 95 90 93 95 95 97 98 99 99 99 97 96 97 100 97 94 94 97 97 93 90 87 82 80 72 67 66 67 66 58 65 68 67 71 74 69 64 66 66 67 66 67
92 94 94 91 96 95 95 92 96 98 99 99 97 98 96 98 97 97 97 97 92 88 94 85 82 70 67 62 62 67 59 66 70 73 76 77 66 64 65 65 66 66 66
87 94 94 94 94 94 95 97 96 96 98 98 96 94 95 95 95 96 96 96 85 86 81 80 75 64 64 59 63 63 63 69 69 73 78 80 76 70 65 65 65 66 65
81 88 93 94 95 94 95 94 97 97 96 98 97 94 92 93 94 94 97 95 86 72 73 68 73 58 63 58 64 58 64 67 69 77 79 79 80 75 69 65 65 65 65
79 86 93 94 93 93 94 95 97 98 98 98 98 94 93 91 92 92 97 93 74 63 60 63 67 67 63 60 62 62 61 66 70 74 79 81 79 80 78 71 67 65 65
82 93 94 91 95 90 92 98 99 99 99 99 99 96 93 91 89 94 96 93 75 63 55 67 64 62 68 68 69 68 60 66 69 70 74 77 86 72 79 79 73 69 65
80 93 96 95 95 95 98 98 98 98 99 99 99 99 96 92 88 93 94 92 83 75 68 68 72 65 66 68 64 70 69 64 69 63 71 74 80 82 81 81 80 78 74
83 88 92 94 95 97 98 98 98 99 98 98 98 97 94 92 89 90 90 94 92 83 75 62 68 70 65 62 49 64 71 66 64 70 71 67 71 73 76 77 80 77 81
76 91 92 94 98 97 98 98 98 98 98 98 97 95 93 90 93 92 95 94 92 78 71 66 66 62 67 66 68 70 71 68 66 70 64 68 71 70 73 75 78 77 76
82 87 93 94 96 92 90 90 93 94 94 94 95 94 93 93 91 90 94 95 94 84 75 71 70 73 68 67 64 70 74 66 68 69 72 69 70 69 71 74 77 77 76
80 89 91 94 93 88 89 89 93 93 94 95 92 89 92 91 92 93 94 94 92 82 78 74 69 66 61 75 68 79 88 85 76 70 72 77 75 80 75 77 77 75 75
77 86 88 92 91 88 90 91 92 91 92 85 84 82 82 83 84 82 80 78 78 78 74 77 71 72 75 67 87 85 88 87 87 89 81 72 75 78 83 82 75 75 72
71 84 88 90 86 86 90 87 87 87 80 80 80 83 83 82 74 71 72 71 69 74 76 71 79 82 87 86 80 87 88 95 94 95 94 88 81 76 78 73 70 78 74
70 81 86 89 86 87 88 87 85 83 80 87 77 82 80 75 78 76 65 62 76 74 84 81 83 84 92 91 88 89 86 90 96 95 95 93 89 88 71 71 78 70 67

GFSSE_sfc_rhum_090.txt.gz
RH
94 94 95 94 92 93 94 93 93 92 90 91 90 89 89 88 87 87 86 84 83 83 79 79 83 82 81 80 84 84 84 83 82 79 80 77 77 78 80 81 81 74 79
88 94 96 93 92 93 93 94 93 92 90 91 91 90 89 88 88 87 86 84 83 81 78 78 76 76 78 84 87 86 86 84 83 82 80 74 75 77 78 80 82 79 79
90 91 92 95 92 93 92 92 93 91 88 90 91 90 88 88 87 86 85 83 82 81 77 77 78 80 80 88 88 88 87 87 85 83 81 78 72 74 73 79 81 77 76
86 89 90 95 93 93 93 93 93 89 87 90 90 89 88 87 87 86 85 83 81 81 76 69 78 78 85 87 86 86 86 85 84 83 79 75 68 71 70 68 71 73 73
83 86 85 94 96 94 93 92 93 91 90 91 91 88 88 86 86 86 87 86 84 80 75 72 76 83 86 87 85 84 84 83 83 79 80 77 73 72 70 71 73 75 74
85 85 91 93 96 94 93 92 93 93 92 92 91 89 88 86 85 87 88 86 83 81 79 78 83 86 86 85 85 85 83 81 79 77 77 74 69 70 66 68 70 72 68
96 94 93 94 95 96 94 92 93 94 93 90 89 86 86 89 84 86 88 86 83 82 81 82 84 86 86 86 84 83 83 81 75 76 73 72 71 70 69 65 65 64 65
96 96 93 91 93 96 96 96 95 94 89 87 85 84 86 94 94 86 87 86 85 86 85 86 87 87 88 82 79 82 82 79 73 76 74 76 74 70 70 64 70 67 69
96 97 94 94 94 94 96 96 96 93 90 90 92 87 86 93 94 95 84 86 87 86 87 88 88 86 82 80 81 81 81 78 70 72 70 74 75 71 64 69 67 67 69
95 96 99 96 95 97 98 95 94 94 92 92 93 91 90 90 91 89 92 85 89 88 87 88 87 83 81 81 79 80 80 76 69 70 69 72 74 71 68 66 68 67 64
93 96 99 98 94 95 97 95 92 89 90 89 89 89 94 95 96 95 85 88 89 89 87 89 84 82 81 79 79 79 74 67 68 72 70 75 64 62 68 68 65 66 67
94 95 98 98 96 95 95 96 97 94 94 95 96 96 98 96 96 96 85 92 90 89 88 87 82 81 72 67 68 73 68 67 68 70 68 76 61 63 63 67 64 66 68
94 96 97 98 97 97 99 99 99 99 99 99 98 97 97 96 96 97 98 97 95 90 86 83 76 73 68 71 70 66 70 68 69 65 73 74 71 67 67 65 67 67 69
96 95 97 95 97 97 96 96 99 99 99 99 98 95 99 97 98 98 98 98 91 91 95 96 84 77 72 73 66 68 69 69 72 71 75 69 72 66 66 67 67 68 69
96 95 97 97 95 97 94 95 97 99 97 97 97 97 97 96 95 95 98 96 91 92 89 91 83 74 71 72 68 66 70 74 78 76 76 75 76 70 66 66 67 67 68
90 95 96 97 96 97 97 96 97 98 99 97 97 94 94 94 93 94 96 96 92 82 81 78 80 76 72 72 71 66 70 75 79 82 79 77 80 75 71 66 66 67 67
85 90 96 96 96 96 96 96 98 98 98 98 97 95 93 91 94 93 96 96 84 77 75 71 80 75 71 68 67 70 71 75 79 79 83 81 81 82 78 72 69 67 66
86 93 94 91 96 96 96 98 98 98 98 99 98 96 94 92 92 94 95 94 80 73 67 66 75 70 73 76 74 72 71 74 78 80 82 86 88 80 81 78 74 71 68
88 93 96 97 97 98 98 98 98 97 98 98 99 98 96 93 90 94 96 92 84 72 64 68 80 62 68 76 72 70 73 76 76 73 81 85 86 85 87 84 81 80 75
92 93 95 96 98 98 97 99 99 99 99 99 99 99 95 93 93 91 94 92 82 75 65 71 71 74 72 70 62 71 72 76 76 77 77 72 77 80 84 82 83 81 82
96 96 96 97 98 96 97 98 99 99 99 99 98 96 98 97 96 96 96 93 82 63 66 69 66 64 73 75 75 82 81 75 75 77 76 75 75 76 80 78 81 80 78
96 95 96 96 94 92 97 95 96 96 96 96 97 97 97 97 93 94 92 91 90 66 73 66 65 74 72 69 69 77 85 78 82 76 77 76 78 76 78 78 80 80 78
97 96 95 96 94 92 93 92 95 95 97 96 95 98 97 94 94 94 90 91 89 76 74 63 61 60 63 77 67 82 89 92 83 83 85 77 80 79 76 75 78 78 80
94 93 94 96 97 94 90 92 95 93 96 91 90 91 97 97 94 92 92 90 89 90 78 64 59 59 64 66 84 87 86 86 87 90 81 81 80 79 80 80 78 78 77
91 94 95 96 96 96 87 89 89 89 86 87 88 89 90 94 96 97 91 95 96 95 83 71 76 78 74 84 81 93 92 96 92 89 86 88 82 77 80 81 82 83 77
89 94 97 96 95 95 89 89 86 87 86 91 88 90 88 85 91 90 86 89 90 94 92 87 80 82 86 87 88 89 86 91 94 94 93 91 82 80 76 80 83 80 82

GFSSE_sfc_rhum_093.txt.gz
RH
97 98 95 94 94 94 93 92 92 91 91 91 91 90 89 88 88 88 86 85 84 81 76 80 80 78 79 80 83 85 85 84 83 82 80 78 79 79 80 82 82 79 82
91 91 96 95 94 92 91 93 91 92 90 90 90 89 89 89 89 88 87 87 84 80 75 79 84 82 76 82 86 86 85 85 84 83 82 78 77 77 78 80 82 79 79
96 95 94 95 94 94 91 90 91 91 90 89 89 90 89 89 88 87 87 86 84 76 74 78 81 80 81 86 87 87 86 87 84 84 81 79 73 76 77 79 81 77 78
94 96 94 95 94 94 93 93 92 88 88 90 89 89 89 89 88 88 87 86 82 79 77 76 77 81 85 89 89 88 88 87 86 84 76 70 66 73 74 75 76 75 75
93 96 96 94 94 94 94 94 92 90 91 91 90 88 88 88 87 87 87 87 84 82 78 77 79 84 89 89 88 87 86 87 87 84 82 73 75 72 73 74 75 74 76
94 93 95 96 95 94 93 93 93 92 93 92 90 88 87 87 87 88 88 86 84 79 76 80 83 88 89 88 87 87 86 86 86 88 81 75 68 72 69 69 73 75 77
94 95 95 97 97 95 93 93 94 94 94 94 91 88 88 86 87 89 87 84 82 79 79 84 87 89 88 88 87 86 85 85 81 76 75 72 68 70 69 70 70 68 70
96 96 95 93 95 98 96 95 96 96 96 93 90 89 88 84 85 84 84 85 85 82 83 86 87 89 88 88 86 87 86 82 77 76 73 70 75 68 65 68 68 70 70
97 96 96 96 95 97 99 98 98 95 92 90 90 92 91 91 94 90 90 85 84 84 86 86 86 88 86 85 87 86 85 83 77 77 73 74 74 70 71 70 71 68 67
98 97 98 98 97 98 98 99 98 93 96 93 91 93 95 93 94 94 91 90 86 83 88 85 89 85 82 86 86 86 84 82 77 76 77 76 74 69 71 70 65 68 66
98 98 98 98 98 98 98 98 97 95 93 94 95 93 95 96 94 91 92 93 91 85 89 89 86 83 84 86 85 84 78 73 72 75 77 79 72 71 71 72 70 70 68
97 99 97 99 98 98 95 96 98 94 95 95 97 97 98 95 94 91 87 92 93 92 87 86 85 86 83 80 81 78 74 70 74 75 77 77 72 71 72 69 67 65 71
94 97 100 99 98 98 98 99 99 100 99 99 98 98 98 98 96 96 96 95 96 92 89 88 78 77 78 76 77 78 73 69 74 73 75 77 68 69 69 64 64 68 70
94 94 98 99 99 98 96 99 99 100 96 96 99 98 98 98 97 97 96 97 99 95 88 83 80 70 74 72 73 76 74 71 75 76 74 78 66 62 68 66 66 68 69
95 95 97 99 99 99 97 98 99 99 97 96 99 98 98 98 97 99 97 97 98 92 84 85 76 69 72 72 76 77 80 79 76 75 74 81 79 75 64 66 66 67 68
90 95 97 98 98 98 99 96 97 99 97 98 99 98 95 97 97 98 98 97 98 88 81 76 75 72 77 74 78 78 79 81 78 84 74 74 80 76 69 65 65 66 67
87 90 97 98 98 98 98 97 97 98 99 98 98 98 97 92 95 94 97 97 95 83 80 80 79 73 76 75 77 79 80 82 84 82 88 89 78 81 78 73 69 66 66
89 95 96 95 98 98 98 98 98 99 99 99 97 97 96 94 90 93 96 96 91 86 81 79 75 74 80 79 84 81 82 81 82 85 88 91 92 82 78 78 74 71 68
87 93 97 97 97 98 98 99 99 98 99 99 99 97 94 94 93 94 96 95 89 84 77 74 81 70 82 82 82 85 88 84 83 77 85 89 89 89 90 81 80 78 76
88 92 95 97 98 98 98 99 100 99 99 98 98 99 97 94 94 94 96 94 87 83 78 74 69 76 84 79 70 80 85 92 82 82 81 78 82 85 86 85 82 81 83
95 96 96 98 96 97 98 98 99 99 99 99 99 98 99 96 93 96 96 95 92 72 69 73 67 70 81 82 81 92 91 92 90 84 82 80 81 79 83 83 83 89 82
93 90 94 95 95 90 90 89 91 92 98 97 98 98 97 98 96 93 96 94 89 70 70 74 62 76 82 77 80 85 95 89 84 86 90 86 86 79 79 79 82 87 85
93 92 93 91 92 87 96 99 98 98 98 98 97 98 97 97 97 97 96 93 93 83 80 73 62 62 73 84 70 86 96 96 93 92 94 92 91 91 83 80 81 80 81
96 96 96 88 89 85 97 98 97 98 94 92 93 94 98 95 96 98 93 94 94 85 80 78 66 60 70 73 81 83 86 87 95 95 90 93 91 88 85 84 80 80 78
96 97 92 90 90 88 96 96 98 97 96 97 93 95 98 99 97 95 95 94 91 82 90 88 80 78 75 78 71 91 94 95 89 89 92 94 94 83 80 81 80 81 78
96 94 90 91 90 86 96 96 94 90 90 98 95 95 95 96 99 97 95 96 94 90 96 96 87 83 87 83 82 91 89 88 93 90 90 86 87 88 79 86 89 86 84

GFSSE_sfc_rhum_096.txt.gz
RH
94 98 94 94 93 94 92 92 94 94 93 89 88 89 89 89 89 89 87 85 82 80 80 82 84 84 81 79 82 84 85 84 84 81 81 79 78 79 82 84 84 78 83
95 97 95 94 93 93 92 92 92 94 93 91 90 90 90 90 89 88 87 85 83 81 79 82 84 82 79 82 86 87 86 86 84 84 82 79 77 79 80 82 84 80 83
94 91 96 96 94 92 91 91 91 91 91 91 91 90 90 89 89 88 88 86 82 80 77 81 81 79 81 87 88 88 87 86 87 86 83 79 76 77 78 82 83 82 79
94 90 97 96 95 93 92 92 91 88 90 90 90 90 90 89 89 89 88 86 81 81 79 76 76 81 85 88 88 88 88 87 86 83 78 76 70 75 75 75 76 75 75
98 88 97 96 95 94 94 93 92 90 91 90 90 90 89 89 88 88 89 86 79 78 79 76 79 86 90 90 90 89 88 86 85 79 78 82 76 73 75 76 76 78 78
98 94 92 96 96 95 94 93 92 93 93 92 90 89 88 88 88 89 90 86 83 80 79 79 84 90 91 90 89 89 88 88 88 87 79 77 76 69 73 75 78 79 78
97 97 98 97 96 95 94 94 94 95 95 93 91 88 86 81 79 86 86 84 82 81 82 85 90 91 90 90 89 89 88 87 86 87 76 78 72 68 68 73 76 76 76
95 96 96 97 97 96 94 94 95 96 94 93 90 90 86 86 89 85 84 86 83 82 84 90 91 90 90 89 89 88 87 83 79 77 74 75 74 70 68 68 73 74 71
96 97 97 96 97 98 98 97 98 95 96 94 94 90 89 90 88 84 85 86 87 85 88 90 90 90 89 89 89 88 87 85 83 80 73 71 73 69 68 69 72 66 65
98 97 98 98 98 99 99 99 97 96 94 94 94 92 87 85 84 82 83 85 89 88 88 90 92 90 90 89 88 88 88 86 84 83 76 72 74 69 70 66 70 69 63
99 98 98 98 98 98 98 99 97 96 96 94 96 96 93 94 94 90 88 86 86 81 83 90 90 88 90 89 88 87 83 84 83 85 79 80 72 69 68 63 63 68 74
98 100 98 98 99 99 99 99 97 96 95 94 96 96 98 98 98 95 89 91 80 85 88 89 87 89 86 87 87 82 83 81 83 85 79 79 72 68 69 70 73 74 74
97 99 96 99 98 99 100 99 99 99 98 98 97 98 98 98 98 98 98 99 98 88 93 94 85 83 88 86 85 85 82 83 81 79 79 80 75 69 71 69 73 74 75
96 96 93 96 99 98 99 99 99 99 98 98 99 98 99 98 98 97 98 98 96 96 99 95 84 87 86 83 80 82 81 82 84 80 79 82 77 71 69 68 74 74 74
93 95 98 95 97 98 98 99 98 99 97 95 99 98 97 98 98 97 96 98 96 96 98 92 87 82 81 79 80 78 79 80 81 80 84 80 79 75 67 71 70 73 73
86 93 97 97 96 95 99 98 98 99 96 96 98 98 98 97 98 98 98 98 97 98 98 91 82 78 78 77 80 79 82 78 82 84 82 73 81 79 74 70 70 73 71
85 91 96 98 99 99 99 98 98 97 96 97 97 97 98 97 97 97 99 98 98 98 97 89 82 80 83 79 82 80 81 87 88 84 82 83 80 81 80 76 73 70 69
90 93 95 95 99 99 99 99 99 99 98 98 98 98 98 96 96 97 97 98 98 97 95 84 77 79 82 83 88 89 86 86 88 87 84 83 85 76 78 79 75 72 69
89 94 96 98 98 99 98 99 99 99 99 99 98 97 96 96 95 96 97 98 97 95 88 83 83 77 83 87 87 94 92 92 87 81 85 86 85 85 84 79 79 79 76
92 93 95 97 98 99 99 99 99 100 99 99 99 97 95 95 94 95 97 97 92 91 83 78 77 79 81 84 76 89 95 94 92 92 88 80 85 85 84 83 79 80 83
95 96 96 97 98 97 98 98 99 99 99 100 99 97 98 94 96 95 97 96 94 88 85 77 76 82 87 80 87 91 95 94 91 91 90 88 85 84 86 85 81 82 79
94 94 96 90 93 92 95 89 92 93 98 98 99 97 97 98 96 95 97 96 95 92 86 75 70 80 86 80 84 88 96 91 89 87 90 86 89 84 84 84 84 84 83
96 95 94 88 90 89 87 91 97 98 98 98 99 99 98 98 96 95 95 94 95 92 91 79 68 68 80 87 78 90 98 97 95 92 92 90 91 90 85 85 86 84 84
94 92 90 87 90 86 90 94 93 92 97 96 98 98 98 97 97 97 98 94 95 95 94 83 65 65 74 82 80 82 86 89 96 97 91 91 91 90 90 89 83 82 82
93 86 86 87 90 88 93 97 98 98 90 88 98 96 98 97 96 98 97 94 93 91 88 84 73 70 72 79 79 92 91 93 90 91 96 97 95 87 83 86 83 83 82
89 84 88 89 90 88 93 97 96 97 94 98 97 97 93 99 98 98 97 96 95 93 93 89 78 70 80 82 88 86 88 86 90 87 88 91 91 88 83 82 84 83 83

GFSSE_sfc_rhum_102.txt.gz
RH
44 42 87 88 91 91 94 94 92 92 90 88 90 90 90 90 91 90 90 90 87 83 80 80 82 79 78 77 81 84 86 86 85 83 82 80 79 79 79 81 76 59 83
40 46 89 88 92 90 92 94 93 91 90 89 90 91 90 91 91 90 89 89 85 83 79 80 82 81 79 83 87 88 88 88 87 85 83 80 80 76 76 80 77 69 83
46 48 65 84 93 90 90 92 93 90 90 90 91 91 91 91 90 89 88 88 84 83 79 80 80 80 82 87 89 88 88 88 87 86 80 55 59 79 82 85 85 83 83
41 48 54 86 93 90 92 94 94 91 90 91 91 91 91 90 89 89 89 88 85 83 81 80 80 82 86 90 89 88 88 89 88 83 62 54 57 79 79 80 82 80 79
41 43 54 89 94 92 90 94 94 93 93 92 92 91 90 90 87 89 87 85 84 82 80 78 80 85 91 91 91 90 90 87 84 69 50 56 58 69 77 78 79 79 76
42 44 81 95 95 93 91 91 94 92 91 94 92 91 90 89 84 83 83 80 77 80 80 80 85 91 92 92 91 89 87 84 85 45 48 58 58 75 75 79 82 82 81
49 50 69 96 95 94 92 91 92 94 90 90 92 91 89 84 81 80 81 82 80 78 79 82 87 91 92 92 90 88 85 83 41 38 42 48 64 77 76 78 80 83 82
59 62 64 90 95 93 94 94 94 94 93 89 92 88 79 82 87 85 86 87 86 84 79 83 81 89 92 92 91 88 85 83 44 36 38 53 74 74 74 77 79 81 79
62 69 69 72 80 96 93 94 95 95 94 94 92 91 86 88 88 87 87 87 85 83 82 89 90 94 93 94 91 89 86 78 39 39 36 51 76 74 75 75 75 76 74
65 68 68 67 70 73 75 95 95 96 95 93 92 93 93 92 91 90 90 87 85 81 80 87 92 93 94 94 93 88 86 79 42 40 39 58 76 71 72 73 73 73 72
62 63 66 63 68 70 69 76 95 96 95 95 90 93 91 65 67 70 72 87 87 87 87 86 94 89 96 94 93 88 84 43 44 38 50 79 75 68 67 71 72 71 71
62 61 58 62 60 68 64 74 74 73 79 80 71 68 62 60 60 54 66 92 88 87 88 82 81 96 95 76 64 82 45 51 42 47 59 83 76 69 70 70 73 72 72
49 57 57 62 62 63 57 76 86 91 88 85 86 78 77 74 70 60 60 61 63 86 78 76 93 95 87 79 66 64 54 49 37 46 68 84 77 71 71 67 70 72 75
45 58 65 62 66 68 52 68 71 94 92 88 89 93 89 81 85 87 79 70 80 70 78 90 97 92 81 67 62 61 51 42 39 52 64 84 79 71 67 69 72 74 75
44 55 71 68 65 63 64 63 77 87 90 80 87 92 91 78 82 86 82 82 69 87 93 97 96 90 74 70 61 54 49 44 42 43 56 86 82 75 68 69 71 72 73
38 46 58 66 69 60 60 62 59 64 79 84 84 89 90 81 86 90 87 80 87 82 92 95 95 96 78 68 58 51 49 46 45 45 54 60 85 80 77 70 70 70 70
32 40 56 69 69 65 62 60 56 50 69 79 88 89 85 85 83 87 86 87 84 90 97 97 96 95 93 67 56 50 48 48 43 42 46 58 63 85 81 77 74 70 71
27 37 48 60 68 76 64 58 52 53 63 66 75 83 85 81 75 77 81 88 87 95 96 98 98 96 94 73 60 51 46 45 46 44 38 49 52 47 78 81 79 76 74
26 35 46 61 69 82 79 62 60 77 78 72 72 76 76 71 71 76 83 92 94 98 97 96 97 95 93 73 58 53 48 44 47 42 44 44 54 49 54 80 83 82 80
27 37 44 54 66 82 85 64 58 84 82 80 85 70 72 72 72 74 79 97 97 97 98 98 97 95 93 68 54 53 52 46 46 47 51 39 49 58 54 56 64 65 85
26 37 45 55 63 80 82 75 80 91 90 80 86 77 75 77 78 81 85 93 94 94 96 96 97 96 97 84 71 71 70 58 57 58 57 44 43 55 53 53 54 48 58
24 38 44 48 56 69 63 60 61 73 80 74 82 75 73 79 85 84 90 92 94 93 94 95 96 98 96 87 80 69 90 85 70 63 57 54 48 41 46 47 50 44 43
25 34 41 44 51 62 55 53 61 69 80 82 80 88 81 76 88 91 89 92 96 93 91 93 93 90 93 90 79 64 87 85 79 67 65 58 55 45 43 46 48 50 50
23 30 38 42 48 58 57 59 70 66 69 63 67 76 82 78 84 93 94 92 93 95 94 86 82 88 77 78 71 58 54 55 69 79 65 63 64 58 53 44 46 48 48
19 31 41 44 47 56 59 61 64 60 55 55 62 74 71 67 71 80 97 93 94 94 92 90 85 82 78 72 68 66 62 62 56 52 63 72 67 58 48 53 49 48 49
18 31 47 48 50 57 65 63 64 64 60 58 64 61 62 68 63 67 72 94 94 92 93 92 87 83 81 73 63 64 63 71 66 63 51 61 65 56 53 52 55 51 50

GFSSE_sfc_rhum_105.txt.gz
RH
28 46 90 90 91 91 93 92 92 92 92 91 91 92 92 92 92 92 92 90 88 85 82 82 81 81 79 79 80 87 88 88 87 85 83 80 78 76 78 81 76 64 84
28 44 90 92 90 89 90 92 92 93 92 90 91 92 92 92 92 92 92 90 87 84 81 80 80 79 79 81 88 89 89 89 88 86 84 80 80 75 75 81 78 74 85
34 44 62 93 91 91 90 91 92 92 90 90 91 92 92 92 91 91 91 89 85 84 80 80 78 79 81 87 90 90 89 89 88 85 80 57 62 80 82 86 86 85 84
27 44 50 94 92 91 93 94 93 91 90 91 91 91 90 91 91 90 89 87 83 81 80 78 79 81 86 90 90 90 89 89 87 84 61 62 60 81 80 82 84 83 81
26 34 51 90 93 91 93 94 94 92 92 92 91 91 91 90 88 85 89 87 80 81 78 78 80 86 92 92 91 90 89 88 86 71 59 63 59 73 79 81 82 81 79
26 29 83 92 93 90 92 94 94 95 94 93 92 90 90 89 84 85 85 86 82 79 80 79 80 87 93 93 93 91 88 87 90 49 65 61 59 76 78 80 84 83 82
31 35 68 94 94 92 90 92 94 94 93 92 91 91 90 85 86 85 85 83 83 80 79 82 86 92 94 93 95 91 88 87 54 81 51 56 65 77 78 80 83 82 81
41 45 62 90 94 94 92 91 94 93 91 92 93 91 85 85 86 84 84 84 83 82 81 86 89 92 93 94 93 91 90 91 56 58 62 60 79 77 77 80 83 82 80
48 56 66 71 79 96 94 94 94 95 93 90 90 90 86 88 88 87 86 83 83 83 85 87 87 93 95 94 91 93 89 85 56 49 56 58 81 77 76 77 77 77 78
54 60 62 66 69 72 74 95 95 94 95 94 93 94 91 91 89 90 88 87 85 83 84 86 90 96 96 95 92 89 88 82 43 53 53 57 81 75 74 75 75 74 73
52 56 59 58 59 63 68 75 93 96 95 95 90 94 91 67 72 72 74 86 88 87 87 88 88 97 97 96 94 92 86 44 44 63 48 82 79 73 74 74 74 73 72
48 51 49 53 53 57 63 70 69 68 66 66 65 70 68 60 64 60 66 88 88 88 86 85 84 95 94 96 96 88 60 60 56 62 53 83 76 71 73 73 73 72 72
34 40 44 52 53 57 57 59 55 60 70 68 69 72 72 67 71 62 73 60 63 87 63 67 76 78 91 93 88 65 67 64 58 51 69 84 76 70 70 72 72 72 73
30 37 40 45 54 57 44 55 69 62 63 62 68 73 80 80 82 77 68 66 66 73 66 77 81 90 94 91 84 65 58 57 63 57 72 85 80 73 69 70 71 72 75
25 33 43 44 53 54 56 51 53 59 67 70 67 71 73 73 76 74 73 70 63 74 73 83 88 94 94 91 86 66 60 53 59 56 64 86 83 78 69 68 70 73 75
22 29 41 50 54 53 54 57 57 62 68 68 70 66 72 75 76 71 75 71 77 84 90 85 90 94 94 93 83 65 60 44 53 56 54 63 86 81 75 71 71 71 71
16 22 44 58 57 56 56 54 52 48 55 79 82 73 74 72 74 75 80 83 85 84 83 90 92 96 96 97 76 70 54 42 43 56 56 55 68 86 82 78 76 72 70
13 20 34 46 57 60 54 51 48 44 49 66 74 72 76 76 72 76 81 81 76 89 92 95 96 96 97 97 86 66 49 46 44 49 49 53 58 53 80 82 81 78 77
12 18 29 46 58 62 56 52 52 51 50 48 63 65 72 75 72 74 78 74 77 79 96 96 98 94 96 98 91 53 56 49 44 34 53 53 55 59 54 82 85 84 82
12 19 26 41 57 62 58 55 50 50 65 56 57 59 64 64 74 72 78 74 77 92 96 97 97 96 94 95 87 63 56 55 41 45 39 45 59 64 50 58 64 67 85
15 22 28 41 55 61 74 58 52 64 82 77 76 66 62 59 66 75 76 90 91 96 97 97 97 98 99 96 92 86 75 72 62 59 51 38 45 51 48 64 57 54 62
18 22 29 34 46 57 65 53 46 66 75 63 74 65 65 58 66 70 79 88 92 94 97 98 97 98 99 97 90 76 89 82 72 64 56 50 52 45 52 61 63 54 52
18 22 24 33 40 52 57 50 50 60 69 70 72 68 70 64 72 74 77 86 92 92 95 96 96 96 96 98 78 68 89 89 73 68 67 54 54 47 46 51 54 46 46
20 22 22 29 34 43 55 50 56 53 65 64 67 69 64 71 71 74 82 90 89 94 95 93 87 96 95 95 92 91 77 81 80 78 69 72 62 51 51 46 45 46 43
17 22 26 26 31 39 51 50 51 56 56 54 56 66 73 66 66 78 86 81 92 92 93 92 88 92 94 91 87 90 83 74 67 60 67 77 70 65 47 48 43 45 47
18 21 26 29 31 37 50 54 56 61 53 51 54 64 74 73 71 66 84 91 89 90 92 94 90 89 85 84 84 76 68 71 69 64 57 67 74 66 59 49 52 48 47

GFSSE_sfc_rhum_108.txt.gz
RH
48 70 92 92 91 92 92 93 93 92 93 92 92 93 93 93 93 93 93 91 88 86 83 82 85 83 80 80 86 89 90 89 88 86 84 81 78 77 81 84 81 76 86
49 64 93 92 92 92 92 92 93 93 93 92 93 93 93 93 93 93 92 90 88 86 82 82 84 83 81 84 90 90 90 90 89 86 84 82 80 76 79 83 84 83 87
52 69 75 93 92 92 91 92 92 93 92 92 92 93 93 93 93 93 92 90 87 83 83 81 80 80 82 89 91 91 91 90 89 84 80 73 78 81 84 88 87 87 85
48 59 72 94 92 92 93 94 94 93 92 92 92 93 92 92 91 90 91 89 84 81 80 77 79 82 87 91 92 91 90 89 87 84 80 78 73 82 82 84 85 84 84
43 47 69 93 92 93 94 95 94 93 93 93 92 92 92 90 88 89 89 88 83 82 81 75 79 88 92 93 92 91 89 86 85 77 82 81 79 79 80 82 84 83 82
36 45 91 94 92 93 94 95 95 94 94 95 93 92 91 88 85 89 89 87 84 82 82 81 84 92 93 93 92 90 88 86 87 70 77 78 77 80 79 83 86 85 84
53 73 78 94 92 92 93 95 95 95 95 95 94 93 92 88 88 88 88 88 85 84 85 84 90 93 93 93 91 90 89 89 71 83 66 75 82 78 81 82 85 85 82
69 74 82 92 93 92 92 94 95 96 94 90 87 92 92 90 90 88 88 88 86 85 86 88 93 94 94 94 92 91 90 92 80 84 80 81 83 80 80 81 84 84 83
64 79 84 84 86 93 92 93 95 94 92 83 84 93 91 92 91 88 87 86 85 85 85 90 93 94 97 95 94 94 91 92 86 89 78 80 83 79 80 79 79 80 80
69 78 82 82 84 87 90 94 95 95 94 92 91 94 94 93 91 89 88 85 84 84 84 89 96 97 96 96 95 96 95 91 79 85 85 79 82 78 77 77 78 76 77
67 72 78 76 78 82 81 85 96 94 96 94 93 95 97 85 86 86 81 86 85 82 87 92 97 96 96 96 95 93 94 81 79 67 73 86 81 75 76 77 77 75 75
65 68 66 70 72 75 64 83 84 83 84 86 85 88 89 85 84 71 76 90 87 87 88 94 96 95 92 98 97 94 90 80 84 70 76 86 80 74 76 77 75 73 74
53 58 60 69 71 70 69 77 75 77 80 81 82 87 90 82 88 87 93 84 88 91 91 91 93 89 93 96 98 97 89 85 87 72 82 86 80 74 75 75 73 72 74
43 49 52 61 71 74 65 72 72 71 79 82 83 85 90 89 90 90 93 87 83 82 87 82 86 94 94 92 91 89 86 84 88 67 80 86 80 75 73 72 72 72 74
36 45 51 57 67 69 74 69 75 82 79 78 82 83 88 90 92 90 90 90 87 92 92 92 90 96 94 94 93 89 82 83 76 74 75 87 84 78 72 70 71 72 75
30 41 52 54 66 66 68 75 74 76 80 83 83 82 84 90 92 92 92 92 87 92 93 94 94 96 96 95 94 91 88 80 72 70 78 84 87 83 76 71 71 72 73
21 32 55 60 68 69 70 72 72 72 75 81 80 79 83 84 88 88 91 90 90 95 93 95 96 96 97 96 94 92 92 84 72 64 72 80 85 86 84 78 76 76 72
16 23 53 54 65 70 69 68 64 67 72 76 84 86 77 82 84 88 91 91 91 96 96 97 97 98 98 98 97 95 94 82 67 67 66 73 76 72 87 85 82 79 78
14 24 56 66 67 71 71 67 69 72 72 78 82 82 83 81 83 86 88 90 91 95 97 97 97 95 98 98 97 95 97 72 70 60 67 70 74 73 77 88 86 86 82
14 26 52 64 68 74 70 68 66 73 71 71 72 76 79 76 83 86 89 89 88 95 98 97 95 96 94 95 95 97 99 68 56 63 63 66 70 69 70 79 86 84 86
24 29 43 63 70 71 70 69 68 71 77 80 74 71 77 76 81 86 90 89 91 96 95 97 97 98 99 94 99 100 96 86 69 63 72 67 73 69 73 74 80 78 85
26 32 39 55 67 66 67 65 65 68 81 80 86 80 76 77 81 84 90 94 94 96 99 99 98 98 99 98 97 97 98 87 82 68 71 69 65 64 66 73 72 71 75
32 38 33 42 63 65 70 67 64 78 84 82 81 80 77 77 78 84 90 93 95 94 97 98 97 97 99 99 94 93 97 96 89 84 80 76 72 64 67 70 73 68 69
35 39 32 36 48 60 70 68 69 77 85 80 77 74 75 78 78 85 88 91 92 94 96 95 92 97 98 98 98 95 87 79 92 97 87 85 79 71 72 69 69 66 64
32 36 44 35 38 52 66 64 66 71 73 76 73 78 79 80 81 81 88 90 94 94 94 94 93 98 97 96 97 99 96 95 88 89 94 92 84 77 75 66 62 66 58
34 36 41 40 35 44 64 68 66 70 70 73 74 81 81 77 82 85 86 91 93 91 95 94 92 94 94 98 97 97 93 93 90 82 79 85 83 79 75 77 72 68 65

GFSSE_sfc_rhum_111.txt.gz
RH
81 88 91 91 92 93 94 92 93 94 94 93 93 93 92 92 92 93 92 92 90 87 83 82 85 84 82 80 86 90 90 89 85 84 84 82 79 79 84 88 86 81 87
81 88 93 92 92 92 94 93 92 94 94 93 94 94 93 93 93 92 92 91 89 86 83 82 85 82 83 86 90 91 91 90 88 85 83 82 82 79 82 88 88 86 87
81 88 87 93 92 92 91 93 93 94 93 93 94 94 93 93 93 92 92 92 90 87 82 81 80 82 86 89 92 91 91 90 88 86 85 83 79 83 84 89 89 88 86
80 85 89 93 93 92 93 93 95 94 93 93 94 93 93 93 92 92 91 91 87 85 83 79 81 84 89 92 92 91 90 88 87 87 88 85 78 83 83 85 85 85 84
71 82 87 93 93 94 94 95 96 95 95 94 94 93 93 92 91 91 91 90 86 84 82 78 83 89 92 92 92 91 89 88 86 81 93 91 83 79 82 83 85 85 84
64 78 95 94 94 94 95 96 96 86 93 95 95 93 92 90 90 91 91 89 86 85 82 82 88 93 93 92 91 90 89 88 92 88 90 83 81 81 82 83 87 86 86
81 88 91 94 94 94 96 96 96 92 93 96 95 94 93 90 90 90 90 89 86 86 86 88 93 93 93 92 91 90 91 92 86 91 86 90 84 81 81 82 85 84 85
86 90 91 92 93 95 96 96 96 96 96 96 95 95 93 91 90 90 91 89 87 88 88 92 94 93 93 91 93 93 93 92 86 89 94 92 87 80 80 82 85 85 84
89 93 97 95 92 94 96 97 98 97 94 86 85 94 94 93 92 89 90 90 88 88 89 93 94 94 93 94 94 95 97 95 92 97 89 94 85 80 81 82 82 82 82
94 95 97 97 97 97 97 96 97 96 93 88 84 90 95 94 92 91 90 89 88 86 89 92 95 96 96 94 94 95 96 93 94 96 96 91 85 78 80 79 79 78 77
94 95 95 96 97 97 96 94 96 95 94 94 93 96 99 97 95 90 91 90 90 88 89 96 97 96 95 94 93 92 92 93 92 97 98 88 84 77 78 78 79 78 74
92 96 92 94 95 95 85 96 98 95 99 98 97 97 98 97 96 88 88 90 88 87 93 96 96 96 94 97 97 93 88 85 91 94 90 89 82 76 77 77 78 76 76
79 86 88 88 90 92 87 98 98 99 99 98 96 97 97 96 96 95 97 94 96 89 98 98 98 98 97 98 98 94 90 90 94 95 84 88 81 76 75 75 74 74 75
74 77 80 83 84 86 84 94 93 95 95 96 96 96 98 98 98 97 98 98 97 97 98 99 99 98 97 97 96 93 88 94 97 95 85 87 82 78 73 73 72 73 72
65 68 73 76 78 78 80 89 90 90 92 93 96 94 96 97 97 97 98 98 97 98 97 98 97 97 98 96 94 90 89 87 93 96 97 90 86 81 74 71 72 72 73
55 61 65 68 74 74 78 86 84 93 92 97 96 92 95 97 97 97 97 97 98 97 97 96 97 98 98 97 97 94 91 89 90 91 91 86 89 84 79 74 71 71 72
41 52 62 67 76 72 75 84 83 88 92 95 96 94 94 96 96 96 98 98 97 98 97 98 98 99 99 98 95 96 93 92 91 85 83 86 86 88 85 79 76 76 74
22 49 57 61 71 74 68 82 80 83 91 95 96 95 88 90 94 96 97 97 98 98 98 98 98 98 98 97 97 98 96 96 95 82 82 83 86 78 86 86 83 79 79
15 34 57 65 72 76 74 78 81 88 89 92 96 96 87 86 93 94 96 97 94 98 98 98 99 95 96 98 98 98 98 98 97 78 81 86 90 88 90 89 87 87 84
15 34 55 65 73 73 77 80 78 91 91 90 93 93 91 82 93 96 96 96 97 97 98 99 98 99 96 97 96 96 96 98 98 79 81 78 82 86 90 91 88 88 88
19 37 64 68 75 76 78 78 80 87 92 94 92 88 87 89 93 96 97 96 96 97 97 97 98 98 99 98 98 98 98 99 99 84 76 82 80 81 86 91 92 89 87
20 26 69 70 77 72 70 70 78 91 95 93 93 91 88 90 92 94 95 96 95 98 99 98 97 99 97 97 98 96 100 100 96 84 81 84 82 80 82 86 87 87 87
30 28 65 70 78 74 72 83 90 94 94 96 96 96 92 87 92 93 95 96 96 95 97 98 96 94 97 98 94 97 99 99 91 89 84 81 85 83 82 80 81 80 84
37 38 49 72 75 74 76 74 78 84 92 90 95 94 95 92 90 93 95 96 97 96 95 96 94 95 96 98 99 98 93 73 83 96 91 84 77 75 80 86 81 76 77
62 66 63 53 74 72 74 73 77 88 92 96 96 93 93 92 92 94 96 97 96 97 94 93 95 96 94 98 97 97 97 95 95 92 90 94 87 82 74 81 82 77 72
64 64 66 68 59 78 78 77 75 82 90 89 91 89 91 90 92 95 95 95 92 95 96 94 93 96 95 96 97 94 91 89 95 95 96 97 90 88 82 82 81 76 72

GFSSE_sfc_rhum_117.txt.gz
RH
90 95 94 94 94 94 94 93 93 92 91 91 92 92 91 92 92 92 92 92 89 86 82 82 86 85 81 78 82 82 85 87 89 87 85 82 80 82 85 89 87 83 86
83 94 95 94 94 94 94 93 93 93 91 91 93 94 93 92 93 93 93 92 89 84 82 83 84 82 82 83 88 89 89 91 91 88 85 82 81 79 84 89 89 86 87
86 92 92 94 93 93 93 93 93 93 91 91 92 93 93 93 93 93 93 92 89 85 82 84 84 84 85 88 90 91 92 92 90 89 86 87 81 79 85 89 89 87 85
87 92 92 94 93 93 94 94 93 91 91 92 92 92 93 93 93 94 94 94 90 87 82 83 84 84 89 92 92 93 93 93 93 91 96 92 80 81 84 85 85 84 84
88 90 92 95 95 94 94 95 95 94 94 94 93 92 92 92 92 94 95 95 91 87 83 81 82 88 93 92 93 93 92 93 93 92 97 93 82 78 82 84 86 86 87
90 89 95 95 95 94 94 94 95 95 95 95 95 92 92 92 92 93 92 92 91 88 85 82 87 92 93 92 92 92 92 92 92 97 97 89 86 79 82 87 89 89 88
95 94 94 95 94 93 94 95 96 96 96 95 95 94 93 93 93 92 91 90 90 90 90 93 93 93 93 92 91 94 92 91 95 97 97 95 92 80 83 84 87 87 87
95 96 94 95 95 94 95 96 97 97 96 96 96 95 94 94 94 92 91 91 91 92 94 95 93 93 92 92 94 94 92 89 91 97 95 93 83 82 81 83 86 85 84
94 96 97 96 96 97 98 98 94 94 97 97 96 96 95 95 94 93 92 91 91 92 94 94 93 93 92 93 96 94 94 91 95 97 92 94 82 86 91 84 82 84 85
97 96 98 98 98 98 98 98 96 95 98 97 97 97 96 95 95 94 94 92 91 92 93 94 94 94 93 97 95 94 94 91 96 95 97 96 83 85 86 84 82 83 83
97 98 98 98 99 99 95 98 98 97 97 98 98 97 98 97 96 95 96 93 91 93 94 95 95 95 98 97 97 95 92 95 96 98 98 92 85 80 83 83 83 82 82
97 98 98 98 99 99 94 93 94 93 97 97 97 98 98 98 98 96 96 94 92 93 95 96 96 97 98 99 99 96 99 97 97 96 92 91 85 82 86 84 81 81 81
87 94 98 97 98 98 98 94 94 92 98 99 97 98 99 99 99 99 99 99 98 95 99 98 99 100 98 99 99 98 96 96 98 97 95 90 84 80 80 80 79 78 78
92 87 92 94 96 97 98 96 94 90 93 96 98 99 99 99 100 99 99 99 99 99 99 99 97 99 97 96 96 96 95 97 99 98 96 94 87 82 77 76 76 74 74
90 85 89 92 92 93 97 98 99 96 94 93 95 98 98 97 98 99 99 99 99 99 96 96 97 99 98 97 97 96 96 95 96 99 98 96 94 86 81 74 73 70 70
84 88 90 94 92 92 94 96 96 98 98 99 99 98 98 98 99 99 99 99 99 98 99 97 99 99 98 98 98 96 95 96 95 96 98 98 98 94 86 78 73 69 70
80 83 94 91 90 92 90 94 93 94 96 97 98 98 97 98 98 98 98 98 98 98 98 99 99 99 99 99 98 97 96 95 96 96 98 98 96 99 97 84 78 75 72
78 83 89 85 92 92 89 94 92 94 95 93 97 97 97 97 97 98 98 98 98 99 98 99 99 99 99 99 99 99 99 98 97 98 98 98 96 95 98 93 84 80 78
64 73 85 88 92 94 89 92 92 95 95 94 97 97 96 96 96 98 98 98 98 98 98 98 98 95 98 98 97 99 99 99 98 96 97 97 97 98 95 93 88 86 83
48 66 73 84 87 90 87 94 98 99 98 98 97 97 96 94 96 97 98 98 98 99 98 99 98 97 96 96 94 97 98 98 98 98 96 95 97 97 95 95 91 90 88
27 40 74 84 84 89 92 98 98 98 98 98 97 95 96 94 96 98 98 98 98 97 97 98 98 98 99 98 99 99 99 98 97 97 98 97 98 95 95 97 96 98 92
85 62 67 77 79 84 82 84 87 88 96 96 98 97 95 96 96 97 97 98 98 96 98 98 98 99 99 98 99 98 100 100 98 98 98 98 97 95 95 96 97 97 96
84 86 85 86 76 80 78 85 99 98 99 100 99 95 94 94 96 95 96 97 98 97 97 97 97 97 99 99 96 96 100 99 96 97 99 98 98 98 93 94 97 96 95
81 80 80 80 92 90 88 90 94 90 95 91 88 88 93 92 94 95 95 96 97 97 97 96 95 96 96 98 99 98 94 92 99 100 98 98 97 95 94 96 97 96 90
79 82 81 81 84 84 88 91 95 95 94 96 96 94 96 96 93 95 96 97 97 97 95 95 92 97 96 95 96 99 97 97 97 97 99 100 98 96 92 92 94 95 91
76 78 78 80 82 83 88 90 94 94 95 98 99 98 96 97 97 96 96 97 96 98 98 98 97 96 96 96 96 97 95 96 96 96 99 96 95 98 95 91 93 91 90

GFSSE_sfc_rhum_120.txt.gz
RH
90 95 94 95 94 93 93 92 92 92 91 92 93 92 91 91 91 92 92 92 89 86 81 81 86 84 82 79 82 83 86 88 86 84 85 82 81 82 84 88 87 80 86
86 93 94 95 94 93 92 92 92 92 91 91 92 92 92 92 92 93 93 91 89 85 81 81 85 84 80 84 87 88 89 90 88 87 85 82 80 79 84 88 88 83 86
89 92 93 95 94 93 91 92 91 91 91 92 91 92 92 92 92 93 93 91 88 85 82 83 82 80 82 88 90 90 92 92 89 87 87 83 80 81 85 89 89 88 85
88 92 93 95 94 93 92 92 91 90 90 92 92 92 93 93 93 94 94 92 89 86 82 83 82 82 87 91 92 93 93 93 92 93 94 89 80 81 84 86 86 85 84
91 92 93 95 94 94 94 93 92 91 91 92 92 92 93 93 93 94 95 93 90 87 82 78 82 88 92 93 94 94 94 94 94 93 95 91 88 80 83 84 85 87 87
93 93 96 96 95 94 94 94 94 93 93 93 92 93 92 93 94 95 96 92 90 87 79 79 86 92 92 93 94 94 93 94 94 95 94 88 89 80 82 86 89 88 87
95 96 96 96 95 93 93 94 94 94 94 93 93 93 93 93 94 94 94 94 92 89 87 90 93 92 92 93 93 93 94 92 94 97 94 94 90 81 83 87 87 88 87
95 97 95 96 95 94 94 95 96 95 94 94 94 94 94 94 94 92 92 92 94 92 94 94 93 92 92 92 94 93 93 91 92 96 94 94 88 81 82 83 86 86 86
98 97 97 96 95 96 98 98 98 96 96 95 95 95 95 95 94 92 92 92 93 94 95 93 92 93 92 94 94 92 93 91 95 96 91 94 82 86 93 86 84 86 86
99 97 98 99 98 98 98 98 98 98 97 97 96 96 96 96 95 94 93 92 92 93 94 93 93 93 94 95 94 94 95 92 93 93 94 92 82 81 84 90 90 84 82
99 99 98 95 92 92 92 97 96 97 98 98 97 97 98 97 96 95 95 93 93 94 94 93 94 94 97 95 95 92 92 96 95 96 96 87 83 84 83 85 82 84 84
98 98 96 94 90 91 86 90 95 94 98 97 97 98 99 98 98 97 96 94 93 94 96 95 95 97 97 98 99 95 97 94 95 96 93 90 84 78 83 86 85 84 82
86 95 94 94 90 90 86 85 88 87 98 99 99 99 99 99 99 99 99 98 98 96 99 98 99 98 99 99 99 99 98 95 97 97 95 93 83 81 82 85 83 81 81
92 92 96 97 97 95 88 85 84 89 92 97 99 99 98 99 99 100 99 99 99 99 99 100 96 99 98 98 97 96 95 96 97 97 96 96 88 82 80 81 79 78 80
92 90 95 96 97 97 97 87 85 85 92 87 98 98 96 98 96 99 99 99 99 99 99 99 98 99 98 98 97 95 94 95 95 98 98 97 96 84 84 79 75 74 73
90 85 93 95 95 96 97 95 89 86 88 87 87 91 92 94 96 98 99 99 99 99 97 96 95 99 99 97 97 96 94 94 93 95 97 97 99 92 87 88 77 73 71
86 80 93 93 95 96 95 96 98 96 91 91 91 89 90 90 94 97 98 99 99 99 99 98 99 99 99 98 97 98 96 92 94 95 96 97 98 99 92 88 90 78 73
80 89 91 83 93 95 93 95 95 98 98 98 99 96 92 92 95 99 98 99 99 99 99 99 98 98 99 99 99 98 98 96 95 95 95 97 97 96 98 97 93 87 78
76 82 94 90 92 93 92 96 96 97 98 98 98 98 97 97 97 98 98 99 99 99 98 98 97 96 98 98 99 98 98 98 97 96 97 97 97 97 96 98 98 93 83
60 72 81 90 90 91 92 96 98 99 98 98 98 97 97 97 97 98 99 99 98 98 99 99 97 98 97 95 95 96 99 99 98 99 98 96 96 96 96 97 97 95 89
47 35 84 91 93 94 93 97 94 93 96 97 97 95 97 96 97 98 98 98 98 97 97 94 98 98 99 97 99 99 99 97 98 97 98 97 97 97 98 98 97 93 87
85 87 81 86 94 96 90 89 90 91 93 94 95 97 96 96 97 97 97 98 97 97 98 97 98 99 99 98 99 98 100 99 99 97 96 97 97 96 98 98 95 93 91
86 88 84 89 94 94 88 91 99 98 99 99 99 98 97 95 96 96 97 97 98 95 97 98 97 97 98 98 96 95 99 98 99 99 94 98 98 98 97 98 96 93 92
84 81 83 83 88 91 93 93 93 92 92 90 91 94 95 95 96 95 96 96 96 94 97 96 95 96 95 97 98 97 92 92 98 99 99 98 98 97 97 98 97 94 92
79 81 81 76 83 88 92 94 96 95 95 97 97 95 95 98 96 96 96 97 97 95 94 96 97 96 95 95 95 99 98 98 96 98 99 99 98 97 95 96 97 96 94
75 77 78 74 75 83 89 91 95 96 97 98 98 98 97 98 98 97 96 97 97 96 96 94 94 95 96 95 96 96 96 98 97 98 98 98 97 98 97 96 97 94 93

GFSSE_sfc_rhum_123.txt.gz
RH
63 64 94 94 93 92 91 91 92 94 94 92 89 89 90 90 90 92 92 91 89 85 81 81 85 83 81 81 85 85 87 87 87 86 85 83 81 82 84 88 85 62 86
60 65 95 93 93 92 92 91 91 93 94 92 91 90 90 91 92 92 92 91 88 85 81 81 85 83 80 84 86 87 87 87 88 85 85 85 83 82 84 88 82 73 87
68 69 80 94 93 92 91 91 90 92 92 92 92 91 91 92 93 93 92 91 88 85 80 80 80 79 80 87 89 89 89 88 89 89 85 57 61 81 84 88 87 88 87
64 69 72 95 93 92 91 91 91 89 91 91 91 91 92 92 93 93 92 91 88 86 82 81 80 81 86 89 91 92 91 90 91 91 64 61 60 82 84 86 86 85 86
63 65 73 95 94 93 93 92 91 91 91 91 91 91 92 92 93 93 92 92 89 87 82 81 82 87 91 92 94 94 94 94 94 75 60 71 63 76 82 84 86 87 82
66 64 90 96 95 94 93 92 92 92 93 92 92 92 91 92 92 93 93 92 89 87 79 78 87 91 93 94 94 94 94 95 89 60 61 68 69 80 82 85 86 88 87
71 70 81 96 96 94 93 93 92 93 93 93 93 93 92 93 94 94 93 91 89 87 83 85 92 92 93 94 93 94 94 93 67 69 65 65 69 82 81 85 89 89 88
78 80 80 93 96 95 94 95 94 94 93 94 94 94 94 94 95 95 94 92 90 90 92 94 92 92 93 93 94 95 94 89 72 68 69 69 79 76 79 82 84 86 87
81 84 86 83 86 97 97 97 96 94 94 94 95 96 96 96 95 94 94 93 93 94 94 92 92 93 93 94 93 94 94 91 68 72 69 69 86 87 93 86 79 83 86
83 84 86 87 84 84 87 98 96 96 95 95 95 96 97 96 95 93 94 93 93 94 94 92 93 93 94 94 92 93 94 92 62 63 66 72 84 82 84 86 84 82 83
86 82 85 85 84 85 85 87 96 96 96 96 93 96 94 74 77 79 82 94 94 95 94 92 93 94 96 95 94 92 92 63 65 61 68 87 83 76 78 85 84 84 81
83 86 79 80 80 81 76 84 85 82 81 79 79 82 79 79 77 72 82 94 94 95 94 94 93 98 92 84 80 86 65 68 63 65 57 91 82 82 81 83 84 84 84
65 73 79 80 78 79 75 77 84 79 85 86 86 88 88 82 85 80 84 75 76 89 75 78 79 75 90 90 80 74 68 67 61 61 73 92 82 77 80 85 84 82 84
62 68 73 79 81 81 74 75 80 80 85 88 89 90 90 89 90 88 85 86 76 74 80 74 72 91 81 79 76 76 74 68 62 59 67 94 92 79 82 85 82 82 82
59 63 74 82 84 81 81 77 77 84 86 85 87 88 88 87 89 88 86 89 84 84 79 80 81 79 78 77 75 73 70 70 69 64 64 96 96 86 82 87 88 80 79
56 61 71 77 82 81 82 79 79 82 84 84 84 86 90 86 88 93 90 88 90 83 83 78 79 81 77 77 79 80 73 68 66 68 65 69 98 98 83 86 92 87 75
47 58 71 77 79 82 83 80 79 77 80 81 79 84 89 86 86 92 92 89 84 90 88 88 89 89 80 80 80 84 70 69 67 66 66 68 71 100 97 82 91 89 81
36 60 67 67 78 80 78 79 79 80 81 81 82 81 85 85 86 91 93 89 87 92 96 95 95 94 84 80 78 76 75 74 70 68 65 66 66 65 92 95 84 88 92
38 55 66 71 74 80 78 76 78 82 84 82 87 86 84 85 88 91 90 88 91 89 92 93 95 89 90 90 81 78 79 79 74 67 68 67 68 69 68 90 92 93 94
26 54 63 71 73 77 73 76 76 80 77 83 82 78 85 84 90 90 88 90 90 91 93 92 89 93 87 85 84 83 84 84 79 77 73 67 68 70 72 72 82 95 96
52 55 65 77 76 73 73 79 77 80 83 85 73 74 78 80 87 89 88 90 89 91 94 94 94 96 97 94 96 98 97 91 91 88 76 76 76 74 77 79 82 97 97
70 68 59 69 79 79 70 69 71 73 76 83 81 77 77 78 86 83 87 88 91 92 93 95 95 98 96 96 95 92 95 94 96 86 92 88 82 76 81 83 91 95 96
72 74 69 67 72 85 76 76 85 88 89 93 89 86 84 79 80 82 84 84 90 90 91 90 94 89 93 96 85 76 92 83 86 86 91 88 83 91 86 82 86 96 94
72 71 70 73 73 77 89 84 89 83 84 82 85 88 89 83 78 81 88 87 88 91 93 90 88 90 85 90 92 89 77 66 73 79 83 91 90 80 92 88 87 94 94
71 72 70 71 75 80 84 91 91 88 81 73 81 87 92 88 89 86 91 92 93 90 88 92 88 90 89 82 82 90 94 90 80 79 78 86 85 82 84 93 90 95 93
72 72 71 73 73 77 82 88 94 92 87 90 86 86 85 93 95 96 94 94 95 95 93 92 87 85 84 85 82 84 85 87 91 86 91 84 90 85 83 95 96 96 97

GFSSE_sfc_rhum_126.txt.gz
RH
32 45 93 92 92 92 91 93 94 93 90 88 89 90 91 90 90 91 92 91 88 85 81 80 83 82 77 78 85 84 87 88 88 87 85 82 81 82 85 86 79 55 85
31 48 93 91 91 91 91 93 95 94 91 88 89 90 90 90 91 91 92 90 88 84 79 79 81 79 77 85 86 87 88 88 89 90 87 84 86 82 82 83 79 67 86
36 49 69 92 91 91 91 92 94 94 92 89 89 90 90 91 91 92 92 90 88 85 80 79 78 76 79 86 87 88 88 88 88 90 86 46 54 83 80 81 86 88 87
36 48 53 94 92 91 91 92 94 93 92 91 90 90 91 92 92 92 92 91 89 86 81 78 77 79 84 89 89 89 89 90 90 88 56 57 59 84 82 85 88 85 85
38 44 53 93 92 91 91 92 93 94 93 92 91 90 92 92 92 92 92 92 90 87 82 79 80 86 89 91 92 92 91 92 90 76 46 54 66 74 82 83 85 83 80
40 40 82 95 93 92 92 91 92 93 94 93 92 92 92 92 92 92 93 92 90 87 85 82 86 90 91 93 93 93 94 92 92 47 47 59 56 81 80 84 82 83 87
44 45 71 96 94 92 91 91 92 92 93 93 93 93 92 92 93 93 93 92 91 88 83 88 91 91 92 93 94 94 94 91 54 47 49 54 60 79 76 80 82 86 88
53 55 63 90 94 94 92 93 93 92 93 94 94 94 94 94 94 93 92 92 91 86 85 92 92 92 93 93 94 95 94 93 58 49 54 62 75 75 78 81 85 84 87
58 65 67 70 78 97 96 95 94 93 94 94 95 96 96 96 95 94 92 90 91 90 92 93 92 92 93 93 94 95 94 89 53 58 56 64 88 84 88 96 87 82 85
64 66 67 66 68 70 73 96 94 94 94 95 96 96 97 97 96 95 94 93 93 92 92 92 92 93 93 93 93 94 93 90 48 45 58 66 84 80 76 86 84 83 85
62 63 65 62 61 64 63 72 93 95 94 96 92 97 92 62 70 76 76 94 94 94 92 92 93 94 95 94 92 92 94 43 43 42 62 88 80 77 79 82 82 84 83
57 59 56 60 59 60 51 61 67 64 61 63 66 71 64 59 59 56 71 94 95 95 93 92 93 95 91 52 60 84 48 44 45 42 63 87 85 80 77 81 84 84 83
43 49 54 60 60 59 53 54 59 54 56 59 64 65 64 60 61 58 58 64 63 86 60 70 73 58 54 52 48 49 46 51 39 39 73 89 83 76 82 80 83 86 84
29 46 48 54 60 63 48 51 60 57 72 68 59 67 64 61 66 64 58 57 59 56 56 55 53 55 63 61 54 53 52 46 40 38 69 91 88 78 76 78 85 87 85
18 37 48 52 59 59 62 51 54 55 63 72 75 78 74 58 64 61 61 58 58 58 56 54 53 60 60 57 54 53 52 51 48 41 42 92 92 91 77 77 83 89 86
16 29 46 50 62 63 62 59 57 58 55 68 72 76 83 61 64 59 63 69 60 60 56 55 53 59 55 54 55 54 51 48 47 47 41 61 94 93 89 81 84 89 89
12 18 37 55 61 67 67 59 57 52 54 60 67 78 84 72 72 78 74 67 76 63 65 61 60 61 58 58 56 54 51 54 49 49 47 45 64 99 98 88 88 89 87
13 14 20 41 56 63 62 57 50 50 58 55 65 63 79 78 68 80 77 73 64 82 79 79 78 74 58 60 61 54 51 49 53 51 48 47 45 55 86 95 90 88 88
12 15 17 37 54 60 59 56 56 58 70 57 59 53 69 77 75 73 76 77 77 84 90 84 83 72 68 62 60 61 60 56 54 48 50 52 53 50 48 91 94 90 87
22 21 18 28 53 59 54 56 52 54 63 59 65 63 62 71 76 80 75 79 86 79 87 87 87 86 72 64 58 59 63 60 58 57 57 54 55 55 52 56 64 64 92
39 37 23 28 48 54 54 53 52 55 55 56 52 58 62 74 77 80 74 85 86 80 82 86 90 89 88 72 81 85 85 79 74 68 57 60 58 56 58 55 62 68 77
50 49 45 37 37 50 50 46 45 47 48 49 51 53 56 61 76 80 78 80 81 71 81 85 87 92 89 85 89 85 84 66 79 78 65 62 60 57 61 65 60 60 74
54 57 52 48 46 53 60 50 47 48 51 53 56 53 54 58 63 80 70 70 71 69 76 85 86 91 95 93 79 61 74 65 49 57 74 72 67 71 66 65 68 64 71
63 63 60 54 56 75 80 67 63 58 62 58 59 54 56 63 61 62 67 64 66 76 72 77 78 82 83 92 91 64 54 50 51 53 59 78 81 79 77 70 61 67 73
72 69 70 69 66 67 85 95 91 69 56 54 65 69 80 77 70 60 64 68 77 78 79 85 87 90 73 76 71 64 73 67 63 57 52 60 64 62 58 66 72 70 73
83 81 73 73 73 76 76 87 96 89 70 70 76 78 81 90 90 85 74 82 82 87 89 89 87 86 81 74 62 59 62 72 79 80 71 59 58 57 58 60 71 70 77

GFSSE_sfc_rhum_129.txt.gz
RH
19 46 92 90 92 92 93 94 93 91 90 90 90 92 92 92 92 93 93 92 90 87 81 80 79 79 76 75 79 81 85 88 88 87 85 81 80 81 82 86 82 62 85
21 49 94 91 92 91 93 94 93 91 90 90 91 92 92 92 92 93 93 91 89 84 79 80 80 77 76 82 84 85 88 88 91 89 87 83 81 79 79 81 78 71 84
25 47 67 92 92 91 92 93 92 90 89 90 91 92 92 92 92 93 92 91 88 84 78 78 77 75 78 85 86 87 88 88 90 88 86 49 53 81 76 85 87 87 87
26 43 53 94 92 91 92 94 94 92 90 90 91 91 92 91 92 92 92 91 90 86 80 77 76 78 83 87 88 87 88 89 89 87 57 54 54 81 78 82 85 85 82
28 37 48 93 92 91 92 94 95 94 93 92 91 91 92 92 92 92 92 92 90 87 80 77 79 84 88 90 90 90 90 90 88 78 73 59 62 71 78 82 85 83 80
30 34 83 95 92 91 92 94 95 95 95 94 93 92 92 92 92 93 92 92 90 88 84 82 85 88 90 91 91 92 92 90 93 52 54 60 57 80 79 81 82 84 85
35 38 66 95 93 91 90 92 94 95 95 94 93 93 93 92 93 93 92 92 92 90 88 90 89 90 91 92 92 93 92 90 55 58 55 58 63 80 75 79 80 84 84
40 43 61 90 94 92 92 92 94 94 94 94 94 94 94 94 94 93 92 92 91 88 89 92 90 91 92 92 93 94 92 93 57 57 55 64 80 77 79 83 85 86 86
46 52 69 68 78 97 95 94 94 94 94 94 95 95 95 96 95 93 92 91 90 87 89 92 91 92 92 93 94 94 94 91 67 47 50 71 88 81 82 85 89 89 85
54 56 73 65 65 67 70 96 94 94 94 95 95 96 97 96 95 94 93 92 91 90 91 91 91 92 92 93 94 94 92 87 57 59 48 69 85 81 80 83 82 84 85
50 54 70 67 57 60 59 69 92 95 95 96 93 97 92 63 71 76 76 91 93 92 92 91 91 93 94 93 92 91 93 48 61 59 48 91 82 76 75 81 83 84 84
28 50 50 66 54 56 46 58 64 61 60 63 64 71 64 58 59 54 68 93 96 95 92 92 92 94 92 54 62 85 55 58 39 65 49 87 83 77 77 82 82 81 82
13 30 46 59 54 53 48 46 52 52 55 56 61 63 64 56 68 62 60 70 68 89 66 74 75 61 56 59 58 51 47 48 41 63 73 88 85 77 78 79 83 80 84
12 17 40 44 53 57 43 42 44 46 52 52 54 66 63 58 68 64 59 68 64 60 58 58 53 56 52 50 48 62 55 51 55 59 81 91 88 79 76 78 79 79 82
10 13 21 47 51 54 60 43 46 51 46 49 51 58 58 53 62 61 64 62 63 56 60 62 52 53 55 55 52 50 59 58 49 44 74 91 89 85 78 74 77 81 86
13 13 19 33 57 51 54 58 50 52 48 62 58 53 64 56 58 59 73 70 68 62 68 73 62 67 58 60 57 51 51 59 57 56 79 84 90 90 88 81 76 76 85
9 12 21 36 50 61 57 54 49 44 46 53 56 67 75 63 58 58 58 70 54 60 67 73 71 67 59 62 64 63 49 49 44 51 47 81 82 94 93 89 84 84 85
8 12 18 16 44 58 60 52 48 45 49 45 50 56 75 71 58 62 58 57 67 61 67 66 65 64 61 67 68 65 59 58 55 54 60 59 79 65 89 94 90 88 86
8 10 16 23 26 55 64 57 57 55 50 45 46 49 67 78 66 64 79 71 70 62 68 67 64 62 58 55 68 65 58 60 63 55 64 63 61 53 62 91 92 92 90
15 21 30 31 36 47 53 65 51 49 50 48 44 48 53 66 77 64 71 77 73 58 70 81 83 79 65 55 48 61 72 69 60 66 60 55 60 64 62 62 70 71 93
33 38 38 40 46 36 50 72 58 53 52 55 48 49 50 54 78 79 69 74 80 75 79 83 88 85 74 65 74 74 69 73 65 59 59 63 63 62 62 67 67 68 71
43 40 44 42 43 41 45 50 59 48 49 50 50 52 54 57 68 73 74 64 81 80 83 88 88 89 77 76 73 77 74 58 61 63 59 55 58 51 60 57 58 66 74
57 56 52 49 46 44 52 49 52 47 48 49 48 47 53 56 63 74 78 63 77 76 69 84 86 82 82 88 76 64 62 58 45 54 65 62 62 56 53 60 67 64 64
68 68 67 62 59 56 70 90 66 56 45 44 46 44 45 54 55 66 72 68 71 74 68 72 81 82 79 87 87 72 66 55 52 47 52 61 65 65 74 70 67 67 65
76 81 79 72 66 66 81 90 83 72 46 46 52 57 58 59 58 57 74 68 68 64 71 68 82 85 80 72 76 72 75 66 61 60 58 58 62 62 60 64 65 65 64
83 86 86 80 75 71 83 89 87 81 84 92 94 84 82 86 80 76 69 73 70 69 74 71 76 85 80 79 74 72 69 74 68 66 66 59 53 54 59 62 69 66 72